<?xml version='1.0' encoding='UTF-8'?>
<gpx version="1.1" creator="https://www.komoot.de" xmlns="http://www.topografix.com/GPX/1/1" xmlns:xsi="http://www.w3.org/2001/XMLSchema-instance" xsi:schemaLocation="http://www.topografix.com/GPX/1/1 http://www.topografix.com/GPX/1/1/gpx.xsd">
  <metadata>
    <name>ADFC-Ri-2026-08-23: Altenbekener Viadukte</name>
    <author>
      <link href="https://www.komoot.de">
        <text>komoot</text>
        <type>text/html</type>
      </link>
    </author>
  </metadata>
  <wpt lat="51.818152" lon="8.430700">
    <name>Lidl</name>
    <sym>Shopping Center</sym>
  </wpt>
  <wpt lat="51.784818" lon="8.654430">
    <name>Wacholder Point Selbstbedienungs-Erfrischungskiosk</name>
    <sym>Picnic Area</sym>
  </wpt>
  <wpt lat="51.781461" lon="8.822186">
    <name>Lippequelle</name>
    <sym>Flag, Blue</sym>
  </wpt>
  <wpt lat="51.781162" lon="8.822199">
    <name>Lippequelle</name>
    <sym>Flag, Blue</sym>
  </wpt>
  <wpt lat="51.755586" lon="8.844435">
    <name>Gut Redingerhof</name>
    <sym>Restaurant</sym>
  </wpt>
  <wpt lat="51.749863" lon="8.880966">
    <name>Kleiner Viadukt im Dunetal</name>
    <sym>Bridge</sym>
  </wpt>
  <wpt lat="51.758938" lon="8.905647">
    <name>Holzbrücke im Naturpark Teutoburger Wald</name>
    <sym>Bridge</sym>
  </wpt>
  <wpt lat="51.762750" lon="8.924647">
    <name>Altenbekener Viadukt</name>
    <sym>Bridge</sym>
  </wpt>
  <wpt lat="51.764102" lon="8.929497">
    <name>Mühle vor dem Viadukt</name>
    <sym>Flag, Blue</sym>
  </wpt>
  <wpt lat="51.762782" lon="8.935332">
    <name>Eggemuseum Altenbeken</name>
    <sym>Flag, Blue</sym>
  </wpt>
  <wpt lat="51.741824" lon="8.943790">
    <name>Pfarrkirche St. Dionysius, Buke</name>
    <sym>Flag, Blue</sym>
  </wpt>
  <wpt lat="51.739290" lon="8.944040">
    <name>Historischer Dorfbrunnen (Dorfkump) in Buke</name>
    <sym>Flag, Blue</sym>
  </wpt>
  <wpt lat="51.719855" lon="8.935144">
    <name>Mittelpunkt des Hochstifts</name>
    <sym>Flag, Blue</sym>
  </wpt>
  <wpt lat="51.717168" lon="8.926801">
    <name>Eingang zum Dorf Schwaney</name>
    <sym>Shopping Center</sym>
  </wpt>
  <wpt lat="51.695448" lon="8.826106">
    <name>Alpakas vom Ellertal</name>
    <sym>Flag, Blue</sym>
  </wpt>
  <wpt lat="51.696304" lon="8.795981">
    <name>Lichtenturm (Haxter Warte)</name>
    <sym>Flag, Blue</sym>
  </wpt>
  <wpt lat="51.708887" lon="8.709714">
    <name>Rastplatz mit Blick auf die Alme</name>
    <sym>Picnic Area</sym>
  </wpt>
  <wpt lat="51.713737" lon="8.632245">
    <name>Heiligenhäuschen in Scharmede</name>
    <sym>Flag, Blue</sym>
  </wpt>
  <wpt lat="51.745247" lon="8.510585">
    <name>Rastplatz Sudhagen</name>
    <sym>Picnic Area</sym>
  </wpt>
  <wpt lat="51.747802" lon="8.488414">
    <name>Bauernhofcafé Rohlings Deele</name>
    <sym>Restaurant</sym>
  </wpt>
  <wpt lat="51.751595" lon="8.455935">
    <name>Erlebnispark Meiwes</name>
    <sym>Picnic Area</sym>
  </wpt>
  <trk>
    <name>ADFC-Ri-2026-08-23: Altenbekener Viadukte</name>
    <type>touring_bicycle</type>
    <trkseg>
      <trkpt lat="51.818315" lon="8.430761">
        <ele>78.521877</ele>
        <time>2026-08-17T07:27:33.071Z</time>
      </trkpt>
      <trkpt lat="51.818226" lon="8.431390">
        <ele>78.521877</ele>
        <time>2026-08-17T07:27:42.223Z</time>
      </trkpt>
      <trkpt lat="51.818046" lon="8.432598">
        <ele>78.565802</ele>
        <time>2026-08-17T07:28:00.043Z</time>
      </trkpt>
      <trkpt lat="51.817926" lon="8.433471">
        <ele>78.656519</ele>
        <time>2026-08-17T07:28:12.703Z</time>
      </trkpt>
      <trkpt lat="51.817788" lon="8.434474">
        <ele>78.760750</ele>
        <time>2026-08-17T07:28:27.234Z</time>
      </trkpt>
      <trkpt lat="51.817486" lon="8.436691">
        <ele>78.848584</ele>
        <time>2026-08-17T07:28:59.006Z</time>
      </trkpt>
      <trkpt lat="51.817482" lon="8.436827">
        <ele>78.851089</ele>
        <time>2026-08-17T07:29:00.940Z</time>
      </trkpt>
      <trkpt lat="51.816955" lon="8.440479">
        <ele>78.832821</ele>
        <time>2026-08-17T07:29:52.002Z</time>
      </trkpt>
      <trkpt lat="51.816358" lon="8.444591">
        <ele>78.919089</ele>
        <time>2026-08-17T07:30:50.622Z</time>
      </trkpt>
      <trkpt lat="51.816256" lon="8.444833">
        <ele>78.911628</ele>
        <time>2026-08-17T07:30:54.648Z</time>
      </trkpt>
      <trkpt lat="51.816200" lon="8.445064">
        <ele>78.905308</ele>
        <time>2026-08-17T07:30:58.049Z</time>
      </trkpt>
      <trkpt lat="51.816188" lon="8.445319">
        <ele>78.898794</ele>
        <time>2026-08-17T07:31:01.553Z</time>
      </trkpt>
      <trkpt lat="51.816206" lon="8.445638">
        <ele>78.890635</ele>
        <time>2026-08-17T07:31:05.921Z</time>
      </trkpt>
      <trkpt lat="51.815736" lon="8.448884">
        <ele>78.771641</ele>
        <time>2026-08-17T07:31:50.779Z</time>
      </trkpt>
      <trkpt lat="51.815727" lon="8.448950">
        <ele>78.769047</ele>
        <time>2026-08-17T07:31:51.703Z</time>
      </trkpt>
      <trkpt lat="51.815710" lon="8.449077">
        <ele>78.764059</ele>
        <time>2026-08-17T07:31:53.465Z</time>
      </trkpt>
      <trkpt lat="51.814622" lon="8.456598">
        <ele>79.721585</ele>
        <time>2026-08-17T07:33:43.407Z</time>
      </trkpt>
      <trkpt lat="51.814590" lon="8.456778">
        <ele>79.755843</ele>
        <time>2026-08-17T07:33:46.168Z</time>
      </trkpt>
      <trkpt lat="51.814431" lon="8.457890">
        <ele>79.962976</ele>
        <time>2026-08-17T07:34:03.042Z</time>
      </trkpt>
      <trkpt lat="51.814399" lon="8.458269">
        <ele>80.030455</ele>
        <time>2026-08-17T07:34:08.717Z</time>
      </trkpt>
      <trkpt lat="51.814370" lon="8.460594">
        <ele>80.429271</ele>
        <time>2026-08-17T07:34:42.446Z</time>
      </trkpt>
      <trkpt lat="51.814343" lon="8.461170">
        <ele>80.397025</ele>
        <time>2026-08-17T07:34:50.540Z</time>
      </trkpt>
      <trkpt lat="51.814285" lon="8.461742">
        <ele>80.364668</ele>
        <time>2026-08-17T07:34:58.458Z</time>
      </trkpt>
      <trkpt lat="51.814130" lon="8.462642">
        <ele>80.312514</ele>
        <time>2026-08-17T07:35:10.847Z</time>
      </trkpt>
      <trkpt lat="51.814032" lon="8.463066">
        <ele>80.287245</ele>
        <time>2026-08-17T07:35:16.758Z</time>
      </trkpt>
      <trkpt lat="51.813619" lon="8.464401">
        <ele>80.214486</ele>
        <time>2026-08-17T07:35:36.574Z</time>
      </trkpt>
      <trkpt lat="51.813384" lon="8.465264">
        <ele>80.170318</ele>
        <time>2026-08-17T07:35:49.373Z</time>
      </trkpt>
      <trkpt lat="51.813222" lon="8.466173">
        <ele>80.148227</ele>
        <time>2026-08-17T07:36:02.565Z</time>
      </trkpt>
      <trkpt lat="51.813159" lon="8.466822">
        <ele>80.210766</ele>
        <time>2026-08-17T07:36:11.796Z</time>
      </trkpt>
      <trkpt lat="51.813129" lon="8.467491">
        <ele>80.274618</ele>
        <time>2026-08-17T07:36:21.174Z</time>
      </trkpt>
      <trkpt lat="51.812994" lon="8.471552">
        <ele>80.875808</ele>
        <time>2026-08-17T07:37:19.209Z</time>
      </trkpt>
      <trkpt lat="51.812996" lon="8.471615">
        <ele>80.886925</ele>
        <time>2026-08-17T07:37:20.152Z</time>
      </trkpt>
      <trkpt lat="51.813118" lon="8.472255">
        <ele>81.082863</ele>
        <time>2026-08-17T07:37:30.182Z</time>
      </trkpt>
      <trkpt lat="51.813769" lon="8.475048">
        <ele>81.946105</ele>
        <time>2026-08-17T07:38:15.976Z</time>
      </trkpt>
      <trkpt lat="51.813486" lon="8.475428">
        <ele>81.971474</ele>
        <time>2026-08-17T07:38:24.272Z</time>
      </trkpt>
      <trkpt lat="51.812993" lon="8.475914">
        <ele>82.011297</ele>
        <time>2026-08-17T07:38:36.808Z</time>
      </trkpt>
      <trkpt lat="51.812835" lon="8.476041">
        <ele>82.023466</ele>
        <time>2026-08-17T07:38:40.589Z</time>
      </trkpt>
      <trkpt lat="51.812517" lon="8.476192">
        <ele>82.046326</ele>
        <time>2026-08-17T07:38:47.721Z</time>
      </trkpt>
      <trkpt lat="51.812337" lon="8.477065">
        <ele>82.100811</ele>
        <time>2026-08-17T07:39:00.216Z</time>
      </trkpt>
      <trkpt lat="51.812244" lon="8.477826">
        <ele>82.147000</ele>
        <time>2026-08-17T07:39:10.950Z</time>
      </trkpt>
      <trkpt lat="51.812195" lon="8.480043">
        <ele>82.313562</ele>
        <time>2026-08-17T07:39:43.059Z</time>
      </trkpt>
      <trkpt lat="51.812117" lon="8.481113">
        <ele>82.415353</ele>
        <time>2026-08-17T07:39:58.343Z</time>
      </trkpt>
      <trkpt lat="51.811929" lon="8.482255">
        <ele>82.509775</ele>
        <time>2026-08-17T07:40:14.621Z</time>
      </trkpt>
      <trkpt lat="51.811732" lon="8.483012">
        <ele>82.545327</ele>
        <time>2026-08-17T07:40:25.954Z</time>
      </trkpt>
      <trkpt lat="51.810835" lon="8.485273">
        <ele>82.584846</ele>
        <time>2026-08-17T07:41:03.567Z</time>
      </trkpt>
      <trkpt lat="51.810293" lon="8.486612">
        <ele>82.522739</ele>
        <time>2026-08-17T07:41:24.877Z</time>
      </trkpt>
      <trkpt lat="51.809133" lon="8.489456">
        <ele>82.482012</ele>
        <time>2026-08-17T07:42:11.360Z</time>
      </trkpt>
      <trkpt lat="51.809090" lon="8.489561">
        <ele>82.496855</ele>
        <time>2026-08-17T07:42:14.338Z</time>
      </trkpt>
      <trkpt lat="51.808785" lon="8.490314">
        <ele>82.602943</ele>
        <time>2026-08-17T07:42:35.704Z</time>
      </trkpt>
      <trkpt lat="51.808345" lon="8.491133">
        <ele>82.730810</ele>
        <time>2026-08-17T07:43:01.364Z</time>
      </trkpt>
      <trkpt lat="51.807921" lon="8.491731">
        <ele>82.798702</ele>
        <time>2026-08-17T07:43:22.367Z</time>
      </trkpt>
      <trkpt lat="51.807511" lon="8.492191">
        <ele>82.759474</ele>
        <time>2026-08-17T07:43:40.686Z</time>
      </trkpt>
      <trkpt lat="51.807293" lon="8.492396">
        <ele>82.739650</ele>
        <time>2026-08-17T07:43:49.839Z</time>
      </trkpt>
      <trkpt lat="51.806853" lon="8.492735">
        <ele>82.701335</ele>
        <time>2026-08-17T07:44:07.513Z</time>
      </trkpt>
      <trkpt lat="51.802894" lon="8.495430">
        <ele>82.318283</ele>
        <time>2026-08-17T07:46:45.431Z</time>
      </trkpt>
      <trkpt lat="51.798522" lon="8.498414">
        <ele>82.130263</ele>
        <time>2026-08-17T07:48:30.050Z</time>
      </trkpt>
      <trkpt lat="51.798410" lon="8.498491">
        <ele>82.127705</ele>
        <time>2026-08-17T07:48:32.788Z</time>
      </trkpt>
      <trkpt lat="51.797844" lon="8.498880">
        <ele>82.161533</ele>
        <time>2026-08-17T07:48:46.583Z</time>
      </trkpt>
      <trkpt lat="51.797526" lon="8.499173">
        <ele>82.200039</ele>
        <time>2026-08-17T07:48:54.875Z</time>
      </trkpt>
      <trkpt lat="51.797313" lon="8.499418">
        <ele>82.227539</ele>
        <time>2026-08-17T07:49:00.817Z</time>
      </trkpt>
      <trkpt lat="51.795760" lon="8.501837">
        <ele>82.482585</ele>
        <time>2026-08-17T07:49:49.883Z</time>
      </trkpt>
      <trkpt lat="51.793445" lon="8.505490">
        <ele>82.806283</ele>
        <time>2026-08-17T07:51:02.936Z</time>
      </trkpt>
      <trkpt lat="51.793155" lon="8.505929">
        <ele>82.845640</ele>
        <time>2026-08-17T07:51:12.068Z</time>
      </trkpt>
      <trkpt lat="51.792265" lon="8.507151">
        <ele>82.946760</ele>
        <time>2026-08-17T07:51:38.903Z</time>
      </trkpt>
      <trkpt lat="51.792211" lon="8.507224">
        <ele>82.952384</ele>
        <time>2026-08-17T07:51:40.480Z</time>
      </trkpt>
      <trkpt lat="51.792165" lon="8.507287">
        <ele>82.957201</ele>
        <time>2026-08-17T07:51:41.866Z</time>
      </trkpt>
      <trkpt lat="51.790194" lon="8.510001">
        <ele>82.897096</ele>
        <time>2026-08-17T07:52:38.800Z</time>
      </trkpt>
      <trkpt lat="51.790021" lon="8.510312">
        <ele>82.900298</ele>
        <time>2026-08-17T07:52:44.448Z</time>
      </trkpt>
      <trkpt lat="51.789781" lon="8.510745">
        <ele>82.932452</ele>
        <time>2026-08-17T07:52:52.338Z</time>
      </trkpt>
      <trkpt lat="51.788933" lon="8.512327">
        <ele>83.048223</ele>
        <time>2026-08-17T07:53:21.808Z</time>
      </trkpt>
      <trkpt lat="51.788802" lon="8.512616">
        <ele>83.113905</ele>
        <time>2026-08-17T07:53:27.017Z</time>
      </trkpt>
      <trkpt lat="51.788590" lon="8.513225">
        <ele>83.243569</ele>
        <time>2026-08-17T07:53:37.273Z</time>
      </trkpt>
      <trkpt lat="51.788496" lon="8.513229">
        <ele>83.271776</ele>
        <time>2026-08-17T07:53:39.504Z</time>
      </trkpt>
      <trkpt lat="51.787591" lon="8.516464">
        <ele>83.588075</ele>
        <time>2026-08-17T07:54:30.805Z</time>
      </trkpt>
      <trkpt lat="51.787200" lon="8.517784">
        <ele>83.515281</ele>
        <time>2026-08-17T07:54:49.665Z</time>
      </trkpt>
      <trkpt lat="51.787098" lon="8.517998">
        <ele>83.466309</ele>
        <time>2026-08-17T07:54:53.078Z</time>
      </trkpt>
      <trkpt lat="51.786645" lon="8.518729">
        <ele>83.278744</ele>
        <time>2026-08-17T07:55:06.225Z</time>
      </trkpt>
      <trkpt lat="51.785393" lon="8.520768">
        <ele>82.776380</ele>
        <time>2026-08-17T07:55:45.282Z</time>
      </trkpt>
      <trkpt lat="51.785280" lon="8.520883">
        <ele>82.739630</ele>
        <time>2026-08-17T07:55:48.144Z</time>
      </trkpt>
      <trkpt lat="51.785309" lon="8.521077">
        <ele>82.705650</ele>
        <time>2026-08-17T07:55:50.869Z</time>
      </trkpt>
      <trkpt lat="51.784835" lon="8.521814">
        <ele>82.471080</ele>
        <time>2026-08-17T07:56:04.190Z</time>
      </trkpt>
      <trkpt lat="51.784500" lon="8.522242">
        <ele>82.201225</ele>
        <time>2026-08-17T07:56:12.651Z</time>
      </trkpt>
      <trkpt lat="51.784086" lon="8.522664">
        <ele>81.891909</ele>
        <time>2026-08-17T07:56:22.256Z</time>
      </trkpt>
      <trkpt lat="51.783329" lon="8.523244">
        <ele>81.399535</ele>
        <time>2026-08-17T07:56:39.221Z</time>
      </trkpt>
      <trkpt lat="51.783971" lon="8.526623">
        <ele>80.897883</ele>
        <time>2026-08-17T07:57:26.081Z</time>
      </trkpt>
      <trkpt lat="51.784423" lon="8.528948">
        <ele>80.867884</ele>
        <time>2026-08-17T07:57:59.415Z</time>
      </trkpt>
      <trkpt lat="51.785477" lon="8.534395">
        <ele>81.618453</ele>
        <time>2026-08-17T07:59:21.496Z</time>
      </trkpt>
      <trkpt lat="51.786088" lon="8.537557">
        <ele>82.147934</ele>
        <time>2026-08-17T08:00:09.369Z</time>
      </trkpt>
      <trkpt lat="51.786149" lon="8.537873">
        <ele>82.178817</ele>
        <time>2026-08-17T08:00:14.095Z</time>
      </trkpt>
      <trkpt lat="51.786700" lon="8.540766">
        <ele>82.290157</ele>
        <time>2026-08-17T08:00:56.097Z</time>
      </trkpt>
      <trkpt lat="51.786899" lon="8.541593">
        <ele>82.231798</ele>
        <time>2026-08-17T08:01:07.957Z</time>
      </trkpt>
      <trkpt lat="51.787791" lon="8.544951">
        <ele>81.920539</ele>
        <time>2026-08-17T08:01:56.440Z</time>
      </trkpt>
      <trkpt lat="51.788002" lon="8.545748">
        <ele>82.015204</ele>
        <time>2026-08-17T08:02:08.691Z</time>
      </trkpt>
      <trkpt lat="51.789442" lon="8.551174">
        <ele>83.012179</ele>
        <time>2026-08-17T08:03:35.450Z</time>
      </trkpt>
      <trkpt lat="51.789456" lon="8.551227">
        <ele>83.012433</ele>
        <time>2026-08-17T08:03:36.247Z</time>
      </trkpt>
      <trkpt lat="51.790591" lon="8.555546">
        <ele>82.953312</ele>
        <time>2026-08-17T08:04:39.090Z</time>
      </trkpt>
      <trkpt lat="51.791411" lon="8.558665">
        <ele>83.542245</ele>
        <time>2026-08-17T08:05:28.954Z</time>
      </trkpt>
      <trkpt lat="51.791528" lon="8.559052">
        <ele>83.624470</ele>
        <time>2026-08-17T08:05:35.013Z</time>
      </trkpt>
      <trkpt lat="51.791544" lon="8.559094">
        <ele>83.633886</ele>
        <time>2026-08-17T08:05:35.714Z</time>
      </trkpt>
      <trkpt lat="51.791300" lon="8.559596">
        <ele>83.755758</ele>
        <time>2026-08-17T08:05:44.568Z</time>
      </trkpt>
      <trkpt lat="51.791256" lon="8.559680">
        <ele>83.776770</ele>
        <time>2026-08-17T08:05:46.141Z</time>
      </trkpt>
      <trkpt lat="51.790819" lon="8.560579">
        <ele>83.995031</ele>
        <time>2026-08-17T08:06:02.609Z</time>
      </trkpt>
      <trkpt lat="51.790736" lon="8.560712">
        <ele>84.031096</ele>
        <time>2026-08-17T08:06:05.437Z</time>
      </trkpt>
      <trkpt lat="51.790029" lon="8.562130">
        <ele>84.719730</ele>
        <time>2026-08-17T08:06:33.583Z</time>
      </trkpt>
      <trkpt lat="51.789960" lon="8.562350">
        <ele>84.817859</ele>
        <time>2026-08-17T08:06:37.491Z</time>
      </trkpt>
      <trkpt lat="51.790048" lon="8.562387">
        <ele>84.876339</ele>
        <time>2026-08-17T08:06:39.795Z</time>
      </trkpt>
      <trkpt lat="51.790045" lon="8.562610">
        <ele>84.965074</ele>
        <time>2026-08-17T08:06:43.288Z</time>
      </trkpt>
      <trkpt lat="51.790083" lon="8.562870">
        <ele>85.071356</ele>
        <time>2026-08-17T08:06:47.431Z</time>
      </trkpt>
      <trkpt lat="51.790137" lon="8.563301">
        <ele>85.229315</ele>
        <time>2026-08-17T08:06:54.197Z</time>
      </trkpt>
      <trkpt lat="51.789885" lon="8.563568">
        <ele>85.292796</ele>
        <time>2026-08-17T08:07:01.544Z</time>
      </trkpt>
      <trkpt lat="51.789484" lon="8.563783">
        <ele>85.381809</ele>
        <time>2026-08-17T08:07:11.465Z</time>
      </trkpt>
      <trkpt lat="51.789138" lon="8.564044">
        <ele>85.462254</ele>
        <time>2026-08-17T08:07:20.106Z</time>
      </trkpt>
      <trkpt lat="51.789020" lon="8.564269">
        <ele>85.500699</ele>
        <time>2026-08-17T08:07:24.206Z</time>
      </trkpt>
      <trkpt lat="51.788590" lon="8.565094">
        <ele>85.593101</ele>
        <time>2026-08-17T08:07:39.075Z</time>
      </trkpt>
      <trkpt lat="51.788461" lon="8.566045">
        <ele>85.571893</ele>
        <time>2026-08-17T08:07:52.230Z</time>
      </trkpt>
      <trkpt lat="51.788218" lon="8.567654">
        <ele>85.530557</ele>
        <time>2026-08-17T08:08:14.923Z</time>
      </trkpt>
      <trkpt lat="51.787923" lon="8.569775">
        <ele>85.189901</ele>
        <time>2026-08-17T08:08:43.540Z</time>
      </trkpt>
      <trkpt lat="51.787533" lon="8.570560">
        <ele>85.079984</ele>
        <time>2026-08-17T08:08:56.594Z</time>
      </trkpt>
      <trkpt lat="51.787270" lon="8.571152">
        <ele>85.077554</ele>
        <time>2026-08-17T08:09:06.185Z</time>
      </trkpt>
      <trkpt lat="51.788211" lon="8.574045">
        <ele>85.197508</ele>
        <time>2026-08-17T08:10:22.354Z</time>
      </trkpt>
      <trkpt lat="51.788259" lon="8.575819">
        <ele>85.404390</ele>
        <time>2026-08-17T08:11:03.770Z</time>
      </trkpt>
      <trkpt lat="51.788086" lon="8.576955">
        <ele>85.713756</ele>
        <time>2026-08-17T08:11:31.485Z</time>
      </trkpt>
      <trkpt lat="51.787963" lon="8.580166">
        <ele>86.582757</ele>
        <time>2026-08-17T08:12:49.702Z</time>
      </trkpt>
      <trkpt lat="51.787823" lon="8.581053">
        <ele>86.834392</ele>
        <time>2026-08-17T08:13:11.506Z</time>
      </trkpt>
      <trkpt lat="51.787834" lon="8.581137">
        <ele>86.857994</ele>
        <time>2026-08-17T08:13:13.553Z</time>
      </trkpt>
      <trkpt lat="51.787774" lon="8.581316">
        <ele>86.911301</ele>
        <time>2026-08-17T08:13:16.484Z</time>
      </trkpt>
      <trkpt lat="51.787350" lon="8.582263">
        <ele>87.165404</ele>
        <time>2026-08-17T08:13:33.082Z</time>
      </trkpt>
      <trkpt lat="51.787101" lon="8.583463">
        <ele>87.440525</ele>
        <time>2026-08-17T08:13:51.380Z</time>
      </trkpt>
      <trkpt lat="51.786754" lon="8.584316">
        <ele>87.825560</ele>
        <time>2026-08-17T08:14:06.970Z</time>
      </trkpt>
      <trkpt lat="51.786519" lon="8.584895">
        <ele>88.166201</ele>
        <time>2026-08-17T08:14:18.100Z</time>
      </trkpt>
      <trkpt lat="51.786257" lon="8.586535">
        <ele>88.983692</ele>
        <time>2026-08-17T08:14:45.484Z</time>
      </trkpt>
      <trkpt lat="51.787467" lon="8.586355">
        <ele>89.526832</ele>
        <time>2026-08-17T08:15:15.010Z</time>
      </trkpt>
      <trkpt lat="51.787665" lon="8.586476">
        <ele>89.621447</ele>
        <time>2026-08-17T08:15:19.765Z</time>
      </trkpt>
      <trkpt lat="51.788669" lon="8.589193">
        <ele>90.407712</ele>
        <time>2026-08-17T08:16:04.563Z</time>
      </trkpt>
      <trkpt lat="51.788727" lon="8.589283">
        <ele>90.439270</ele>
        <time>2026-08-17T08:16:06.645Z</time>
      </trkpt>
      <trkpt lat="51.788284" lon="8.589857">
        <ele>91.142791</ele>
        <time>2026-08-17T08:16:23.905Z</time>
      </trkpt>
      <trkpt lat="51.788158" lon="8.590232">
        <ele>91.510531</ele>
        <time>2026-08-17T08:16:32.344Z</time>
      </trkpt>
      <trkpt lat="51.788067" lon="8.591993">
        <ele>92.989191</ele>
        <time>2026-08-17T08:17:06.764Z</time>
      </trkpt>
      <trkpt lat="51.788090" lon="8.593585">
        <ele>93.242425</ele>
        <time>2026-08-17T08:17:33.061Z</time>
      </trkpt>
      <trkpt lat="51.788276" lon="8.598526">
        <ele>92.692260</ele>
        <time>2026-08-17T08:18:43.940Z</time>
      </trkpt>
      <trkpt lat="51.788261" lon="8.598641">
        <ele>92.698476</ele>
        <time>2026-08-17T08:18:45.797Z</time>
      </trkpt>
      <trkpt lat="51.788284" lon="8.598735">
        <ele>92.703823</ele>
        <time>2026-08-17T08:18:47.213Z</time>
      </trkpt>
      <trkpt lat="51.788261" lon="8.599943">
        <ele>92.767745</ele>
        <time>2026-08-17T08:19:04.747Z</time>
      </trkpt>
      <trkpt lat="51.788239" lon="8.601662">
        <ele>92.792595</ele>
        <time>2026-08-17T08:19:30.179Z</time>
      </trkpt>
      <trkpt lat="51.788301" lon="8.602007">
        <ele>92.788516</ele>
        <time>2026-08-17T08:19:35.171Z</time>
      </trkpt>
      <trkpt lat="51.788536" lon="8.602730">
        <ele>92.779242</ele>
        <time>2026-08-17T08:19:46.014Z</time>
      </trkpt>
      <trkpt lat="51.788672" lon="8.603032">
        <ele>92.775001</ele>
        <time>2026-08-17T08:19:50.809Z</time>
      </trkpt>
      <trkpt lat="51.788771" lon="8.603180">
        <ele>92.772525</ele>
        <time>2026-08-17T08:19:53.551Z</time>
      </trkpt>
      <trkpt lat="51.790119" lon="8.604521">
        <ele>92.741133</ele>
        <time>2026-08-17T08:20:26.267Z</time>
      </trkpt>
      <trkpt lat="51.790093" lon="8.604586">
        <ele>92.740180</ele>
        <time>2026-08-17T08:20:27.446Z</time>
      </trkpt>
      <trkpt lat="51.788581" lon="8.605864">
        <ele>94.797947</ele>
        <time>2026-08-17T08:21:16.369Z</time>
      </trkpt>
      <trkpt lat="51.788409" lon="8.606167">
        <ele>95.155058</ele>
        <time>2026-08-17T08:21:23.739Z</time>
      </trkpt>
      <trkpt lat="51.787676" lon="8.607706">
        <ele>96.262596</ele>
        <time>2026-08-17T08:21:55.385Z</time>
      </trkpt>
      <trkpt lat="51.787263" lon="8.608472">
        <ele>96.821820</ele>
        <time>2026-08-17T08:22:10.470Z</time>
      </trkpt>
      <trkpt lat="51.787148" lon="8.608676">
        <ele>96.973350</ele>
        <time>2026-08-17T08:22:14.600Z</time>
      </trkpt>
      <trkpt lat="51.786934" lon="8.609121">
        <ele>97.282546</ele>
        <time>2026-08-17T08:22:23.052Z</time>
      </trkpt>
      <trkpt lat="51.786675" lon="8.612725">
        <ele>99.238461</ele>
        <time>2026-08-17T08:23:22.331Z</time>
      </trkpt>
      <trkpt lat="51.786546" lon="8.613160">
        <ele>99.491952</ele>
        <time>2026-08-17T08:23:30.116Z</time>
      </trkpt>
      <trkpt lat="51.786390" lon="8.613554">
        <ele>99.737769</ele>
        <time>2026-08-17T08:23:37.495Z</time>
      </trkpt>
      <trkpt lat="51.786154" lon="8.614088">
        <ele>100.010196</ele>
        <time>2026-08-17T08:23:47.375Z</time>
      </trkpt>
      <trkpt lat="51.786096" lon="8.614283">
        <ele>100.040748</ele>
        <time>2026-08-17T08:23:50.536Z</time>
      </trkpt>
      <trkpt lat="51.786117" lon="8.614317">
        <ele>100.047532</ele>
        <time>2026-08-17T08:23:51.227Z</time>
      </trkpt>
      <trkpt lat="51.786065" lon="8.614475">
        <ele>100.072803</ele>
        <time>2026-08-17T08:23:55.423Z</time>
      </trkpt>
      <trkpt lat="51.785978" lon="8.614328">
        <ele>100.101530</ele>
        <time>2026-08-17T08:23:58.321Z</time>
      </trkpt>
      <trkpt lat="51.786065" lon="8.614475">
        <ele>100.130257</ele>
        <time>2026-08-17T08:24:01.198Z</time>
      </trkpt>
      <trkpt lat="51.786467" lon="8.615159">
        <ele>100.263481</ele>
        <time>2026-08-17T08:24:14.102Z</time>
      </trkpt>
      <trkpt lat="51.786663" lon="8.615494">
        <ele>100.328590</ele>
        <time>2026-08-17T08:24:20.559Z</time>
      </trkpt>
      <trkpt lat="51.786728" lon="8.615617">
        <ele>100.351432</ele>
        <time>2026-08-17T08:24:22.875Z</time>
      </trkpt>
      <trkpt lat="51.786812" lon="8.615759">
        <ele>100.379175</ele>
        <time>2026-08-17T08:24:25.706Z</time>
      </trkpt>
      <trkpt lat="51.786734" lon="8.615858">
        <ele>100.400622</ele>
        <time>2026-08-17T08:24:28.034Z</time>
      </trkpt>
      <trkpt lat="51.786584" lon="8.615858">
        <ele>100.429547</ele>
        <time>2026-08-17T08:24:31.626Z</time>
      </trkpt>
      <trkpt lat="51.786234" lon="8.615994">
        <ele>100.498960</ele>
        <time>2026-08-17T08:24:40.178Z</time>
      </trkpt>
      <trkpt lat="51.785504" lon="8.616269">
        <ele>100.643500</ele>
        <time>2026-08-17T08:24:57.359Z</time>
      </trkpt>
      <trkpt lat="51.785417" lon="8.616309">
        <ele>100.660942</ele>
        <time>2026-08-17T08:24:59.427Z</time>
      </trkpt>
      <trkpt lat="51.785367" lon="8.616264">
        <ele>100.671977</ele>
        <time>2026-08-17T08:25:00.748Z</time>
      </trkpt>
      <trkpt lat="51.785180" lon="8.616345">
        <ele>100.709309</ele>
        <time>2026-08-17T08:25:05.186Z</time>
      </trkpt>
      <trkpt lat="51.784751" lon="8.616543">
        <ele>100.799986</ele>
        <time>2026-08-17T08:25:15.290Z</time>
      </trkpt>
      <trkpt lat="51.784524" lon="8.616692">
        <ele>100.851268</ele>
        <time>2026-08-17T08:25:20.681Z</time>
      </trkpt>
      <trkpt lat="51.784146" lon="8.617080">
        <ele>100.944991</ele>
        <time>2026-08-17T08:25:30.608Z</time>
      </trkpt>
      <trkpt lat="51.783894" lon="8.617365">
        <ele>101.009366</ele>
        <time>2026-08-17T08:25:37.837Z</time>
      </trkpt>
      <trkpt lat="51.783120" lon="8.618265">
        <ele>101.066203</ele>
        <time>2026-08-17T08:26:00.867Z</time>
      </trkpt>
      <trkpt lat="51.782998" lon="8.618422">
        <ele>101.047913</ele>
        <time>2026-08-17T08:26:04.472Z</time>
      </trkpt>
      <trkpt lat="51.782734" lon="8.618846">
        <ele>101.004264</ele>
        <time>2026-08-17T08:26:12.762Z</time>
      </trkpt>
      <trkpt lat="51.782618" lon="8.619095">
        <ele>100.981647</ele>
        <time>2026-08-17T08:26:16.868Z</time>
      </trkpt>
      <trkpt lat="51.782415" lon="8.619668">
        <ele>100.933735</ele>
        <time>2026-08-17T08:26:25.306Z</time>
      </trkpt>
      <trkpt lat="51.782279" lon="8.620309">
        <ele>100.796353</ele>
        <time>2026-08-17T08:26:33.748Z</time>
      </trkpt>
      <trkpt lat="51.782197" lon="8.620257">
        <ele>100.744478</ele>
        <time>2026-08-17T08:26:35.499Z</time>
      </trkpt>
      <trkpt lat="51.782182" lon="8.620375">
        <ele>100.700589</ele>
        <time>2026-08-17T08:26:36.964Z</time>
      </trkpt>
      <trkpt lat="51.782195" lon="8.620517">
        <ele>100.648290</ele>
        <time>2026-08-17T08:26:38.717Z</time>
      </trkpt>
      <trkpt lat="51.782144" lon="8.620964">
        <ele>100.482686</ele>
        <time>2026-08-17T08:26:44.261Z</time>
      </trkpt>
      <trkpt lat="51.782142" lon="8.621337">
        <ele>100.346784</ele>
        <time>2026-08-17T08:26:48.874Z</time>
      </trkpt>
      <trkpt lat="51.782210" lon="8.621913">
        <ele>100.133140</ele>
        <time>2026-08-17T08:26:56.216Z</time>
      </trkpt>
      <trkpt lat="51.782409" lon="8.623093">
        <ele>99.772232</ele>
        <time>2026-08-17T08:27:11.948Z</time>
      </trkpt>
      <trkpt lat="51.782534" lon="8.623833">
        <ele>99.640956</ele>
        <time>2026-08-17T08:27:22.085Z</time>
      </trkpt>
      <trkpt lat="51.782812" lon="8.625176">
        <ele>99.398598</ele>
        <time>2026-08-17T08:27:40.616Z</time>
      </trkpt>
      <trkpt lat="51.783145" lon="8.626481">
        <ele>99.330454</ele>
        <time>2026-08-17T08:27:59.972Z</time>
      </trkpt>
      <trkpt lat="51.783349" lon="8.627244">
        <ele>99.316246</ele>
        <time>2026-08-17T08:28:11.243Z</time>
      </trkpt>
      <trkpt lat="51.783474" lon="8.627890">
        <ele>99.304677</ele>
        <time>2026-08-17T08:28:20.474Z</time>
      </trkpt>
      <trkpt lat="51.783537" lon="8.628391">
        <ele>99.309721</ele>
        <time>2026-08-17T08:28:27.578Z</time>
      </trkpt>
      <trkpt lat="51.783523" lon="8.628554">
        <ele>99.316446</ele>
        <time>2026-08-17T08:28:29.850Z</time>
      </trkpt>
      <trkpt lat="51.783582" lon="8.629181">
        <ele>99.342362</ele>
        <time>2026-08-17T08:28:38.748Z</time>
      </trkpt>
      <trkpt lat="51.783656" lon="8.629513">
        <ele>99.356782</ele>
        <time>2026-08-17T08:28:43.621Z</time>
      </trkpt>
      <trkpt lat="51.783921" lon="8.630344">
        <ele>99.394986</ele>
        <time>2026-08-17T08:28:56.503Z</time>
      </trkpt>
      <trkpt lat="51.784182" lon="8.631067">
        <ele>99.438461</ele>
        <time>2026-08-17T08:29:08.439Z</time>
      </trkpt>
      <trkpt lat="51.784377" lon="8.631607">
        <ele>99.486825</ele>
        <time>2026-08-17T08:29:17.525Z</time>
      </trkpt>
      <trkpt lat="51.785208" lon="8.633907">
        <ele>99.615406</ele>
        <time>2026-08-17T08:29:54.563Z</time>
      </trkpt>
      <trkpt lat="51.785584" lon="8.634975">
        <ele>99.560674</ele>
        <time>2026-08-17T08:30:10.681Z</time>
      </trkpt>
      <trkpt lat="51.785773" lon="8.635455">
        <ele>99.535332</ele>
        <time>2026-08-17T08:30:18.449Z</time>
      </trkpt>
      <trkpt lat="51.786087" lon="8.636118">
        <ele>99.565168</ele>
        <time>2026-08-17T08:30:30.235Z</time>
      </trkpt>
      <trkpt lat="51.786296" lon="8.636452">
        <ele>99.632312</ele>
        <time>2026-08-17T08:30:37.209Z</time>
      </trkpt>
      <trkpt lat="51.786534" lon="8.636762">
        <ele>99.702141</ele>
        <time>2026-08-17T08:30:44.586Z</time>
      </trkpt>
      <trkpt lat="51.787834" lon="8.637916">
        <ele>99.984123</ele>
        <time>2026-08-17T08:31:18.501Z</time>
      </trkpt>
      <trkpt lat="51.788111" lon="8.638224">
        <ele>100.023235</ele>
        <time>2026-08-17T08:31:25.819Z</time>
      </trkpt>
      <trkpt lat="51.788131" lon="8.638417">
        <ele>100.037317</ele>
        <time>2026-08-17T08:31:28.476Z</time>
      </trkpt>
      <trkpt lat="51.788173" lon="8.638468">
        <ele>100.043428</ele>
        <time>2026-08-17T08:31:29.647Z</time>
      </trkpt>
      <trkpt lat="51.788249" lon="8.638530">
        <ele>100.053331</ele>
        <time>2026-08-17T08:31:31.517Z</time>
      </trkpt>
      <trkpt lat="51.788114" lon="8.639191">
        <ele>100.103424</ele>
        <time>2026-08-17T08:31:41.373Z</time>
      </trkpt>
      <trkpt lat="51.788038" lon="8.640290">
        <ele>100.293806</ele>
        <time>2026-08-17T08:31:57.618Z</time>
      </trkpt>
      <trkpt lat="51.788077" lon="8.640884">
        <ele>100.434751</ele>
        <time>2026-08-17T08:32:06.450Z</time>
      </trkpt>
      <trkpt lat="51.788131" lon="8.641274">
        <ele>100.529051</ele>
        <time>2026-08-17T08:32:12.552Z</time>
      </trkpt>
      <trkpt lat="51.788130" lon="8.641690">
        <ele>100.627209</ele>
        <time>2026-08-17T08:32:18.850Z</time>
      </trkpt>
      <trkpt lat="51.788179" lon="8.642442">
        <ele>100.805628</ele>
        <time>2026-08-17T08:32:29.974Z</time>
      </trkpt>
      <trkpt lat="51.788213" lon="8.642637">
        <ele>100.839467</ele>
        <time>2026-08-17T08:32:32.860Z</time>
      </trkpt>
      <trkpt lat="51.788269" lon="8.643356">
        <ele>100.937998</ele>
        <time>2026-08-17T08:32:42.877Z</time>
      </trkpt>
      <trkpt lat="51.788299" lon="8.644023">
        <ele>101.028926</ele>
        <time>2026-08-17T08:32:52.508Z</time>
      </trkpt>
      <trkpt lat="51.788285" lon="8.644647">
        <ele>101.113824</ele>
        <time>2026-08-17T08:33:01.536Z</time>
      </trkpt>
      <trkpt lat="51.788193" lon="8.645359">
        <ele>101.212721</ele>
        <time>2026-08-17T08:33:11.863Z</time>
      </trkpt>
      <trkpt lat="51.788152" lon="8.645533">
        <ele>101.215209</ele>
        <time>2026-08-17T08:33:14.509Z</time>
      </trkpt>
      <trkpt lat="51.788087" lon="8.646232">
        <ele>101.212525</ele>
        <time>2026-08-17T08:33:24.607Z</time>
      </trkpt>
      <trkpt lat="51.788033" lon="8.646230">
        <ele>101.212193</ele>
        <time>2026-08-17T08:33:25.860Z</time>
      </trkpt>
      <trkpt lat="51.787663" lon="8.646208">
        <ele>101.209920</ele>
        <time>2026-08-17T08:33:34.269Z</time>
      </trkpt>
      <trkpt lat="51.787539" lon="8.646291">
        <ele>101.209097</ele>
        <time>2026-08-17T08:33:37.227Z</time>
      </trkpt>
      <trkpt lat="51.787367" lon="8.646493">
        <ele>101.207792</ele>
        <time>2026-08-17T08:33:41.793Z</time>
      </trkpt>
      <trkpt lat="51.786755" lon="8.647224">
        <ele>101.233717</ele>
        <time>2026-08-17T08:33:57.824Z</time>
      </trkpt>
      <trkpt lat="51.786207" lon="8.647881">
        <ele>101.306376</ele>
        <time>2026-08-17T08:34:12.849Z</time>
      </trkpt>
      <trkpt lat="51.786156" lon="8.648051">
        <ele>101.318823</ele>
        <time>2026-08-17T08:34:15.532Z</time>
      </trkpt>
      <trkpt lat="51.786152" lon="8.648365">
        <ele>101.339514</ele>
        <time>2026-08-17T08:34:20.050Z</time>
      </trkpt>
      <trkpt lat="51.786564" lon="8.651087">
        <ele>101.738171</ele>
        <time>2026-08-17T08:35:02.146Z</time>
      </trkpt>
      <trkpt lat="51.786564" lon="8.651594">
        <ele>101.827518</ele>
        <time>2026-08-17T08:35:09.180Z</time>
      </trkpt>
      <trkpt lat="51.786549" lon="8.651726">
        <ele>101.851169</ele>
        <time>2026-08-17T08:35:10.994Z</time>
      </trkpt>
      <trkpt lat="51.786521" lon="8.651852">
        <ele>101.874763</ele>
        <time>2026-08-17T08:35:12.811Z</time>
      </trkpt>
      <trkpt lat="51.785986" lon="8.652722">
        <ele>101.726523</ele>
        <time>2026-08-17T08:35:28.794Z</time>
      </trkpt>
      <trkpt lat="51.784845" lon="8.654476">
        <ele>101.442067</ele>
        <time>2026-08-17T08:36:01.943Z</time>
      </trkpt>
      <trkpt lat="51.784780" lon="8.654576">
        <ele>101.451953</ele>
        <time>2026-08-17T08:36:03.934Z</time>
      </trkpt>
      <trkpt lat="51.787214" lon="8.659574">
        <ele>102.448708</ele>
        <time>2026-08-17T08:37:36.210Z</time>
      </trkpt>
      <trkpt lat="51.788091" lon="8.661343">
        <ele>102.909372</ele>
        <time>2026-08-17T08:38:09.500Z</time>
      </trkpt>
      <trkpt lat="51.789730" lon="8.664717">
        <ele>103.484774</ele>
        <time>2026-08-17T08:39:10.655Z</time>
      </trkpt>
      <trkpt lat="51.789996" lon="8.665279">
        <ele>103.562126</ele>
        <time>2026-08-17T08:39:20.376Z</time>
      </trkpt>
      <trkpt lat="51.792338" lon="8.670078">
        <ele>104.822607</ele>
        <time>2026-08-17T08:40:49.459Z</time>
      </trkpt>
      <trkpt lat="51.793126" lon="8.671714">
        <ele>105.563789</ele>
        <time>2026-08-17T08:41:22.049Z</time>
      </trkpt>
      <trkpt lat="51.790353" lon="8.675401">
        <ele>106.193406</ele>
        <time>2026-08-17T08:43:36.806Z</time>
      </trkpt>
      <trkpt lat="51.790082" lon="8.675767">
        <ele>106.231084</ele>
        <time>2026-08-17T08:43:50.234Z</time>
      </trkpt>
      <trkpt lat="51.790059" lon="8.675733">
        <ele>106.234409</ele>
        <time>2026-08-17T08:43:51.384Z</time>
      </trkpt>
      <trkpt lat="51.789946" lon="8.675756">
        <ele>106.213273</ele>
        <time>2026-08-17T08:43:55.630Z</time>
      </trkpt>
      <trkpt lat="51.789795" lon="8.675905">
        <ele>106.172884</ele>
        <time>2026-08-17T08:44:02.178Z</time>
      </trkpt>
      <trkpt lat="51.789349" lon="8.676493">
        <ele>106.041492</ele>
        <time>2026-08-17T08:44:23.269Z</time>
      </trkpt>
      <trkpt lat="51.789261" lon="8.676496">
        <ele>106.021396</ele>
        <time>2026-08-17T08:44:26.449Z</time>
      </trkpt>
      <trkpt lat="51.789159" lon="8.676009">
        <ele>105.948786</ele>
        <time>2026-08-17T08:44:37.773Z</time>
      </trkpt>
      <trkpt lat="51.789131" lon="8.676023">
        <ele>105.942094</ele>
        <time>2026-08-17T08:44:38.803Z</time>
      </trkpt>
      <trkpt lat="51.789066" lon="8.676063">
        <ele>105.926215</ele>
        <time>2026-08-17T08:44:40.308Z</time>
      </trkpt>
      <trkpt lat="51.786989" lon="8.677130">
        <ele>105.145775</ele>
        <time>2026-08-17T08:45:57.797Z</time>
      </trkpt>
      <trkpt lat="51.784911" lon="8.678198">
        <ele>104.663327</ele>
        <time>2026-08-17T08:47:16.497Z</time>
      </trkpt>
      <trkpt lat="51.784875" lon="8.678218">
        <ele>104.659582</ele>
        <time>2026-08-17T08:47:17.883Z</time>
      </trkpt>
      <trkpt lat="51.784824" lon="8.678243">
        <ele>104.654339</ele>
        <time>2026-08-17T08:47:19.856Z</time>
      </trkpt>
      <trkpt lat="51.785524" lon="8.679750">
        <ele>104.539650</ele>
        <time>2026-08-17T08:47:45.914Z</time>
      </trkpt>
      <trkpt lat="51.782085" lon="8.682456">
        <ele>103.792270</ele>
        <time>2026-08-17T08:49:07.635Z</time>
      </trkpt>
      <trkpt lat="51.781220" lon="8.683746">
        <ele>103.958437</ele>
        <time>2026-08-17T08:49:34.754Z</time>
      </trkpt>
      <trkpt lat="51.780394" lon="8.685151">
        <ele>104.045754</ele>
        <time>2026-08-17T08:50:02.376Z</time>
      </trkpt>
      <trkpt lat="51.779306" lon="8.687003">
        <ele>104.042056</ele>
        <time>2026-08-17T08:50:37.071Z</time>
      </trkpt>
      <trkpt lat="51.779225" lon="8.687111">
        <ele>104.040711</ele>
        <time>2026-08-17T08:50:39.321Z</time>
      </trkpt>
      <trkpt lat="51.779135" lon="8.687162">
        <ele>104.039490</ele>
        <time>2026-08-17T08:50:41.344Z</time>
      </trkpt>
      <trkpt lat="51.778813" lon="8.687112">
        <ele>104.035346</ele>
        <time>2026-08-17T08:50:48.219Z</time>
      </trkpt>
      <trkpt lat="51.778623" lon="8.687172">
        <ele>104.032867</ele>
        <time>2026-08-17T08:50:52.330Z</time>
      </trkpt>
      <trkpt lat="51.777757" lon="8.688183">
        <ele>104.235912</ele>
        <time>2026-08-17T08:51:16.599Z</time>
      </trkpt>
      <trkpt lat="51.775867" lon="8.690447">
        <ele>105.170875</ele>
        <time>2026-08-17T08:52:16.040Z</time>
      </trkpt>
      <trkpt lat="51.775586" lon="8.690711">
        <ele>105.193961</ele>
        <time>2026-08-17T08:52:22.858Z</time>
      </trkpt>
      <trkpt lat="51.775522" lon="8.690766">
        <ele>105.199109</ele>
        <time>2026-08-17T08:52:24.324Z</time>
      </trkpt>
      <trkpt lat="51.775611" lon="8.691222">
        <ele>105.220123</ele>
        <time>2026-08-17T08:52:30.261Z</time>
      </trkpt>
      <trkpt lat="51.775720" lon="8.692140">
        <ele>105.190415</ele>
        <time>2026-08-17T08:52:41.696Z</time>
      </trkpt>
      <trkpt lat="51.775739" lon="8.692874">
        <ele>105.137908</ele>
        <time>2026-08-17T08:52:50.901Z</time>
      </trkpt>
      <trkpt lat="51.775739" lon="8.695061">
        <ele>105.325253</ele>
        <time>2026-08-17T08:53:22.848Z</time>
      </trkpt>
      <trkpt lat="51.775739" lon="8.695081">
        <ele>105.334768</ele>
        <time>2026-08-17T08:53:23.168Z</time>
      </trkpt>
      <trkpt lat="51.775740" lon="8.695269">
        <ele>105.424213</ele>
        <time>2026-08-17T08:53:26.150Z</time>
      </trkpt>
      <trkpt lat="51.775744" lon="8.699036">
        <ele>107.209018</ele>
        <time>2026-08-17T08:54:26.562Z</time>
      </trkpt>
      <trkpt lat="51.775743" lon="8.700521">
        <ele>107.854965</ele>
        <time>2026-08-17T08:54:49.034Z</time>
      </trkpt>
      <trkpt lat="51.775719" lon="8.700954">
        <ele>107.974105</ele>
        <time>2026-08-17T08:54:55.457Z</time>
      </trkpt>
      <trkpt lat="51.775692" lon="8.701401">
        <ele>108.097188</ele>
        <time>2026-08-17T08:55:02.129Z</time>
      </trkpt>
      <trkpt lat="51.775675" lon="8.701757">
        <ele>108.195041</ele>
        <time>2026-08-17T08:55:07.442Z</time>
      </trkpt>
      <trkpt lat="51.775677" lon="8.703936">
        <ele>108.745204</ele>
        <time>2026-08-17T08:55:39.890Z</time>
      </trkpt>
      <trkpt lat="51.774711" lon="8.704317">
        <ele>109.089665</ele>
        <time>2026-08-17T08:56:03.202Z</time>
      </trkpt>
      <trkpt lat="51.774145" lon="8.704540">
        <ele>109.226584</ele>
        <time>2026-08-17T08:56:16.699Z</time>
      </trkpt>
      <trkpt lat="51.773790" lon="8.704679">
        <ele>109.263770</ele>
        <time>2026-08-17T08:56:25.172Z</time>
      </trkpt>
      <trkpt lat="51.773874" lon="8.705293">
        <ele>109.303382</ele>
        <time>2026-08-17T08:56:39.895Z</time>
      </trkpt>
      <trkpt lat="51.773874" lon="8.705531">
        <ele>109.318374</ele>
        <time>2026-08-17T08:56:45.467Z</time>
      </trkpt>
      <trkpt lat="51.773842" lon="8.705634">
        <ele>109.325635</ele>
        <time>2026-08-17T08:56:48.174Z</time>
      </trkpt>
      <trkpt lat="51.773515" lon="8.706245">
        <ele>109.376523</ele>
        <time>2026-08-17T08:57:06.732Z</time>
      </trkpt>
      <trkpt lat="51.773205" lon="8.707345">
        <ele>109.099966</ele>
        <time>2026-08-17T08:57:33.259Z</time>
      </trkpt>
      <trkpt lat="51.772903" lon="8.708120">
        <ele>108.866880</ele>
        <time>2026-08-17T08:57:53.093Z</time>
      </trkpt>
      <trkpt lat="51.772737" lon="8.708558">
        <ele>108.736163</ele>
        <time>2026-08-17T08:58:04.332Z</time>
      </trkpt>
      <trkpt lat="51.772991" lon="8.709196">
        <ele>108.590459</ele>
        <time>2026-08-17T08:58:21.023Z</time>
      </trkpt>
      <trkpt lat="51.772958" lon="8.709227">
        <ele>108.582209</ele>
        <time>2026-08-17T08:58:22.093Z</time>
      </trkpt>
      <trkpt lat="51.773053" lon="8.709464">
        <ele>108.544443</ele>
        <time>2026-08-17T08:58:25.831Z</time>
      </trkpt>
      <trkpt lat="51.773313" lon="8.710130">
        <ele>108.439125</ele>
        <time>2026-08-17T08:58:36.641Z</time>
      </trkpt>
      <trkpt lat="51.773285" lon="8.710156">
        <ele>108.432145</ele>
        <time>2026-08-17T08:58:37.356Z</time>
      </trkpt>
      <trkpt lat="51.773009" lon="8.710306">
        <ele>108.369208</ele>
        <time>2026-08-17T08:58:43.802Z</time>
      </trkpt>
      <trkpt lat="51.772922" lon="8.710353">
        <ele>108.349381</ele>
        <time>2026-08-17T08:58:45.823Z</time>
      </trkpt>
      <trkpt lat="51.772706" lon="8.710475">
        <ele>108.299925</ele>
        <time>2026-08-17T08:58:50.839Z</time>
      </trkpt>
      <trkpt lat="51.772470" lon="8.710636">
        <ele>108.230239</ele>
        <time>2026-08-17T08:58:56.290Z</time>
      </trkpt>
      <trkpt lat="51.772345" lon="8.710734">
        <ele>108.155460</ele>
        <time>2026-08-17T08:58:59.181Z</time>
      </trkpt>
      <trkpt lat="51.772238" lon="8.710815">
        <ele>108.091862</ele>
        <time>2026-08-17T08:59:01.597Z</time>
      </trkpt>
      <trkpt lat="51.772057" lon="8.710943">
        <ele>107.985520</ele>
        <time>2026-08-17T08:59:05.616Z</time>
      </trkpt>
      <trkpt lat="51.771754" lon="8.711159">
        <ele>107.807270</ele>
        <time>2026-08-17T08:59:12.367Z</time>
      </trkpt>
      <trkpt lat="51.771110" lon="8.711607">
        <ele>107.429888</ele>
        <time>2026-08-17T08:59:26.362Z</time>
      </trkpt>
      <trkpt lat="51.771094" lon="8.711542">
        <ele>107.406589</ele>
        <time>2026-08-17T08:59:27.525Z</time>
      </trkpt>
      <trkpt lat="51.770947" lon="8.711312">
        <ele>107.296458</ele>
        <time>2026-08-17T08:59:33.033Z</time>
      </trkpt>
      <trkpt lat="51.771094" lon="8.711542">
        <ele>107.196279</ele>
        <time>2026-08-17T08:59:38.577Z</time>
      </trkpt>
      <trkpt lat="51.771110" lon="8.711607">
        <ele>107.175305</ele>
        <time>2026-08-17T08:59:39.762Z</time>
      </trkpt>
      <trkpt lat="51.771042" lon="8.711643">
        <ele>107.140633</ele>
        <time>2026-08-17T08:59:41.226Z</time>
      </trkpt>
      <trkpt lat="51.770411" lon="8.711935">
        <ele>106.822603</ele>
        <time>2026-08-17T08:59:54.808Z</time>
      </trkpt>
      <trkpt lat="51.769910" lon="8.712164">
        <ele>106.570326</ele>
        <time>2026-08-17T09:00:05.560Z</time>
      </trkpt>
      <trkpt lat="51.769494" lon="8.712351">
        <ele>106.399275</ele>
        <time>2026-08-17T09:00:14.511Z</time>
      </trkpt>
      <trkpt lat="51.768863" lon="8.712638">
        <ele>106.308494</ele>
        <time>2026-08-17T09:00:28.418Z</time>
      </trkpt>
      <trkpt lat="51.768532" lon="8.712793">
        <ele>106.260769</ele>
        <time>2026-08-17T09:00:35.867Z</time>
      </trkpt>
      <trkpt lat="51.768181" lon="8.712945">
        <ele>106.210445</ele>
        <time>2026-08-17T09:00:43.803Z</time>
      </trkpt>
      <trkpt lat="51.767781" lon="8.713114">
        <ele>106.167862</ele>
        <time>2026-08-17T09:00:53.050Z</time>
      </trkpt>
      <trkpt lat="51.767585" lon="8.713198">
        <ele>106.173355</ele>
        <time>2026-08-17T09:00:57.677Z</time>
      </trkpt>
      <trkpt lat="51.767373" lon="8.713254">
        <ele>106.179174</ele>
        <time>2026-08-17T09:01:02.913Z</time>
      </trkpt>
      <trkpt lat="51.767156" lon="8.713333">
        <ele>106.185199</ele>
        <time>2026-08-17T09:01:08.448Z</time>
      </trkpt>
      <trkpt lat="51.766577" lon="8.713597">
        <ele>106.201495</ele>
        <time>2026-08-17T09:01:22.576Z</time>
      </trkpt>
      <trkpt lat="51.766249" lon="8.713756">
        <ele>106.210771</ele>
        <time>2026-08-17T09:01:29.738Z</time>
      </trkpt>
      <trkpt lat="51.765903" lon="8.713972">
        <ele>106.071422</ele>
        <time>2026-08-17T09:01:37.098Z</time>
      </trkpt>
      <trkpt lat="51.765806" lon="8.714086">
        <ele>106.001528</ele>
        <time>2026-08-17T09:01:39.434Z</time>
      </trkpt>
      <trkpt lat="51.765663" lon="8.714386">
        <ele>105.864966</ele>
        <time>2026-08-17T09:01:43.998Z</time>
      </trkpt>
      <trkpt lat="51.765586" lon="8.714628">
        <ele>105.766833</ele>
        <time>2026-08-17T09:01:47.373Z</time>
      </trkpt>
      <trkpt lat="51.765525" lon="8.715188">
        <ele>105.561771</ele>
        <time>2026-08-17T09:01:54.206Z</time>
      </trkpt>
      <trkpt lat="51.765530" lon="8.715391">
        <ele>105.488504</ele>
        <time>2026-08-17T09:01:56.679Z</time>
      </trkpt>
      <trkpt lat="51.765594" lon="8.715836">
        <ele>105.323743</ele>
        <time>2026-08-17T09:02:02.445Z</time>
      </trkpt>
      <trkpt lat="51.765670" lon="8.716258">
        <ele>105.166840</ele>
        <time>2026-08-17T09:02:08.174Z</time>
      </trkpt>
      <trkpt lat="51.765728" lon="8.716549">
        <ele>105.270423</ele>
        <time>2026-08-17T09:02:12.299Z</time>
      </trkpt>
      <trkpt lat="51.765758" lon="8.716699">
        <ele>105.323834</ele>
        <time>2026-08-17T09:02:14.521Z</time>
      </trkpt>
      <trkpt lat="51.765852" lon="8.717220">
        <ele>105.507706</ele>
        <time>2026-08-17T09:02:22.508Z</time>
      </trkpt>
      <trkpt lat="51.765887" lon="8.717434">
        <ele>105.582702</ele>
        <time>2026-08-17T09:02:25.976Z</time>
      </trkpt>
      <trkpt lat="51.765908" lon="8.717583">
        <ele>105.634478</ele>
        <time>2026-08-17T09:02:28.417Z</time>
      </trkpt>
      <trkpt lat="51.765934" lon="8.717766">
        <ele>105.698094</ele>
        <time>2026-08-17T09:02:31.506Z</time>
      </trkpt>
      <trkpt lat="51.765967" lon="8.717994">
        <ele>105.777429</ele>
        <time>2026-08-17T09:02:35.355Z</time>
      </trkpt>
      <trkpt lat="51.765997" lon="8.718208">
        <ele>105.851772</ele>
        <time>2026-08-17T09:02:38.942Z</time>
      </trkpt>
      <trkpt lat="51.765929" lon="8.718239">
        <ele>105.890454</ele>
        <time>2026-08-17T09:02:41.292Z</time>
      </trkpt>
      <trkpt lat="51.765806" lon="8.718276">
        <ele>105.958950</ele>
        <time>2026-08-17T09:02:45.417Z</time>
      </trkpt>
      <trkpt lat="51.765604" lon="8.718341">
        <ele>106.071710</ele>
        <time>2026-08-17T09:02:52.113Z</time>
      </trkpt>
      <trkpt lat="51.765302" lon="8.718439">
        <ele>106.240551</ele>
        <time>2026-08-17T09:03:01.839Z</time>
      </trkpt>
      <trkpt lat="51.765313" lon="8.718516">
        <ele>106.267387</ele>
        <time>2026-08-17T09:03:03.371Z</time>
      </trkpt>
      <trkpt lat="51.765245" lon="8.718639">
        <ele>106.323395</ele>
        <time>2026-08-17T09:03:07.371Z</time>
      </trkpt>
      <trkpt lat="51.765113" lon="8.718848">
        <ele>106.424802</ele>
        <time>2026-08-17T09:03:14.757Z</time>
      </trkpt>
      <trkpt lat="51.765071" lon="8.718996">
        <ele>106.480093</ele>
        <time>2026-08-17T09:03:18.764Z</time>
      </trkpt>
      <trkpt lat="51.765141" lon="8.719330">
        <ele>106.599844</ele>
        <time>2026-08-17T09:03:27.448Z</time>
      </trkpt>
      <trkpt lat="51.765149" lon="8.719641">
        <ele>106.705548</ele>
        <time>2026-08-17T09:03:35.103Z</time>
      </trkpt>
      <trkpt lat="51.765126" lon="8.719706">
        <ele>106.730974</ele>
        <time>2026-08-17T09:03:36.939Z</time>
      </trkpt>
      <trkpt lat="51.764545" lon="8.719837">
        <ele>107.052865</ele>
        <time>2026-08-17T09:03:50.980Z</time>
      </trkpt>
      <trkpt lat="51.764420" lon="8.719897">
        <ele>107.124417</ele>
        <time>2026-08-17T09:03:53.994Z</time>
      </trkpt>
      <trkpt lat="51.764405" lon="8.719917">
        <ele>107.135088</ele>
        <time>2026-08-17T09:03:54.445Z</time>
      </trkpt>
      <trkpt lat="51.764370" lon="8.719964">
        <ele>107.157530</ele>
        <time>2026-08-17T09:03:55.492Z</time>
      </trkpt>
      <trkpt lat="51.764596" lon="8.720277">
        <ele>107.302376</ele>
        <time>2026-08-17T09:04:02.428Z</time>
      </trkpt>
      <trkpt lat="51.764337" lon="8.720816">
        <ele>107.507886</ele>
        <time>2026-08-17T09:04:12.533Z</time>
      </trkpt>
      <trkpt lat="51.764541" lon="8.721215">
        <ele>107.663752</ele>
        <time>2026-08-17T09:04:20.374Z</time>
      </trkpt>
      <trkpt lat="51.764656" lon="8.721426">
        <ele>107.748425</ele>
        <time>2026-08-17T09:04:24.704Z</time>
      </trkpt>
      <trkpt lat="51.764811" lon="8.721732">
        <ele>107.867512</ele>
        <time>2026-08-17T09:04:30.859Z</time>
      </trkpt>
      <trkpt lat="51.764901" lon="8.721904">
        <ele>107.935345</ele>
        <time>2026-08-17T09:04:34.348Z</time>
      </trkpt>
      <trkpt lat="51.765046" lon="8.722219">
        <ele>108.026206</ele>
        <time>2026-08-17T09:04:40.317Z</time>
      </trkpt>
      <trkpt lat="51.765071" lon="8.722281">
        <ele>108.033477</ele>
        <time>2026-08-17T09:04:41.417Z</time>
      </trkpt>
      <trkpt lat="51.765149" lon="8.722566">
        <ele>108.064094</ele>
        <time>2026-08-17T09:04:46.017Z</time>
      </trkpt>
      <trkpt lat="51.765190" lon="8.722886">
        <ele>108.096200</ele>
        <time>2026-08-17T09:04:50.770Z</time>
      </trkpt>
      <trkpt lat="51.765148" lon="8.722957">
        <ele>108.105850</ele>
        <time>2026-08-17T09:04:52.171Z</time>
      </trkpt>
      <trkpt lat="51.764911" lon="8.723357">
        <ele>108.160257</ele>
        <time>2026-08-17T09:05:00.055Z</time>
      </trkpt>
      <trkpt lat="51.765516" lon="8.724339">
        <ele>108.296395</ele>
        <time>2026-08-17T09:05:18.912Z</time>
      </trkpt>
      <trkpt lat="51.765603" lon="8.724482">
        <ele>108.302833</ele>
        <time>2026-08-17T09:05:21.633Z</time>
      </trkpt>
      <trkpt lat="51.765716" lon="8.724666">
        <ele>108.309111</ele>
        <time>2026-08-17T09:05:25.116Z</time>
      </trkpt>
      <trkpt lat="51.765920" lon="8.724998">
        <ele>108.320440</ele>
        <time>2026-08-17T09:05:31.369Z</time>
      </trkpt>
      <trkpt lat="51.766105" lon="8.725308">
        <ele>108.330869</ele>
        <time>2026-08-17T09:05:37.135Z</time>
      </trkpt>
      <trkpt lat="51.766200" lon="8.725465">
        <ele>108.336186</ele>
        <time>2026-08-17T09:05:40.129Z</time>
      </trkpt>
      <trkpt lat="51.766287" lon="8.725609">
        <ele>108.341060</ele>
        <time>2026-08-17T09:05:42.933Z</time>
      </trkpt>
      <trkpt lat="51.766433" lon="8.725848">
        <ele>108.349192</ele>
        <time>2026-08-17T09:05:47.667Z</time>
      </trkpt>
      <trkpt lat="51.766034" lon="8.726479">
        <ele>108.402322</ele>
        <time>2026-08-17T09:06:00.690Z</time>
      </trkpt>
      <trkpt lat="51.765683" lon="8.727034">
        <ele>108.699513</ele>
        <time>2026-08-17T09:06:12.056Z</time>
      </trkpt>
      <trkpt lat="51.765599" lon="8.727172">
        <ele>108.772006</ele>
        <time>2026-08-17T09:06:14.890Z</time>
      </trkpt>
      <trkpt lat="51.765503" lon="8.727329">
        <ele>108.854664</ele>
        <time>2026-08-17T09:06:18.225Z</time>
      </trkpt>
      <trkpt lat="51.765498" lon="8.727337">
        <ele>108.858922</ele>
        <time>2026-08-17T09:06:18.380Z</time>
      </trkpt>
      <trkpt lat="51.765299" lon="8.727678">
        <ele>109.034458</ele>
        <time>2026-08-17T09:06:25.730Z</time>
      </trkpt>
      <trkpt lat="51.764938" lon="8.728277">
        <ele>109.347593</ele>
        <time>2026-08-17T09:06:39.250Z</time>
      </trkpt>
      <trkpt lat="51.764532" lon="8.728826">
        <ele>109.582803</ele>
        <time>2026-08-17T09:06:52.749Z</time>
      </trkpt>
      <trkpt lat="51.764702" lon="8.729154">
        <ele>109.678248</ele>
        <time>2026-08-17T09:06:59.537Z</time>
      </trkpt>
      <trkpt lat="51.764761" lon="8.729274">
        <ele>109.712438</ele>
        <time>2026-08-17T09:07:01.934Z</time>
      </trkpt>
      <trkpt lat="51.765084" lon="8.729910">
        <ele>109.895980</ele>
        <time>2026-08-17T09:07:14.484Z</time>
      </trkpt>
      <trkpt lat="51.765104" lon="8.729950">
        <ele>109.907452</ele>
        <time>2026-08-17T09:07:15.210Z</time>
      </trkpt>
      <trkpt lat="51.765570" lon="8.730866">
        <ele>110.067741</ele>
        <time>2026-08-17T09:07:30.533Z</time>
      </trkpt>
      <trkpt lat="51.765629" lon="8.730999">
        <ele>110.046844</ele>
        <time>2026-08-17T09:07:32.526Z</time>
      </trkpt>
      <trkpt lat="51.766234" lon="8.732372">
        <ele>109.831606</ele>
        <time>2026-08-17T09:07:53.723Z</time>
      </trkpt>
      <trkpt lat="51.766473" lon="8.732916">
        <ele>109.746412</ele>
        <time>2026-08-17T09:08:02.773Z</time>
      </trkpt>
      <trkpt lat="51.766392" lon="8.732947">
        <ele>109.776661</ele>
        <time>2026-08-17T09:08:04.961Z</time>
      </trkpt>
      <trkpt lat="51.766286" lon="8.733052">
        <ele>109.980099</ele>
        <time>2026-08-17T09:08:08.386Z</time>
      </trkpt>
      <trkpt lat="51.766057" lon="8.733366">
        <ele>110.471526</ele>
        <time>2026-08-17T09:08:21.193Z</time>
      </trkpt>
      <trkpt lat="51.765984" lon="8.733585">
        <ele>110.723414</ele>
        <time>2026-08-17T09:08:28.254Z</time>
      </trkpt>
      <trkpt lat="51.765812" lon="8.733811">
        <ele>111.086152</ele>
        <time>2026-08-17T09:08:38.790Z</time>
      </trkpt>
      <trkpt lat="51.765741" lon="8.733900">
        <ele>111.233185</ele>
        <time>2026-08-17T09:08:43.000Z</time>
      </trkpt>
      <trkpt lat="51.765449" lon="8.734101">
        <ele>111.752516</ele>
        <time>2026-08-17T09:08:57.760Z</time>
      </trkpt>
      <trkpt lat="51.765284" lon="8.734301">
        <ele>112.090017</ele>
        <time>2026-08-17T09:09:07.039Z</time>
      </trkpt>
      <trkpt lat="51.765258" lon="8.734348">
        <ele>112.153853</ele>
        <time>2026-08-17T09:09:08.805Z</time>
      </trkpt>
      <trkpt lat="51.765103" lon="8.734626">
        <ele>112.532763</ele>
        <time>2026-08-17T09:09:19.063Z</time>
      </trkpt>
      <trkpt lat="51.764894" lon="8.734776">
        <ele>112.747025</ele>
        <time>2026-08-17T09:09:28.953Z</time>
      </trkpt>
      <trkpt lat="51.764763" lon="8.734951">
        <ele>112.831243</ele>
        <time>2026-08-17T09:09:36.140Z</time>
      </trkpt>
      <trkpt lat="51.764662" lon="8.735024">
        <ele>112.886064</ele>
        <time>2026-08-17T09:09:40.715Z</time>
      </trkpt>
      <trkpt lat="51.764579" lon="8.735041">
        <ele>112.927518</ele>
        <time>2026-08-17T09:09:44.206Z</time>
      </trkpt>
      <trkpt lat="51.764402" lon="8.734971">
        <ele>113.017806</ele>
        <time>2026-08-17T09:09:51.551Z</time>
      </trkpt>
      <trkpt lat="51.764375" lon="8.735007">
        <ele>113.035151</ele>
        <time>2026-08-17T09:09:52.924Z</time>
      </trkpt>
      <trkpt lat="51.763776" lon="8.735623">
        <ele>113.386956</ele>
        <time>2026-08-17T09:10:10.385Z</time>
      </trkpt>
      <trkpt lat="51.763608" lon="8.735810">
        <ele>113.488036</ele>
        <time>2026-08-17T09:10:15.079Z</time>
      </trkpt>
      <trkpt lat="51.763308" lon="8.736124">
        <ele>113.612873</ele>
        <time>2026-08-17T09:10:23.755Z</time>
      </trkpt>
      <trkpt lat="51.763277" lon="8.736157">
        <ele>113.621292</ele>
        <time>2026-08-17T09:10:24.558Z</time>
      </trkpt>
      <trkpt lat="51.763349" lon="8.736336">
        <ele>113.651260</ele>
        <time>2026-08-17T09:10:27.568Z</time>
      </trkpt>
      <trkpt lat="51.763734" lon="8.737305">
        <ele>113.812899</ele>
        <time>2026-08-17T09:10:44.272Z</time>
      </trkpt>
      <trkpt lat="51.764096" lon="8.738006">
        <ele>113.941055</ele>
        <time>2026-08-17T09:10:57.602Z</time>
      </trkpt>
      <trkpt lat="51.764598" lon="8.738881">
        <ele>114.276785</ele>
        <time>2026-08-17T09:11:15.296Z</time>
      </trkpt>
      <trkpt lat="51.764819" lon="8.739340">
        <ele>114.462592</ele>
        <time>2026-08-17T09:11:24.015Z</time>
      </trkpt>
      <trkpt lat="51.765091" lon="8.740020">
        <ele>114.721283</ele>
        <time>2026-08-17T09:11:36.448Z</time>
      </trkpt>
      <trkpt lat="51.765141" lon="8.740170">
        <ele>114.775718</ele>
        <time>2026-08-17T09:11:39.076Z</time>
      </trkpt>
      <trkpt lat="51.765266" lon="8.740631">
        <ele>114.920655</ele>
        <time>2026-08-17T09:11:46.809Z</time>
      </trkpt>
      <trkpt lat="51.765654" lon="8.742152">
        <ele>115.179529</ele>
        <time>2026-08-17T09:12:11.266Z</time>
      </trkpt>
      <trkpt lat="51.766043" lon="8.743678">
        <ele>115.283677</ele>
        <time>2026-08-17T09:12:33.753Z</time>
      </trkpt>
      <trkpt lat="51.766829" lon="8.746739">
        <ele>114.662852</ele>
        <time>2026-08-17T09:13:16.852Z</time>
      </trkpt>
      <trkpt lat="51.766864" lon="8.746876">
        <ele>114.624923</ele>
        <time>2026-08-17T09:13:18.889Z</time>
      </trkpt>
      <trkpt lat="51.767102" lon="8.747823">
        <ele>114.363357</ele>
        <time>2026-08-17T09:13:32.107Z</time>
      </trkpt>
      <trkpt lat="51.767134" lon="8.747943">
        <ele>114.329919</ele>
        <time>2026-08-17T09:13:33.731Z</time>
      </trkpt>
      <trkpt lat="51.767091" lon="8.747967">
        <ele>114.311107</ele>
        <time>2026-08-17T09:13:34.622Z</time>
      </trkpt>
      <trkpt lat="51.767539" lon="8.749705">
        <ele>114.499591</ele>
        <time>2026-08-17T09:13:58.696Z</time>
      </trkpt>
      <trkpt lat="51.767626" lon="8.750049">
        <ele>114.604455</ele>
        <time>2026-08-17T09:14:03.836Z</time>
      </trkpt>
      <trkpt lat="51.767951" lon="8.751307">
        <ele>115.045610</ele>
        <time>2026-08-17T09:14:26.757Z</time>
      </trkpt>
      <trkpt lat="51.768643" lon="8.754127">
        <ele>118.049525</ele>
        <time>2026-08-17T09:15:23.048Z</time>
      </trkpt>
      <trkpt lat="51.768694" lon="8.754092">
        <ele>118.069900</ele>
        <time>2026-08-17T09:15:24.470Z</time>
      </trkpt>
      <trkpt lat="51.768772" lon="8.754460">
        <ele>118.158416</ele>
        <time>2026-08-17T09:15:30.589Z</time>
      </trkpt>
      <trkpt lat="51.769377" lon="8.756798">
        <ele>118.711871</ele>
        <time>2026-08-17T09:16:05.080Z</time>
      </trkpt>
      <trkpt lat="51.766563" lon="8.759162">
        <ele>119.755173</ele>
        <time>2026-08-17T09:17:19.657Z</time>
      </trkpt>
      <trkpt lat="51.766377" lon="8.759320">
        <ele>119.842288</ele>
        <time>2026-08-17T09:17:24.952Z</time>
      </trkpt>
      <trkpt lat="51.765670" lon="8.759923">
        <ele>120.265304</ele>
        <time>2026-08-17T09:17:45.115Z</time>
      </trkpt>
      <trkpt lat="51.764168" lon="8.761169">
        <ele>120.720993</ele>
        <time>2026-08-17T09:18:25.343Z</time>
      </trkpt>
      <trkpt lat="51.763975" lon="8.761326">
        <ele>120.691613</ele>
        <time>2026-08-17T09:18:29.980Z</time>
      </trkpt>
      <trkpt lat="51.763197" lon="8.762003">
        <ele>120.571463</ele>
        <time>2026-08-17T09:18:48.381Z</time>
      </trkpt>
      <trkpt lat="51.762973" lon="8.762136">
        <ele>120.403475</ele>
        <time>2026-08-17T09:18:53.129Z</time>
      </trkpt>
      <trkpt lat="51.762616" lon="8.762280">
        <ele>120.108493</ele>
        <time>2026-08-17T09:19:00.393Z</time>
      </trkpt>
      <trkpt lat="51.761874" lon="8.762472">
        <ele>119.506069</ele>
        <time>2026-08-17T09:19:14.996Z</time>
      </trkpt>
      <trkpt lat="51.761497" lon="8.762639">
        <ele>119.192683</ele>
        <time>2026-08-17T09:19:22.502Z</time>
      </trkpt>
      <trkpt lat="51.761286" lon="8.762778">
        <ele>119.167942</ele>
        <time>2026-08-17T09:19:26.995Z</time>
      </trkpt>
      <trkpt lat="51.761078" lon="8.762968">
        <ele>119.240007</ele>
        <time>2026-08-17T09:19:31.811Z</time>
      </trkpt>
      <trkpt lat="51.761058" lon="8.762888">
        <ele>119.256113</ele>
        <time>2026-08-17T09:19:32.965Z</time>
      </trkpt>
      <trkpt lat="51.760816" lon="8.763078">
        <ele>119.337262</ele>
        <time>2026-08-17T09:19:38.912Z</time>
      </trkpt>
      <trkpt lat="51.760318" lon="8.763748">
        <ele>119.532716</ele>
        <time>2026-08-17T09:19:55.356Z</time>
      </trkpt>
      <trkpt lat="51.760355" lon="8.763822">
        <ele>119.550475</ele>
        <time>2026-08-17T09:19:57.002Z</time>
      </trkpt>
      <trkpt lat="51.759767" lon="8.764621">
        <ele>119.574066</ele>
        <time>2026-08-17T09:20:17.405Z</time>
      </trkpt>
      <trkpt lat="51.759710" lon="8.764694">
        <ele>119.556286</ele>
        <time>2026-08-17T09:20:19.158Z</time>
      </trkpt>
      <trkpt lat="51.759284" lon="8.765256">
        <ele>119.421845</ele>
        <time>2026-08-17T09:20:32.028Z</time>
      </trkpt>
      <trkpt lat="51.759055" lon="8.765567">
        <ele>119.348717</ele>
        <time>2026-08-17T09:20:37.970Z</time>
      </trkpt>
      <trkpt lat="51.758923" lon="8.765746">
        <ele>119.306591</ele>
        <time>2026-08-17T09:20:41.174Z</time>
      </trkpt>
      <trkpt lat="51.758495" lon="8.766300">
        <ele>119.039635</ele>
        <time>2026-08-17T09:20:51.003Z</time>
      </trkpt>
      <trkpt lat="51.758429" lon="8.766393">
        <ele>118.966538</ele>
        <time>2026-08-17T09:20:52.549Z</time>
      </trkpt>
      <trkpt lat="51.758218" lon="8.766669">
        <ele>118.739939</ele>
        <time>2026-08-17T09:20:57.432Z</time>
      </trkpt>
      <trkpt lat="51.757949" lon="8.767020">
        <ele>118.451333</ele>
        <time>2026-08-17T09:21:03.915Z</time>
      </trkpt>
      <trkpt lat="51.757068" lon="8.768152">
        <ele>118.070597</ele>
        <time>2026-08-17T09:21:27.636Z</time>
      </trkpt>
      <trkpt lat="51.756669" lon="8.768728">
        <ele>118.787254</ele>
        <time>2026-08-17T09:21:43.112Z</time>
      </trkpt>
      <trkpt lat="51.756431" lon="8.769126">
        <ele>119.246032</ele>
        <time>2026-08-17T09:21:53.341Z</time>
      </trkpt>
      <trkpt lat="51.756340" lon="8.769289">
        <ele>119.428008</ele>
        <time>2026-08-17T09:21:57.412Z</time>
      </trkpt>
      <trkpt lat="51.756060" lon="8.769801">
        <ele>119.994406</ele>
        <time>2026-08-17T09:22:10.056Z</time>
      </trkpt>
      <trkpt lat="51.755712" lon="8.770350">
        <ele>120.450460</ele>
        <time>2026-08-17T09:22:24.148Z</time>
      </trkpt>
      <trkpt lat="51.755407" lon="8.770757">
        <ele>120.777524</ele>
        <time>2026-08-17T09:22:34.202Z</time>
      </trkpt>
      <trkpt lat="51.755339" lon="8.770846">
        <ele>120.849879</ele>
        <time>2026-08-17T09:22:36.247Z</time>
      </trkpt>
      <trkpt lat="51.755372" lon="8.770895">
        <ele>120.886936</ele>
        <time>2026-08-17T09:22:37.285Z</time>
      </trkpt>
      <trkpt lat="51.756080" lon="8.772109">
        <ele>121.732538</ele>
        <time>2026-08-17T09:23:01.778Z</time>
      </trkpt>
      <trkpt lat="51.756507" lon="8.772704">
        <ele>122.167202</ele>
        <time>2026-08-17T09:23:16.305Z</time>
      </trkpt>
      <trkpt lat="51.756537" lon="8.772741">
        <ele>122.196295</ele>
        <time>2026-08-17T09:23:17.278Z</time>
      </trkpt>
      <trkpt lat="51.757127" lon="8.773395">
        <ele>122.747840</ele>
        <time>2026-08-17T09:23:36.322Z</time>
      </trkpt>
      <trkpt lat="51.757334" lon="8.773623">
        <ele>122.940956</ele>
        <time>2026-08-17T09:23:42.660Z</time>
      </trkpt>
      <trkpt lat="51.757734" lon="8.774067">
        <ele>123.119343</ele>
        <time>2026-08-17T09:23:54.098Z</time>
      </trkpt>
      <trkpt lat="51.758078" lon="8.774448">
        <ele>123.235424</ele>
        <time>2026-08-17T09:24:03.461Z</time>
      </trkpt>
      <trkpt lat="51.758254" lon="8.774642">
        <ele>123.294724</ele>
        <time>2026-08-17T09:24:08.350Z</time>
      </trkpt>
      <trkpt lat="51.758372" lon="8.774773">
        <ele>123.334572</ele>
        <time>2026-08-17T09:24:11.613Z</time>
      </trkpt>
      <trkpt lat="51.758435" lon="8.774844">
        <ele>123.355951</ele>
        <time>2026-08-17T09:24:13.374Z</time>
      </trkpt>
      <trkpt lat="51.758772" lon="8.775217">
        <ele>123.469646</ele>
        <time>2026-08-17T09:24:22.756Z</time>
      </trkpt>
      <trkpt lat="51.758608" lon="8.775634">
        <ele>123.587163</ele>
        <time>2026-08-17T09:24:29.946Z</time>
      </trkpt>
      <trkpt lat="51.758125" lon="8.776761">
        <ele>123.991821</ele>
        <time>2026-08-17T09:24:50.438Z</time>
      </trkpt>
      <trkpt lat="51.757700" lon="8.777750">
        <ele>124.347242</ele>
        <time>2026-08-17T09:25:08.703Z</time>
      </trkpt>
      <trkpt lat="51.759171" lon="8.779004">
        <ele>124.928410</ele>
        <time>2026-08-17T09:26:00.136Z</time>
      </trkpt>
      <trkpt lat="51.759218" lon="8.778935">
        <ele>124.950392</ele>
        <time>2026-08-17T09:26:02.025Z</time>
      </trkpt>
      <trkpt lat="51.759323" lon="8.778984">
        <ele>124.988222</ele>
        <time>2026-08-17T09:26:04.417Z</time>
      </trkpt>
      <trkpt lat="51.759773" lon="8.779487">
        <ele>124.985472</ele>
        <time>2026-08-17T09:26:16.340Z</time>
      </trkpt>
      <trkpt lat="51.759978" lon="8.779628">
        <ele>124.983722</ele>
        <time>2026-08-17T09:26:21.081Z</time>
      </trkpt>
      <trkpt lat="51.760723" lon="8.780231">
        <ele>124.977178</ele>
        <time>2026-08-17T09:26:44.890Z</time>
      </trkpt>
      <trkpt lat="51.761111" lon="8.780559">
        <ele>125.050754</ele>
        <time>2026-08-17T09:26:58.654Z</time>
      </trkpt>
      <trkpt lat="51.761136" lon="8.780641">
        <ele>125.068605</ele>
        <time>2026-08-17T09:27:00.430Z</time>
      </trkpt>
      <trkpt lat="51.761162" lon="8.780664">
        <ele>125.077958</ele>
        <time>2026-08-17T09:27:01.147Z</time>
      </trkpt>
      <trkpt lat="51.761190" lon="8.780685">
        <ele>125.087698</ele>
        <time>2026-08-17T09:27:01.902Z</time>
      </trkpt>
      <trkpt lat="51.761270" lon="8.780750">
        <ele>125.115953</ele>
        <time>2026-08-17T09:27:04.051Z</time>
      </trkpt>
      <trkpt lat="51.761380" lon="8.780840">
        <ele>125.154857</ele>
        <time>2026-08-17T09:27:07.039Z</time>
      </trkpt>
      <trkpt lat="51.761785" lon="8.781156">
        <ele>125.296767</ele>
        <time>2026-08-17T09:27:17.685Z</time>
      </trkpt>
      <trkpt lat="51.761810" lon="8.781177">
        <ele>125.305658</ele>
        <time>2026-08-17T09:27:18.356Z</time>
      </trkpt>
      <trkpt lat="51.761880" lon="8.781231">
        <ele>125.330133</ele>
        <time>2026-08-17T09:27:20.181Z</time>
      </trkpt>
      <trkpt lat="51.762692" lon="8.781890">
        <ele>125.607780</ele>
        <time>2026-08-17T09:27:41.410Z</time>
      </trkpt>
      <trkpt lat="51.763934" lon="8.782853">
        <ele>125.988986</ele>
        <time>2026-08-17T09:28:13.123Z</time>
      </trkpt>
      <trkpt lat="51.764154" lon="8.783028">
        <ele>126.066980</ele>
        <time>2026-08-17T09:28:19.052Z</time>
      </trkpt>
      <trkpt lat="51.764413" lon="8.783237">
        <ele>126.197869</ele>
        <time>2026-08-17T09:28:26.134Z</time>
      </trkpt>
      <trkpt lat="51.764570" lon="8.783362">
        <ele>126.277000</ele>
        <time>2026-08-17T09:28:30.485Z</time>
      </trkpt>
      <trkpt lat="51.764603" lon="8.783388">
        <ele>126.293599</ele>
        <time>2026-08-17T09:28:31.399Z</time>
      </trkpt>
      <trkpt lat="51.766383" lon="8.784795">
        <ele>126.647882</ele>
        <time>2026-08-17T09:29:18.955Z</time>
      </trkpt>
      <trkpt lat="51.767440" lon="8.785634">
        <ele>126.298570</ele>
        <time>2026-08-17T09:29:44.961Z</time>
      </trkpt>
      <trkpt lat="51.767492" lon="8.785674">
        <ele>126.272043</ele>
        <time>2026-08-17T09:29:46.911Z</time>
      </trkpt>
      <trkpt lat="51.767691" lon="8.785829">
        <ele>126.170290</ele>
        <time>2026-08-17T09:29:51.886Z</time>
      </trkpt>
      <trkpt lat="51.768208" lon="8.786285">
        <ele>125.898992</ele>
        <time>2026-08-17T09:30:05.832Z</time>
      </trkpt>
      <trkpt lat="51.769042" lon="8.787108">
        <ele>125.539295</ele>
        <time>2026-08-17T09:30:28.785Z</time>
      </trkpt>
      <trkpt lat="51.769142" lon="8.787233">
        <ele>125.549486</ele>
        <time>2026-08-17T09:30:31.634Z</time>
      </trkpt>
      <trkpt lat="51.769211" lon="8.787308">
        <ele>125.556189</ele>
        <time>2026-08-17T09:30:33.322Z</time>
      </trkpt>
      <trkpt lat="51.769332" lon="8.787442">
        <ele>125.568014</ele>
        <time>2026-08-17T09:30:36.694Z</time>
      </trkpt>
      <trkpt lat="51.769678" lon="8.787858">
        <ele>125.602777</ele>
        <time>2026-08-17T09:30:46.882Z</time>
      </trkpt>
      <trkpt lat="51.769794" lon="8.788005">
        <ele>125.614660</ele>
        <time>2026-08-17T09:30:52.290Z</time>
      </trkpt>
      <trkpt lat="51.770340" lon="8.788724">
        <ele>125.680199</ele>
        <time>2026-08-17T09:31:10.750Z</time>
      </trkpt>
      <trkpt lat="51.770980" lon="8.789663">
        <ele>126.735133</ele>
        <time>2026-08-17T09:31:37.112Z</time>
      </trkpt>
      <trkpt lat="51.772711" lon="8.792496">
        <ele>129.864627</ele>
        <time>2026-08-17T09:32:50.547Z</time>
      </trkpt>
      <trkpt lat="51.772565" lon="8.792915">
        <ele>130.237430</ele>
        <time>2026-08-17T09:32:58.969Z</time>
      </trkpt>
      <trkpt lat="51.772903" lon="8.793141">
        <ele>130.569740</ele>
        <time>2026-08-17T09:33:09.150Z</time>
      </trkpt>
      <trkpt lat="51.772989" lon="8.793166">
        <ele>130.649122</ele>
        <time>2026-08-17T09:33:11.553Z</time>
      </trkpt>
      <trkpt lat="51.773103" lon="8.793172">
        <ele>130.752744</ele>
        <time>2026-08-17T09:33:14.647Z</time>
      </trkpt>
      <trkpt lat="51.773204" lon="8.793301">
        <ele>130.869696</ele>
        <time>2026-08-17T09:33:18.087Z</time>
      </trkpt>
      <trkpt lat="51.773484" lon="8.793757">
        <ele>131.230825</ele>
        <time>2026-08-17T09:33:28.226Z</time>
      </trkpt>
      <trkpt lat="51.773943" lon="8.794505">
        <ele>131.823010</ele>
        <time>2026-08-17T09:33:44.379Z</time>
      </trkpt>
      <trkpt lat="51.774286" lon="8.795076">
        <ele>132.134597</ele>
        <time>2026-08-17T09:33:55.720Z</time>
      </trkpt>
      <trkpt lat="51.776317" lon="8.798419">
        <ele>134.108634</ele>
        <time>2026-08-17T09:35:08.647Z</time>
      </trkpt>
      <trkpt lat="51.776852" lon="8.799291">
        <ele>134.498145</ele>
        <time>2026-08-17T09:35:27.686Z</time>
      </trkpt>
      <trkpt lat="51.777339" lon="8.800083">
        <ele>134.789848</ele>
        <time>2026-08-17T09:35:44.356Z</time>
      </trkpt>
      <trkpt lat="51.778316" lon="8.801675">
        <ele>135.203279</ele>
        <time>2026-08-17T09:36:15.793Z</time>
      </trkpt>
      <trkpt lat="51.778474" lon="8.801944">
        <ele>135.251712</ele>
        <time>2026-08-17T09:36:20.977Z</time>
      </trkpt>
      <trkpt lat="51.778655" lon="8.802221">
        <ele>135.304318</ele>
        <time>2026-08-17T09:36:26.773Z</time>
      </trkpt>
      <trkpt lat="51.778798" lon="8.802376">
        <ele>135.340656</ele>
        <time>2026-08-17T09:36:30.842Z</time>
      </trkpt>
      <trkpt lat="51.779117" lon="8.802862">
        <ele>135.480322</ele>
        <time>2026-08-17T09:36:41.190Z</time>
      </trkpt>
      <trkpt lat="51.779204" lon="8.802998">
        <ele>135.559313</ele>
        <time>2026-08-17T09:36:44.028Z</time>
      </trkpt>
      <trkpt lat="51.779492" lon="8.803453">
        <ele>135.822148</ele>
        <time>2026-08-17T09:36:53.702Z</time>
      </trkpt>
      <trkpt lat="51.779839" lon="8.803977">
        <ele>136.132072</ele>
        <time>2026-08-17T09:37:05.740Z</time>
      </trkpt>
      <trkpt lat="51.779945" lon="8.804215">
        <ele>136.250482</ele>
        <time>2026-08-17T09:37:11.745Z</time>
      </trkpt>
      <trkpt lat="51.779940" lon="8.804299">
        <ele>136.284556</ele>
        <time>2026-08-17T09:37:13.475Z</time>
      </trkpt>
      <trkpt lat="51.779975" lon="8.804387">
        <ele>136.326797</ele>
        <time>2026-08-17T09:37:15.640Z</time>
      </trkpt>
      <trkpt lat="51.780050" lon="8.804291">
        <ele>136.389235</ele>
        <time>2026-08-17T09:37:18.106Z</time>
      </trkpt>
      <trkpt lat="51.780387" lon="8.805316">
        <ele>136.758752</ele>
        <time>2026-08-17T09:37:36.314Z</time>
      </trkpt>
      <trkpt lat="51.780491" lon="8.805570">
        <ele>136.837131</ele>
        <time>2026-08-17T09:37:40.978Z</time>
      </trkpt>
      <trkpt lat="51.780901" lon="8.806244">
        <ele>137.080363</ele>
        <time>2026-08-17T09:37:55.089Z</time>
      </trkpt>
      <trkpt lat="51.781022" lon="8.806441">
        <ele>137.151796</ele>
        <time>2026-08-17T09:37:59.017Z</time>
      </trkpt>
      <trkpt lat="51.781773" lon="8.807662">
        <ele>137.610784</ele>
        <time>2026-08-17T09:38:22.490Z</time>
      </trkpt>
      <trkpt lat="51.782002" lon="8.808011">
        <ele>137.749653</ele>
        <time>2026-08-17T09:38:29.709Z</time>
      </trkpt>
      <trkpt lat="51.782175" lon="8.808181">
        <ele>137.838983</ele>
        <time>2026-08-17T09:38:34.502Z</time>
      </trkpt>
      <trkpt lat="51.782527" lon="8.808561">
        <ele>138.025747</ele>
        <time>2026-08-17T09:38:44.972Z</time>
      </trkpt>
      <trkpt lat="51.783226" lon="8.809682">
        <ele>139.146388</ele>
        <time>2026-08-17T09:39:12.631Z</time>
      </trkpt>
      <trkpt lat="51.783619" lon="8.810324">
        <ele>139.899440</ele>
        <time>2026-08-17T09:39:28.361Z</time>
      </trkpt>
      <trkpt lat="51.783814" lon="8.810732">
        <ele>140.329317</ele>
        <time>2026-08-17T09:39:37.156Z</time>
      </trkpt>
      <trkpt lat="51.783923" lon="8.810960">
        <ele>140.564618</ele>
        <time>2026-08-17T09:39:42.040Z</time>
      </trkpt>
      <trkpt lat="51.783890" lon="8.811049">
        <ele>140.628814</ele>
        <time>2026-08-17T09:39:44.258Z</time>
      </trkpt>
      <trkpt lat="51.783902" lon="8.811180">
        <ele>140.710746</ele>
        <time>2026-08-17T09:39:47.075Z</time>
      </trkpt>
      <trkpt lat="51.783869" lon="8.811377">
        <ele>140.837018</ele>
        <time>2026-08-17T09:39:51.327Z</time>
      </trkpt>
      <trkpt lat="51.783609" lon="8.812541">
        <ele>141.602682</ele>
        <time>2026-08-17T09:40:16.477Z</time>
      </trkpt>
      <trkpt lat="51.783662" lon="8.812573">
        <ele>141.659264</ele>
        <time>2026-08-17T09:40:18.358Z</time>
      </trkpt>
      <trkpt lat="51.783575" lon="8.812957">
        <ele>141.912274</ele>
        <time>2026-08-17T09:40:24.772Z</time>
      </trkpt>
      <trkpt lat="51.783521" lon="8.813210">
        <ele>142.077859</ele>
        <time>2026-08-17T09:40:29.104Z</time>
      </trkpt>
      <trkpt lat="51.783494" lon="8.813339">
        <ele>142.162115</ele>
        <time>2026-08-17T09:40:31.415Z</time>
      </trkpt>
      <trkpt lat="51.783448" lon="8.813551">
        <ele>142.301112</ele>
        <time>2026-08-17T09:40:35.209Z</time>
      </trkpt>
      <trkpt lat="51.783339" lon="8.814050">
        <ele>142.517501</ele>
        <time>2026-08-17T09:40:44.202Z</time>
      </trkpt>
      <trkpt lat="51.783254" lon="8.814445">
        <ele>142.673403</ele>
        <time>2026-08-17T09:40:51.357Z</time>
      </trkpt>
      <trkpt lat="51.783245" lon="8.814485">
        <ele>142.689270</ele>
        <time>2026-08-17T09:40:52.086Z</time>
      </trkpt>
      <trkpt lat="51.783211" lon="8.814630">
        <ele>142.747076</ele>
        <time>2026-08-17T09:40:54.686Z</time>
      </trkpt>
      <trkpt lat="51.783198" lon="8.814683">
        <ele>142.768329</ele>
        <time>2026-08-17T09:40:55.640Z</time>
      </trkpt>
      <trkpt lat="51.783130" lon="8.814973">
        <ele>142.883941</ele>
        <time>2026-08-17T09:41:00.782Z</time>
      </trkpt>
      <trkpt lat="51.783085" lon="8.815165">
        <ele>142.960479</ele>
        <time>2026-08-17T09:41:04.085Z</time>
      </trkpt>
      <trkpt lat="51.783041" lon="8.815355">
        <ele>143.036108</ele>
        <time>2026-08-17T09:41:07.252Z</time>
      </trkpt>
      <trkpt lat="51.782890" lon="8.816007">
        <ele>143.295636</ele>
        <time>2026-08-17T09:41:17.948Z</time>
      </trkpt>
      <trkpt lat="51.782775" lon="8.816479">
        <ele>143.361475</ele>
        <time>2026-08-17T09:41:25.283Z</time>
      </trkpt>
      <trkpt lat="51.782761" lon="8.816538">
        <ele>143.328872</ele>
        <time>2026-08-17T09:41:26.152Z</time>
      </trkpt>
      <trkpt lat="51.782702" lon="8.816783">
        <ele>143.193227</ele>
        <time>2026-08-17T09:41:29.691Z</time>
      </trkpt>
      <trkpt lat="51.782598" lon="8.817223">
        <ele>142.950207</ele>
        <time>2026-08-17T09:41:35.841Z</time>
      </trkpt>
      <trkpt lat="51.782590" lon="8.817268">
        <ele>142.926050</ele>
        <time>2026-08-17T09:41:36.439Z</time>
      </trkpt>
      <trkpt lat="51.782463" lon="8.817845">
        <ele>142.610069</ele>
        <time>2026-08-17T09:41:43.999Z</time>
      </trkpt>
      <trkpt lat="51.782349" lon="8.818448">
        <ele>142.284750</ele>
        <time>2026-08-17T09:41:51.545Z</time>
      </trkpt>
      <trkpt lat="51.782256" lon="8.819333">
        <ele>141.839469</ele>
        <time>2026-08-17T09:42:02.153Z</time>
      </trkpt>
      <trkpt lat="51.782231" lon="8.819592">
        <ele>141.725923</ele>
        <time>2026-08-17T09:42:05.307Z</time>
      </trkpt>
      <trkpt lat="51.782228" lon="8.819627">
        <ele>141.710617</ele>
        <time>2026-08-17T09:42:05.720Z</time>
      </trkpt>
      <trkpt lat="51.782133" lon="8.820173">
        <ele>141.464933</ele>
        <time>2026-08-17T09:42:12.480Z</time>
      </trkpt>
      <trkpt lat="51.782105" lon="8.820275">
        <ele>141.416596</ele>
        <time>2026-08-17T09:42:13.883Z</time>
      </trkpt>
      <trkpt lat="51.782078" lon="8.820362">
        <ele>141.374435</ele>
        <time>2026-08-17T09:42:15.089Z</time>
      </trkpt>
      <trkpt lat="51.781942" lon="8.820685">
        <ele>141.205192</ele>
        <time>2026-08-17T09:42:19.859Z</time>
      </trkpt>
      <trkpt lat="51.781684" lon="8.821039">
        <ele>140.968240</ele>
        <time>2026-08-17T09:42:26.768Z</time>
      </trkpt>
      <trkpt lat="51.781447" lon="8.821258">
        <ele>140.777097</ele>
        <time>2026-08-17T09:42:32.587Z</time>
      </trkpt>
      <trkpt lat="51.781320" lon="8.821355">
        <ele>140.678747</ele>
        <time>2026-08-17T09:42:35.693Z</time>
      </trkpt>
      <trkpt lat="51.781306" lon="8.821365">
        <ele>140.677097</ele>
        <time>2026-08-17T09:42:36.021Z</time>
      </trkpt>
      <trkpt lat="51.781163" lon="8.821477">
        <ele>140.746090</ele>
        <time>2026-08-17T09:42:39.441Z</time>
      </trkpt>
      <trkpt lat="51.781070" lon="8.821547">
        <ele>140.790632</ele>
        <time>2026-08-17T09:42:41.629Z</time>
      </trkpt>
      <trkpt lat="51.781080" lon="8.821599">
        <ele>140.805259</ele>
        <time>2026-08-17T09:42:42.598Z</time>
      </trkpt>
      <trkpt lat="51.781128" lon="8.821881">
        <ele>140.883822</ele>
        <time>2026-08-17T09:42:47.898Z</time>
      </trkpt>
      <trkpt lat="51.781133" lon="8.821925">
        <ele>140.895839</ele>
        <time>2026-08-17T09:42:49.824Z</time>
      </trkpt>
      <trkpt lat="51.781135" lon="8.822038">
        <ele>140.926205</ele>
        <time>2026-08-17T09:42:54.673Z</time>
      </trkpt>
      <trkpt lat="51.781135" lon="8.822161">
        <ele>140.959244</ele>
        <time>2026-08-17T09:42:59.944Z</time>
      </trkpt>
      <trkpt lat="51.781188" lon="8.822229">
        <ele>140.988624</ele>
        <time>2026-08-17T09:43:01.901Z</time>
      </trkpt>
      <trkpt lat="51.781308" lon="8.822206">
        <ele>141.041090</ele>
        <time>2026-08-17T09:43:05.569Z</time>
      </trkpt>
      <trkpt lat="51.781458" lon="8.822171">
        <ele>141.106892</ele>
        <time>2026-08-17T09:43:10.362Z</time>
      </trkpt>
      <trkpt lat="51.781460" lon="8.822197">
        <ele>141.113930</ele>
        <time>2026-08-17T09:43:11.512Z</time>
      </trkpt>
      <trkpt lat="51.781458" lon="8.822171">
        <ele>141.120968</ele>
        <time>2026-08-17T09:43:12.663Z</time>
      </trkpt>
      <trkpt lat="51.781308" lon="8.822206">
        <ele>141.186770</ele>
        <time>2026-08-17T09:43:17.519Z</time>
      </trkpt>
      <trkpt lat="51.781188" lon="8.822229">
        <ele>141.239236</ele>
        <time>2026-08-17T09:43:21.404Z</time>
      </trkpt>
      <trkpt lat="51.781135" lon="8.822161">
        <ele>141.268616</ele>
        <time>2026-08-17T09:43:23.613Z</time>
      </trkpt>
      <trkpt lat="51.781119" lon="8.822156">
        <ele>141.275691</ele>
        <time>2026-08-17T09:43:24.152Z</time>
      </trkpt>
      <trkpt lat="51.781061" lon="8.822138">
        <ele>141.301334</ele>
        <time>2026-08-17T09:43:25.998Z</time>
      </trkpt>
      <trkpt lat="51.781034" lon="8.822294">
        <ele>141.344846</ele>
        <time>2026-08-17T09:43:30.099Z</time>
      </trkpt>
      <trkpt lat="51.780790" lon="8.822228">
        <ele>141.452259</ele>
        <time>2026-08-17T09:43:38.252Z</time>
      </trkpt>
      <trkpt lat="51.780785" lon="8.822282">
        <ele>141.491668</ele>
        <time>2026-08-17T09:43:39.468Z</time>
      </trkpt>
      <trkpt lat="51.780765" lon="8.822456">
        <ele>141.634329</ele>
        <time>2026-08-17T09:43:43.163Z</time>
      </trkpt>
      <trkpt lat="51.780753" lon="8.822559">
        <ele>141.718817</ele>
        <time>2026-08-17T09:43:45.504Z</time>
      </trkpt>
      <trkpt lat="51.780751" lon="8.822579">
        <ele>141.735149</ele>
        <time>2026-08-17T09:43:45.946Z</time>
      </trkpt>
      <trkpt lat="51.780591" lon="8.822545">
        <ele>141.945415</ele>
        <time>2026-08-17T09:43:51.536Z</time>
      </trkpt>
      <trkpt lat="51.780498" lon="8.822526">
        <ele>142.067554</ele>
        <time>2026-08-17T09:43:54.749Z</time>
      </trkpt>
      <trkpt lat="51.780452" lon="8.822575">
        <ele>142.139335</ele>
        <time>2026-08-17T09:43:56.758Z</time>
      </trkpt>
      <trkpt lat="51.780264" lon="8.822456">
        <ele>142.402404</ele>
        <time>2026-08-17T09:44:02.587Z</time>
      </trkpt>
      <trkpt lat="51.780157" lon="8.822999">
        <ele>142.861790</ele>
        <time>2026-08-17T09:44:12.260Z</time>
      </trkpt>
      <trkpt lat="51.780127" lon="8.823153">
        <ele>142.991940</ele>
        <time>2026-08-17T09:44:15.033Z</time>
      </trkpt>
      <trkpt lat="51.780028" lon="8.823649">
        <ele>143.412065</ele>
        <time>2026-08-17T09:44:23.699Z</time>
      </trkpt>
      <trkpt lat="51.780002" lon="8.823795">
        <ele>143.534537</ele>
        <time>2026-08-17T09:44:26.307Z</time>
      </trkpt>
      <trkpt lat="51.779865" lon="8.824419">
        <ele>144.049681</ele>
        <time>2026-08-17T09:44:37.977Z</time>
      </trkpt>
      <trkpt lat="51.779689" lon="8.825259">
        <ele>144.715364</ele>
        <time>2026-08-17T09:44:53.548Z</time>
      </trkpt>
      <trkpt lat="51.779412" lon="8.826668">
        <ele>145.825079</ele>
        <time>2026-08-17T09:45:18.307Z</time>
      </trkpt>
      <trkpt lat="51.779364" lon="8.826900">
        <ele>145.984901</ele>
        <time>2026-08-17T09:45:22.213Z</time>
      </trkpt>
      <trkpt lat="51.779256" lon="8.827419">
        <ele>146.051861</ele>
        <time>2026-08-17T09:45:30.646Z</time>
      </trkpt>
      <trkpt lat="51.777781" lon="8.826637">
        <ele>146.373628</ele>
        <time>2026-08-17T09:46:04.615Z</time>
      </trkpt>
      <trkpt lat="51.777511" lon="8.827140">
        <ele>146.508204</ele>
        <time>2026-08-17T09:46:14.033Z</time>
      </trkpt>
      <trkpt lat="51.777184" lon="8.827623">
        <ele>146.652896</ele>
        <time>2026-08-17T09:46:24.494Z</time>
      </trkpt>
      <trkpt lat="51.776203" lon="8.829058">
        <ele>147.097856</ele>
        <time>2026-08-17T09:46:56.826Z</time>
      </trkpt>
      <trkpt lat="51.776153" lon="8.829129">
        <ele>147.121313</ele>
        <time>2026-08-17T09:46:58.405Z</time>
      </trkpt>
      <trkpt lat="51.774884" lon="8.830992">
        <ele>147.642269</ele>
        <time>2026-08-17T09:47:38.462Z</time>
      </trkpt>
      <trkpt lat="51.774548" lon="8.831484">
        <ele>147.723038</ele>
        <time>2026-08-17T09:47:49.105Z</time>
      </trkpt>
      <trkpt lat="51.774218" lon="8.831968">
        <ele>147.802424</ele>
        <time>2026-08-17T09:47:59.399Z</time>
      </trkpt>
      <trkpt lat="51.773938" lon="8.832385">
        <ele>147.870252</ele>
        <time>2026-08-17T09:48:07.974Z</time>
      </trkpt>
      <trkpt lat="51.773419" lon="8.833155">
        <ele>147.735584</ele>
        <time>2026-08-17T09:48:22.989Z</time>
      </trkpt>
      <trkpt lat="51.772603" lon="8.834329">
        <ele>147.501716</ele>
        <time>2026-08-17T09:48:45.846Z</time>
      </trkpt>
      <trkpt lat="51.772470" lon="8.834458">
        <ele>147.530213</ele>
        <time>2026-08-17T09:48:49.154Z</time>
      </trkpt>
      <trkpt lat="51.771114" lon="8.835725">
        <ele>148.055165</ele>
        <time>2026-08-17T09:49:26.271Z</time>
      </trkpt>
      <trkpt lat="51.769853" lon="8.837195">
        <ele>149.342251</ele>
        <time>2026-08-17T09:50:06.445Z</time>
      </trkpt>
      <trkpt lat="51.769688" lon="8.837405">
        <ele>149.524761</ele>
        <time>2026-08-17T09:50:11.903Z</time>
      </trkpt>
      <trkpt lat="51.769568" lon="8.837694">
        <ele>149.729901</ele>
        <time>2026-08-17T09:50:17.471Z</time>
      </trkpt>
      <trkpt lat="51.769544" lon="8.837818">
        <ele>149.823227</ele>
        <time>2026-08-17T09:50:19.573Z</time>
      </trkpt>
      <trkpt lat="51.769448" lon="8.838138">
        <ele>150.078673</ele>
        <time>2026-08-17T09:50:25.274Z</time>
      </trkpt>
      <trkpt lat="51.769382" lon="8.838254">
        <ele>150.191864</ele>
        <time>2026-08-17T09:50:27.820Z</time>
      </trkpt>
      <trkpt lat="51.769294" lon="8.838338">
        <ele>150.310501</ele>
        <time>2026-08-17T09:50:30.485Z</time>
      </trkpt>
      <trkpt lat="51.769116" lon="8.838413">
        <ele>150.524025</ele>
        <time>2026-08-17T09:50:35.303Z</time>
      </trkpt>
      <trkpt lat="51.768949" lon="8.838370">
        <ele>150.720318</ele>
        <time>2026-08-17T09:50:39.766Z</time>
      </trkpt>
      <trkpt lat="51.768635" lon="8.838170">
        <ele>151.112090</ele>
        <time>2026-08-17T09:50:48.896Z</time>
      </trkpt>
      <trkpt lat="51.768442" lon="8.838161">
        <ele>151.336211</ele>
        <time>2026-08-17T09:50:54.222Z</time>
      </trkpt>
      <trkpt lat="51.766673" lon="8.839002">
        <ele>154.017831</ele>
        <time>2026-08-17T09:51:46.569Z</time>
      </trkpt>
      <trkpt lat="51.763855" lon="8.840336">
        <ele>158.846625</ele>
        <time>2026-08-17T09:53:10.225Z</time>
      </trkpt>
      <trkpt lat="51.761268" lon="8.841539">
        <ele>164.773895</ele>
        <time>2026-08-17T09:54:32.822Z</time>
      </trkpt>
      <trkpt lat="51.760390" lon="8.841586">
        <ele>168.278474</ele>
        <time>2026-08-17T09:55:06.462Z</time>
      </trkpt>
      <trkpt lat="51.758816" lon="8.841648">
        <ele>174.800109</ele>
        <time>2026-08-17T09:56:10.497Z</time>
      </trkpt>
      <trkpt lat="51.757243" lon="8.841887">
        <ele>180.676268</ele>
        <time>2026-08-17T09:57:11.475Z</time>
      </trkpt>
      <trkpt lat="51.755537" lon="8.842305">
        <ele>184.102634</ele>
        <time>2026-08-17T09:58:02.088Z</time>
      </trkpt>
      <trkpt lat="51.755497" lon="8.842313">
        <ele>184.125299</ele>
        <time>2026-08-17T09:58:03.050Z</time>
      </trkpt>
      <trkpt lat="51.755438" lon="8.842327">
        <ele>184.158833</ele>
        <time>2026-08-17T09:58:04.485Z</time>
      </trkpt>
      <trkpt lat="51.755467" lon="8.843124">
        <ele>184.436741</ele>
        <time>2026-08-17T09:58:16.563Z</time>
      </trkpt>
      <trkpt lat="51.755552" lon="8.844301">
        <ele>184.849223</ele>
        <time>2026-08-17T09:58:33.385Z</time>
      </trkpt>
      <trkpt lat="51.755559" lon="8.844472">
        <ele>184.908876</ele>
        <time>2026-08-17T09:58:35.838Z</time>
      </trkpt>
      <trkpt lat="51.755552" lon="8.844301">
        <ele>184.959143</ele>
        <time>2026-08-17T09:58:38.093Z</time>
      </trkpt>
      <trkpt lat="51.755467" lon="8.843124">
        <ele>185.129026</ele>
        <time>2026-08-17T09:58:53.939Z</time>
      </trkpt>
      <trkpt lat="51.755438" lon="8.842327">
        <ele>185.243485</ele>
        <time>2026-08-17T09:59:05.090Z</time>
      </trkpt>
      <trkpt lat="51.753251" lon="8.842918">
        <ele>186.828136</ele>
        <time>2026-08-17T10:00:01.545Z</time>
      </trkpt>
      <trkpt lat="51.752835" lon="8.842983">
        <ele>187.356843</ele>
        <time>2026-08-17T10:00:12.870Z</time>
      </trkpt>
      <trkpt lat="51.752276" lon="8.842999">
        <ele>188.156770</ele>
        <time>2026-08-17T10:00:28.350Z</time>
      </trkpt>
      <trkpt lat="51.752169" lon="8.843031">
        <ele>188.312464</ele>
        <time>2026-08-17T10:00:31.468Z</time>
      </trkpt>
      <trkpt lat="51.751607" lon="8.843202">
        <ele>189.130698</ele>
        <time>2026-08-17T10:00:48.025Z</time>
      </trkpt>
      <trkpt lat="51.751034" lon="8.843406">
        <ele>189.820423</ele>
        <time>2026-08-17T10:01:05.041Z</time>
      </trkpt>
      <trkpt lat="51.750131" lon="8.843727">
        <ele>190.713314</ele>
        <time>2026-08-17T10:01:30.379Z</time>
      </trkpt>
      <trkpt lat="51.750005" lon="8.843772">
        <ele>190.837930</ele>
        <time>2026-08-17T10:01:33.550Z</time>
      </trkpt>
      <trkpt lat="51.749720" lon="8.843874">
        <ele>191.119828</ele>
        <time>2026-08-17T10:01:40.431Z</time>
      </trkpt>
      <trkpt lat="51.749067" lon="8.844095">
        <ele>189.877113</ele>
        <time>2026-08-17T10:01:54.664Z</time>
      </trkpt>
      <trkpt lat="51.748258" lon="8.844390">
        <ele>187.759121</ele>
        <time>2026-08-17T10:02:09.187Z</time>
      </trkpt>
      <trkpt lat="51.748201" lon="8.843785">
        <ele>186.791554</ele>
        <time>2026-08-17T10:02:14.937Z</time>
      </trkpt>
      <trkpt lat="51.748086" lon="8.842579">
        <ele>181.442473</ele>
        <time>2026-08-17T10:02:25.663Z</time>
      </trkpt>
      <trkpt lat="51.748035" lon="8.842448">
        <ele>180.730561</ele>
        <time>2026-08-17T10:02:26.979Z</time>
      </trkpt>
      <trkpt lat="51.747849" lon="8.842323">
        <ele>179.233589</ele>
        <time>2026-08-17T10:02:29.723Z</time>
      </trkpt>
      <trkpt lat="51.747622" lon="8.842302">
        <ele>177.544057</ele>
        <time>2026-08-17T10:02:32.844Z</time>
      </trkpt>
      <trkpt lat="51.747406" lon="8.842329">
        <ele>175.934227</ele>
        <time>2026-08-17T10:02:35.864Z</time>
      </trkpt>
      <trkpt lat="51.747244" lon="8.842386">
        <ele>174.702223</ele>
        <time>2026-08-17T10:02:38.194Z</time>
      </trkpt>
      <trkpt lat="51.747115" lon="8.842464">
        <ele>173.678697</ele>
        <time>2026-08-17T10:02:40.148Z</time>
      </trkpt>
      <trkpt lat="51.746885" lon="8.842603">
        <ele>172.715657</ele>
        <time>2026-08-17T10:02:43.673Z</time>
      </trkpt>
      <trkpt lat="51.746788" lon="8.842674">
        <ele>172.399879</ele>
        <time>2026-08-17T10:02:45.256Z</time>
      </trkpt>
      <trkpt lat="51.746638" lon="8.842782">
        <ele>171.912911</ele>
        <time>2026-08-17T10:02:47.753Z</time>
      </trkpt>
      <trkpt lat="51.746548" lon="8.842993">
        <ele>171.442518</ele>
        <time>2026-08-17T10:02:50.232Z</time>
      </trkpt>
      <trkpt lat="51.746369" lon="8.843411">
        <ele>170.509457</ele>
        <time>2026-08-17T10:02:55.408Z</time>
      </trkpt>
      <trkpt lat="51.746220" lon="8.843846">
        <ele>169.596788</ele>
        <time>2026-08-17T10:03:01.097Z</time>
      </trkpt>
      <trkpt lat="51.746168" lon="8.844187">
        <ele>168.952046</ele>
        <time>2026-08-17T10:03:05.611Z</time>
      </trkpt>
      <trkpt lat="51.746157" lon="8.844790">
        <ele>167.966183</ele>
        <time>2026-08-17T10:03:13.538Z</time>
      </trkpt>
      <trkpt lat="51.746111" lon="8.845088">
        <ele>168.025643</ele>
        <time>2026-08-17T10:03:17.718Z</time>
      </trkpt>
      <trkpt lat="51.746017" lon="8.845377">
        <ele>168.088845</ele>
        <time>2026-08-17T10:03:22.384Z</time>
      </trkpt>
      <trkpt lat="51.745899" lon="8.845531">
        <ele>168.136283</ele>
        <time>2026-08-17T10:03:26.143Z</time>
      </trkpt>
      <trkpt lat="51.745787" lon="8.845662">
        <ele>168.179523</ele>
        <time>2026-08-17T10:03:29.658Z</time>
      </trkpt>
      <trkpt lat="51.745702" lon="8.845747">
        <ele>168.210784</ele>
        <time>2026-08-17T10:03:32.179Z</time>
      </trkpt>
      <trkpt lat="51.745519" lon="8.845954">
        <ele>168.280645</ele>
        <time>2026-08-17T10:03:37.649Z</time>
      </trkpt>
      <trkpt lat="51.745174" lon="8.846427">
        <ele>168.422151</ele>
        <time>2026-08-17T10:03:48.074Z</time>
      </trkpt>
      <trkpt lat="51.745015" lon="8.846645">
        <ele>168.487368</ele>
        <time>2026-08-17T10:03:52.986Z</time>
      </trkpt>
      <trkpt lat="51.745207" lon="8.847293">
        <ele>168.866279</ele>
        <time>2026-08-17T10:04:03.982Z</time>
      </trkpt>
      <trkpt lat="51.745348" lon="8.847832">
        <ele>169.227797</ele>
        <time>2026-08-17T10:04:13.110Z</time>
      </trkpt>
      <trkpt lat="51.745363" lon="8.847991">
        <ele>169.327167</ele>
        <time>2026-08-17T10:04:15.656Z</time>
      </trkpt>
      <trkpt lat="51.745422" lon="8.848565">
        <ele>169.686658</ele>
        <time>2026-08-17T10:04:24.824Z</time>
      </trkpt>
      <trkpt lat="51.745564" lon="8.850792">
        <ele>171.597197</ele>
        <time>2026-08-17T10:05:04.516Z</time>
      </trkpt>
      <trkpt lat="51.745624" lon="8.851023">
        <ele>171.859633</ele>
        <time>2026-08-17T10:05:09.058Z</time>
      </trkpt>
      <trkpt lat="51.745770" lon="8.851389">
        <ele>172.315757</ele>
        <time>2026-08-17T10:05:16.908Z</time>
      </trkpt>
      <trkpt lat="51.745946" lon="8.851777">
        <ele>172.819653</ele>
        <time>2026-08-17T10:05:25.695Z</time>
      </trkpt>
      <trkpt lat="51.746136" lon="8.852196">
        <ele>173.356534</ele>
        <time>2026-08-17T10:05:35.823Z</time>
      </trkpt>
      <trkpt lat="51.746274" lon="8.852487">
        <ele>173.416951</ele>
        <time>2026-08-17T10:05:42.641Z</time>
      </trkpt>
      <trkpt lat="51.746512" lon="8.852988">
        <ele>173.521034</ele>
        <time>2026-08-17T10:05:52.686Z</time>
      </trkpt>
      <trkpt lat="51.746518" lon="8.853005">
        <ele>173.524259</ele>
        <time>2026-08-17T10:05:52.977Z</time>
      </trkpt>
      <trkpt lat="51.746524" lon="8.853019">
        <ele>173.527065</ele>
        <time>2026-08-17T10:05:53.225Z</time>
      </trkpt>
      <trkpt lat="51.746820" lon="8.853585">
        <ele>173.649181</ele>
        <time>2026-08-17T10:06:02.897Z</time>
      </trkpt>
      <trkpt lat="51.746930" lon="8.853803">
        <ele>173.695534</ele>
        <time>2026-08-17T10:06:06.549Z</time>
      </trkpt>
      <trkpt lat="51.747123" lon="8.853545">
        <ele>173.762228</ele>
        <time>2026-08-17T10:06:11.786Z</time>
      </trkpt>
      <trkpt lat="51.747206" lon="8.853439">
        <ele>173.790397</ele>
        <time>2026-08-17T10:06:13.969Z</time>
      </trkpt>
      <trkpt lat="51.747362" lon="8.853065">
        <ele>173.876049</ele>
        <time>2026-08-17T10:06:19.702Z</time>
      </trkpt>
      <trkpt lat="51.747453" lon="8.852924">
        <ele>173.921996</ele>
        <time>2026-08-17T10:06:22.198Z</time>
      </trkpt>
      <trkpt lat="51.747539" lon="8.852857">
        <ele>173.956787</ele>
        <time>2026-08-17T10:06:24.011Z</time>
      </trkpt>
      <trkpt lat="51.747603" lon="8.852817">
        <ele>173.981791</ele>
        <time>2026-08-17T10:06:25.287Z</time>
      </trkpt>
      <trkpt lat="51.748142" lon="8.852556">
        <ele>174.186822</ele>
        <time>2026-08-17T10:06:36.811Z</time>
      </trkpt>
      <trkpt lat="51.748719" lon="8.853695">
        <ele>174.632714</ele>
        <time>2026-08-17T10:07:02.384Z</time>
      </trkpt>
      <trkpt lat="51.749097" lon="8.854511">
        <ele>175.752125</ele>
        <time>2026-08-17T10:07:20.170Z</time>
      </trkpt>
      <trkpt lat="51.749192" lon="8.854873">
        <ele>176.183989</ele>
        <time>2026-08-17T10:07:27.036Z</time>
      </trkpt>
      <trkpt lat="51.749384" lon="8.855820">
        <ele>177.278515</ele>
        <time>2026-08-17T10:07:46.558Z</time>
      </trkpt>
      <trkpt lat="51.749479" lon="8.856292">
        <ele>177.769434</ele>
        <time>2026-08-17T10:07:56.116Z</time>
      </trkpt>
      <trkpt lat="51.749634" lon="8.857405">
        <ele>178.548025</ele>
        <time>2026-08-17T10:08:16.018Z</time>
      </trkpt>
      <trkpt lat="51.749688" lon="8.857625">
        <ele>178.709542</ele>
        <time>2026-08-17T10:08:19.965Z</time>
      </trkpt>
      <trkpt lat="51.749944" lon="8.858764">
        <ele>179.536534</ele>
        <time>2026-08-17T10:08:38.886Z</time>
      </trkpt>
      <trkpt lat="51.750431" lon="8.860949">
        <ele>180.578102</ele>
        <time>2026-08-17T10:09:11.015Z</time>
      </trkpt>
      <trkpt lat="51.750515" lon="8.861457">
        <ele>180.803240</ele>
        <time>2026-08-17T10:09:20.059Z</time>
      </trkpt>
      <trkpt lat="51.750548" lon="8.861709">
        <ele>180.932531</ele>
        <time>2026-08-17T10:09:24.780Z</time>
      </trkpt>
      <trkpt lat="51.750629" lon="8.862335">
        <ele>182.033018</ele>
        <time>2026-08-17T10:09:37.575Z</time>
      </trkpt>
      <trkpt lat="51.750634" lon="8.862377">
        <ele>182.106615</ele>
        <time>2026-08-17T10:09:38.465Z</time>
      </trkpt>
      <trkpt lat="51.750869" lon="8.864676">
        <ele>185.812846</ele>
        <time>2026-08-17T10:10:31.583Z</time>
      </trkpt>
      <trkpt lat="51.751034" lon="8.865976">
        <ele>184.790661</ele>
        <time>2026-08-17T10:10:49.602Z</time>
      </trkpt>
      <trkpt lat="51.750205" lon="8.865980">
        <ele>183.759195</ele>
        <time>2026-08-17T10:11:02.710Z</time>
      </trkpt>
      <trkpt lat="51.749386" lon="8.865870">
        <ele>183.291677</ele>
        <time>2026-08-17T10:11:16.375Z</time>
      </trkpt>
      <trkpt lat="51.749342" lon="8.865869">
        <ele>183.269527</ele>
        <time>2026-08-17T10:11:17.401Z</time>
      </trkpt>
      <trkpt lat="51.749238" lon="8.865873">
        <ele>183.217165</ele>
        <time>2026-08-17T10:11:19.928Z</time>
      </trkpt>
      <trkpt lat="51.748141" lon="8.866006">
        <ele>182.784203</ele>
        <time>2026-08-17T10:11:52.387Z</time>
      </trkpt>
      <trkpt lat="51.747818" lon="8.868366">
        <ele>182.940848</ele>
        <time>2026-08-17T10:12:24.416Z</time>
      </trkpt>
      <trkpt lat="51.747766" lon="8.869027">
        <ele>183.062022</ele>
        <time>2026-08-17T10:12:32.485Z</time>
      </trkpt>
      <trkpt lat="51.747744" lon="8.869012">
        <ele>183.070551</ele>
        <time>2026-08-17T10:12:32.972Z</time>
      </trkpt>
      <trkpt lat="51.747698" lon="8.868994">
        <ele>183.087456</ele>
        <time>2026-08-17T10:12:33.954Z</time>
      </trkpt>
      <trkpt lat="51.747645" lon="8.868984">
        <ele>183.106513</ele>
        <time>2026-08-17T10:12:35.058Z</time>
      </trkpt>
      <trkpt lat="51.747495" lon="8.870357">
        <ele>183.414809</ele>
        <time>2026-08-17T10:12:55.421Z</time>
      </trkpt>
      <trkpt lat="51.747442" lon="8.871488">
        <ele>183.879175</ele>
        <time>2026-08-17T10:13:14.661Z</time>
      </trkpt>
      <trkpt lat="51.747478" lon="8.872680">
        <ele>184.931010</ele>
        <time>2026-08-17T10:13:34.799Z</time>
      </trkpt>
      <trkpt lat="51.747629" lon="8.873835">
        <ele>185.971432</ele>
        <time>2026-08-17T10:13:55.492Z</time>
      </trkpt>
      <trkpt lat="51.747733" lon="8.874308">
        <ele>186.532174</ele>
        <time>2026-08-17T10:14:04.505Z</time>
      </trkpt>
      <trkpt lat="51.747989" lon="8.875196">
        <ele>187.789609</ele>
        <time>2026-08-17T10:14:22.456Z</time>
      </trkpt>
      <trkpt lat="51.748289" lon="8.875967">
        <ele>188.958561</ele>
        <time>2026-08-17T10:14:39.694Z</time>
      </trkpt>
      <trkpt lat="51.749006" lon="8.877517">
        <ele>191.715938</ele>
        <time>2026-08-17T10:15:18.615Z</time>
      </trkpt>
      <trkpt lat="51.748955" lon="8.877574">
        <ele>191.867107</ele>
        <time>2026-08-17T10:15:20.845Z</time>
      </trkpt>
      <trkpt lat="51.749236" lon="8.878355">
        <ele>193.230252</ele>
        <time>2026-08-17T10:15:39.401Z</time>
      </trkpt>
      <trkpt lat="51.749419" lon="8.878970">
        <ele>194.259947</ele>
        <time>2026-08-17T10:15:52.860Z</time>
      </trkpt>
      <trkpt lat="51.749712" lon="8.880274">
        <ele>194.682116</ele>
        <time>2026-08-17T10:16:16.887Z</time>
      </trkpt>
      <trkpt lat="51.749855" lon="8.880959">
        <ele>194.898744</ele>
        <time>2026-08-17T10:16:27.336Z</time>
      </trkpt>
      <trkpt lat="51.749712" lon="8.880274">
        <ele>195.115372</ele>
        <time>2026-08-17T10:16:36.834Z</time>
      </trkpt>
      <trkpt lat="51.749419" lon="8.878970">
        <ele>194.028694</ele>
        <time>2026-08-17T10:16:51.419Z</time>
      </trkpt>
      <trkpt lat="51.749236" lon="8.878355">
        <ele>193.450398</ele>
        <time>2026-08-17T10:16:58.470Z</time>
      </trkpt>
      <trkpt lat="51.749350" lon="8.878245">
        <ele>193.268614</ele>
        <time>2026-08-17T10:17:01.022Z</time>
      </trkpt>
      <trkpt lat="51.749381" lon="8.878215">
        <ele>193.219143</ele>
        <time>2026-08-17T10:17:01.800Z</time>
      </trkpt>
      <trkpt lat="51.749437" lon="8.878166">
        <ele>193.131957</ele>
        <time>2026-08-17T10:17:03.173Z</time>
      </trkpt>
      <trkpt lat="51.749505" lon="8.878105">
        <ele>193.025478</ele>
        <time>2026-08-17T10:17:04.957Z</time>
      </trkpt>
      <trkpt lat="51.749781" lon="8.877854">
        <ele>192.781248</ele>
        <time>2026-08-17T10:17:12.286Z</time>
      </trkpt>
      <trkpt lat="51.749907" lon="8.877742">
        <ele>193.025489</ele>
        <time>2026-08-17T10:17:15.748Z</time>
      </trkpt>
      <trkpt lat="51.749965" lon="8.877685">
        <ele>193.140786</ele>
        <time>2026-08-17T10:17:17.406Z</time>
      </trkpt>
      <trkpt lat="51.750265" lon="8.877434">
        <ele>193.714551</ele>
        <time>2026-08-17T10:17:26.821Z</time>
      </trkpt>
      <trkpt lat="51.750402" lon="8.877577">
        <ele>193.991562</ele>
        <time>2026-08-17T10:17:34.769Z</time>
      </trkpt>
      <trkpt lat="51.750588" lon="8.877870">
        <ele>194.432778</ele>
        <time>2026-08-17T10:17:48.006Z</time>
      </trkpt>
      <trkpt lat="51.751109" lon="8.878780">
        <ele>195.728919</ele>
        <time>2026-08-17T10:18:25.660Z</time>
      </trkpt>
      <trkpt lat="51.751182" lon="8.878968">
        <ele>195.633677</ele>
        <time>2026-08-17T10:18:30.780Z</time>
      </trkpt>
      <trkpt lat="51.751236" lon="8.879204">
        <ele>195.525694</ele>
        <time>2026-08-17T10:18:36.193Z</time>
      </trkpt>
      <trkpt lat="51.751471" lon="8.880221">
        <ele>195.059811</ele>
        <time>2026-08-17T10:18:57.943Z</time>
      </trkpt>
      <trkpt lat="51.751527" lon="8.880465">
        <ele>194.948128</ele>
        <time>2026-08-17T10:19:02.950Z</time>
      </trkpt>
      <trkpt lat="51.751690" lon="8.881326">
        <ele>194.561719</ele>
        <time>2026-08-17T10:19:20.678Z</time>
      </trkpt>
      <trkpt lat="51.751958" lon="8.882242">
        <ele>195.378759</ele>
        <time>2026-08-17T10:19:44.096Z</time>
      </trkpt>
      <trkpt lat="51.752072" lon="8.882538">
        <ele>195.753576</ele>
        <time>2026-08-17T10:19:53.200Z</time>
      </trkpt>
      <trkpt lat="51.752511" lon="8.883435">
        <ele>196.982995</ele>
        <time>2026-08-17T10:20:26.708Z</time>
      </trkpt>
      <trkpt lat="51.753125" lon="8.884830">
        <ele>199.300887</ele>
        <time>2026-08-17T10:21:21.699Z</time>
      </trkpt>
      <trkpt lat="51.753196" lon="8.885009">
        <ele>199.619270</ele>
        <time>2026-08-17T10:21:27.913Z</time>
      </trkpt>
      <trkpt lat="51.753370" lon="8.885308">
        <ele>200.233852</ele>
        <time>2026-08-17T10:21:39.595Z</time>
      </trkpt>
      <trkpt lat="51.753721" lon="8.885904">
        <ele>201.465824</ele>
        <time>2026-08-17T10:22:02.489Z</time>
      </trkpt>
      <trkpt lat="51.754056" lon="8.886659">
        <ele>202.014075</ele>
        <time>2026-08-17T10:22:26.184Z</time>
      </trkpt>
      <trkpt lat="51.754484" lon="8.887416">
        <ele>202.107856</ele>
        <time>2026-08-17T10:22:48.170Z</time>
      </trkpt>
      <trkpt lat="51.754629" lon="8.887647">
        <ele>202.137948</ele>
        <time>2026-08-17T10:22:55.384Z</time>
      </trkpt>
      <trkpt lat="51.754896" lon="8.888255">
        <ele>202.206137</ele>
        <time>2026-08-17T10:23:12.614Z</time>
      </trkpt>
      <trkpt lat="51.755269" lon="8.889524">
        <ele>203.159654</ele>
        <time>2026-08-17T10:23:46.138Z</time>
      </trkpt>
      <trkpt lat="51.755759" lon="8.891194">
        <ele>204.590409</ele>
        <time>2026-08-17T10:24:36.792Z</time>
      </trkpt>
      <trkpt lat="51.755999" lon="8.891841">
        <ele>205.121598</ele>
        <time>2026-08-17T10:24:59.155Z</time>
      </trkpt>
      <trkpt lat="51.756160" lon="8.892206">
        <ele>205.437228</ele>
        <time>2026-08-17T10:25:11.913Z</time>
      </trkpt>
      <trkpt lat="51.756724" lon="8.893068">
        <ele>206.320528</ele>
        <time>2026-08-17T10:25:42.208Z</time>
      </trkpt>
      <trkpt lat="51.756742" lon="8.893250">
        <ele>206.450322</ele>
        <time>2026-08-17T10:25:46.404Z</time>
      </trkpt>
      <trkpt lat="51.756667" lon="8.893733">
        <ele>206.435927</ele>
        <time>2026-08-17T10:25:57.456Z</time>
      </trkpt>
      <trkpt lat="51.756675" lon="8.894528">
        <ele>206.220012</ele>
        <time>2026-08-17T10:26:13.887Z</time>
      </trkpt>
      <trkpt lat="51.757374" lon="8.896526">
        <ele>206.090048</ele>
        <time>2026-08-17T10:27:04.187Z</time>
      </trkpt>
      <trkpt lat="51.757702" lon="8.897947">
        <ele>207.017515</ele>
        <time>2026-08-17T10:27:44.748Z</time>
      </trkpt>
      <trkpt lat="51.757796" lon="8.898577">
        <ele>207.413824</ele>
        <time>2026-08-17T10:28:02.392Z</time>
      </trkpt>
      <trkpt lat="51.757866" lon="8.898838">
        <ele>207.551279</ele>
        <time>2026-08-17T10:28:10.031Z</time>
      </trkpt>
      <trkpt lat="51.758578" lon="8.901491">
        <ele>208.253290</ele>
        <time>2026-08-17T10:29:19.052Z</time>
      </trkpt>
      <trkpt lat="51.758757" lon="8.902498">
        <ele>208.156697</ele>
        <time>2026-08-17T10:29:33.387Z</time>
      </trkpt>
      <trkpt lat="51.758832" lon="8.903056">
        <ele>208.104054</ele>
        <time>2026-08-17T10:29:41.268Z</time>
      </trkpt>
      <trkpt lat="51.758950" lon="8.905570">
        <ele>208.509472</ele>
        <time>2026-08-17T10:30:22.144Z</time>
      </trkpt>
      <trkpt lat="51.758936" lon="8.905646">
        <ele>208.540428</ele>
        <time>2026-08-17T10:30:24.110Z</time>
      </trkpt>
      <trkpt lat="51.758881" lon="8.905957">
        <ele>208.666697</ele>
        <time>2026-08-17T10:30:32.184Z</time>
      </trkpt>
      <trkpt lat="51.759350" lon="8.906283">
        <ele>208.988714</ele>
        <time>2026-08-17T10:30:45.139Z</time>
      </trkpt>
      <trkpt lat="51.759311" lon="8.906981">
        <ele>209.436940</ele>
        <time>2026-08-17T10:30:56.165Z</time>
      </trkpt>
      <trkpt lat="51.759359" lon="8.907708">
        <ele>210.093143</ele>
        <time>2026-08-17T10:31:08.261Z</time>
      </trkpt>
      <trkpt lat="51.759795" lon="8.910270">
        <ele>212.645232</ele>
        <time>2026-08-17T10:31:56.173Z</time>
      </trkpt>
      <trkpt lat="51.759867" lon="8.911212">
        <ele>213.689222</ele>
        <time>2026-08-17T10:32:13.780Z</time>
      </trkpt>
      <trkpt lat="51.759940" lon="8.911738">
        <ele>214.282142</ele>
        <time>2026-08-17T10:32:23.859Z</time>
      </trkpt>
      <trkpt lat="51.759967" lon="8.911857">
        <ele>214.421548</ele>
        <time>2026-08-17T10:32:26.212Z</time>
      </trkpt>
      <trkpt lat="51.760067" lon="8.912296">
        <ele>214.935233</ele>
        <time>2026-08-17T10:32:34.731Z</time>
      </trkpt>
      <trkpt lat="51.760197" lon="8.912863">
        <ele>215.454566</ele>
        <time>2026-08-17T10:32:45.180Z</time>
      </trkpt>
      <trkpt lat="51.760292" lon="8.913283">
        <ele>215.838634</ele>
        <time>2026-08-17T10:32:52.586Z</time>
      </trkpt>
      <trkpt lat="51.760443" lon="8.913978">
        <ele>216.471272</ele>
        <time>2026-08-17T10:33:04.589Z</time>
      </trkpt>
      <trkpt lat="51.760878" lon="8.915749">
        <ele>218.345497</ele>
        <time>2026-08-17T10:33:37.823Z</time>
      </trkpt>
      <trkpt lat="51.760851" lon="8.915789">
        <ele>218.414113</ele>
        <time>2026-08-17T10:33:38.931Z</time>
      </trkpt>
      <trkpt lat="51.760790" lon="8.915864">
        <ele>218.557694</ele>
        <time>2026-08-17T10:33:41.227Z</time>
      </trkpt>
      <trkpt lat="51.760759" lon="8.915968">
        <ele>218.691519</ele>
        <time>2026-08-17T10:33:43.437Z</time>
      </trkpt>
      <trkpt lat="51.760788" lon="8.916053">
        <ele>218.804042</ele>
        <time>2026-08-17T10:33:45.285Z</time>
      </trkpt>
      <trkpt lat="51.760860" lon="8.917557">
        <ele>220.552897</ele>
        <time>2026-08-17T10:34:14.519Z</time>
      </trkpt>
      <trkpt lat="51.761003" lon="8.918534">
        <ele>221.324388</ele>
        <time>2026-08-17T10:34:32.334Z</time>
      </trkpt>
      <trkpt lat="51.761071" lon="8.918943">
        <ele>221.605861</ele>
        <time>2026-08-17T10:34:39.448Z</time>
      </trkpt>
      <trkpt lat="51.761135" lon="8.919284">
        <ele>221.842692</ele>
        <time>2026-08-17T10:34:45.266Z</time>
      </trkpt>
      <trkpt lat="51.761144" lon="8.919554">
        <ele>222.022403</ele>
        <time>2026-08-17T10:34:49.565Z</time>
      </trkpt>
      <trkpt lat="51.761360" lon="8.920994">
        <ele>223.051604</ele>
        <time>2026-08-17T10:35:11.516Z</time>
      </trkpt>
      <trkpt lat="51.761460" lon="8.921276">
        <ele>223.302058</ele>
        <time>2026-08-17T10:35:16.447Z</time>
      </trkpt>
      <trkpt lat="51.761631" lon="8.922312">
        <ele>224.128316</ele>
        <time>2026-08-17T10:35:34.124Z</time>
      </trkpt>
      <trkpt lat="51.761844" lon="8.922832">
        <ele>224.608842</ele>
        <time>2026-08-17T10:35:44.960Z</time>
      </trkpt>
      <trkpt lat="51.761892" lon="8.923064">
        <ele>224.797347</ele>
        <time>2026-08-17T10:35:49.347Z</time>
      </trkpt>
      <trkpt lat="51.762268" lon="8.923603">
        <ele>226.009827</ele>
        <time>2026-08-17T10:36:04.918Z</time>
      </trkpt>
      <trkpt lat="51.762628" lon="8.924249">
        <ele>227.543022</ele>
        <time>2026-08-17T10:36:23.482Z</time>
      </trkpt>
      <trkpt lat="51.762733" lon="8.924523">
        <ele>228.111426</ele>
        <time>2026-08-17T10:36:30.625Z</time>
      </trkpt>
      <trkpt lat="51.762761" lon="8.924640">
        <ele>228.332674</ele>
        <time>2026-08-17T10:36:33.420Z</time>
      </trkpt>
      <trkpt lat="51.762802" lon="8.924814">
        <ele>228.661055</ele>
        <time>2026-08-17T10:36:37.565Z</time>
      </trkpt>
      <trkpt lat="51.762849" lon="8.925242">
        <ele>229.427730</ele>
        <time>2026-08-17T10:36:47.278Z</time>
      </trkpt>
      <trkpt lat="51.762801" lon="8.926245">
        <ele>230.367699</ele>
        <time>2026-08-17T10:37:08.800Z</time>
      </trkpt>
      <trkpt lat="51.762813" lon="8.926484">
        <ele>230.472261</ele>
        <time>2026-08-17T10:37:13.497Z</time>
      </trkpt>
      <trkpt lat="51.762965" lon="8.927009">
        <ele>230.725007</ele>
        <time>2026-08-17T10:37:23.452Z</time>
      </trkpt>
      <trkpt lat="51.763114" lon="8.927309">
        <ele>230.892741</ele>
        <time>2026-08-17T10:37:28.648Z</time>
      </trkpt>
      <trkpt lat="51.763091" lon="8.927338">
        <ele>230.913297</ele>
        <time>2026-08-17T10:37:29.254Z</time>
      </trkpt>
      <trkpt lat="51.763037" lon="8.927405">
        <ele>230.961267</ele>
        <time>2026-08-17T10:37:30.769Z</time>
      </trkpt>
      <trkpt lat="51.763072" lon="8.927478">
        <ele>231.001534</ele>
        <time>2026-08-17T10:37:31.828Z</time>
      </trkpt>
      <trkpt lat="51.763316" lon="8.927967">
        <ele>231.275439</ele>
        <time>2026-08-17T10:37:39.277Z</time>
      </trkpt>
      <trkpt lat="51.763479" lon="8.928279">
        <ele>231.265783</ele>
        <time>2026-08-17T10:37:43.825Z</time>
      </trkpt>
      <trkpt lat="51.763672" lon="8.928654">
        <ele>231.047177</ele>
        <time>2026-08-17T10:37:49.214Z</time>
      </trkpt>
      <trkpt lat="51.763878" lon="8.929070">
        <ele>230.808379</ele>
        <time>2026-08-17T10:37:55.117Z</time>
      </trkpt>
      <trkpt lat="51.763923" lon="8.929173">
        <ele>230.751869</ele>
        <time>2026-08-17T10:37:56.570Z</time>
      </trkpt>
      <trkpt lat="51.764014" lon="8.929442">
        <ele>230.614462</ele>
        <time>2026-08-17T10:38:00.103Z</time>
      </trkpt>
      <trkpt lat="51.764071" lon="8.929799">
        <ele>230.449210</ele>
        <time>2026-08-17T10:38:04.644Z</time>
      </trkpt>
      <trkpt lat="51.764111" lon="8.929782">
        <ele>230.419256</ele>
        <time>2026-08-17T10:38:05.825Z</time>
      </trkpt>
      <trkpt lat="51.764089" lon="8.929581">
        <ele>230.327766</ele>
        <time>2026-08-17T10:38:14.623Z</time>
      </trkpt>
      <trkpt lat="51.764072" lon="8.929517">
        <ele>230.296550</ele>
        <time>2026-08-17T10:38:17.601Z</time>
      </trkpt>
      <trkpt lat="51.764089" lon="8.929581">
        <ele>230.265334</ele>
        <time>2026-08-17T10:38:20.578Z</time>
      </trkpt>
      <trkpt lat="51.764111" lon="8.929782">
        <ele>230.173844</ele>
        <time>2026-08-17T10:38:29.377Z</time>
      </trkpt>
      <trkpt lat="51.764071" lon="8.929799">
        <ele>230.143890</ele>
        <time>2026-08-17T10:38:30.659Z</time>
      </trkpt>
      <trkpt lat="51.764072" lon="8.930112">
        <ele>230.142060</ele>
        <time>2026-08-17T10:38:35.787Z</time>
      </trkpt>
      <trkpt lat="51.763998" lon="8.930658">
        <ele>230.525429</ele>
        <time>2026-08-17T10:38:45.070Z</time>
      </trkpt>
      <trkpt lat="51.763987" lon="8.930765">
        <ele>230.599824</ele>
        <time>2026-08-17T10:38:46.831Z</time>
      </trkpt>
      <trkpt lat="51.763997" lon="8.931218">
        <ele>230.910729</ele>
        <time>2026-08-17T10:38:54.281Z</time>
      </trkpt>
      <trkpt lat="51.764114" lon="8.931780">
        <ele>231.317421</ele>
        <time>2026-08-17T10:39:04.271Z</time>
      </trkpt>
      <trkpt lat="51.764130" lon="8.931856">
        <ele>231.372482</ele>
        <time>2026-08-17T10:39:05.612Z</time>
      </trkpt>
      <trkpt lat="51.764207" lon="8.932193">
        <ele>231.618874</ele>
        <time>2026-08-17T10:39:11.606Z</time>
      </trkpt>
      <trkpt lat="51.764268" lon="8.932463">
        <ele>231.816016</ele>
        <time>2026-08-17T10:39:16.402Z</time>
      </trkpt>
      <trkpt lat="51.764284" lon="8.932533">
        <ele>231.867197</ele>
        <time>2026-08-17T10:39:17.646Z</time>
      </trkpt>
      <trkpt lat="51.764331" lon="8.932834">
        <ele>232.107666</ele>
        <time>2026-08-17T10:39:22.816Z</time>
      </trkpt>
      <trkpt lat="51.764323" lon="8.932984">
        <ele>232.310809</ele>
        <time>2026-08-17T10:39:25.293Z</time>
      </trkpt>
      <trkpt lat="51.764226" lon="8.933313">
        <ele>232.802523</ele>
        <time>2026-08-17T10:39:31.355Z</time>
      </trkpt>
      <trkpt lat="51.763647" lon="8.934714">
        <ele>235.075603</ele>
        <time>2026-08-17T10:40:03.215Z</time>
      </trkpt>
      <trkpt lat="51.763449" lon="8.935199">
        <ele>235.859565</ele>
        <time>2026-08-17T10:40:16.015Z</time>
      </trkpt>
      <trkpt lat="51.763386" lon="8.935477">
        <ele>236.536116</ele>
        <time>2026-08-17T10:40:22.396Z</time>
      </trkpt>
      <trkpt lat="51.763328" lon="8.935469">
        <ele>236.785938</ele>
        <time>2026-08-17T10:40:24.358Z</time>
      </trkpt>
      <trkpt lat="51.763314" lon="8.935467">
        <ele>236.846255</ele>
        <time>2026-08-17T10:40:24.853Z</time>
      </trkpt>
      <trkpt lat="51.763216" lon="8.935452">
        <ele>237.268721</ele>
        <time>2026-08-17T10:40:28.305Z</time>
      </trkpt>
      <trkpt lat="51.763159" lon="8.935454">
        <ele>237.513404</ele>
        <time>2026-08-17T10:40:30.245Z</time>
      </trkpt>
      <trkpt lat="51.763102" lon="8.935460">
        <ele>237.758547</ele>
        <time>2026-08-17T10:40:32.313Z</time>
      </trkpt>
      <trkpt lat="51.762918" lon="8.935539">
        <ele>238.575618</ele>
        <time>2026-08-17T10:40:39.189Z</time>
      </trkpt>
      <trkpt lat="51.762846" lon="8.935598">
        <ele>238.922087</ele>
        <time>2026-08-17T10:40:42.313Z</time>
      </trkpt>
      <trkpt lat="51.762817" lon="8.935627">
        <ele>239.068454</ele>
        <time>2026-08-17T10:40:43.681Z</time>
      </trkpt>
      <trkpt lat="51.762803" lon="8.935555">
        <ele>239.268916</ele>
        <time>2026-08-17T10:40:46.925Z</time>
      </trkpt>
      <trkpt lat="51.762794" lon="8.935519">
        <ele>239.372045</ele>
        <time>2026-08-17T10:40:47.928Z</time>
      </trkpt>
      <trkpt lat="51.762735" lon="8.935429">
        <ele>239.720273</ele>
        <time>2026-08-17T10:40:51.474Z</time>
      </trkpt>
      <trkpt lat="51.762732" lon="8.935336">
        <ele>239.967634</ele>
        <time>2026-08-17T10:40:54.759Z</time>
      </trkpt>
      <trkpt lat="51.762735" lon="8.935429">
        <ele>240.214996</ele>
        <time>2026-08-17T10:40:58.136Z</time>
      </trkpt>
      <trkpt lat="51.762794" lon="8.935519">
        <ele>240.563224</ele>
        <time>2026-08-17T10:41:01.692Z</time>
      </trkpt>
      <trkpt lat="51.762803" lon="8.935555">
        <ele>240.666353</ele>
        <time>2026-08-17T10:41:02.743Z</time>
      </trkpt>
      <trkpt lat="51.762817" lon="8.935627">
        <ele>240.866814</ele>
        <time>2026-08-17T10:41:05.989Z</time>
      </trkpt>
      <trkpt lat="51.762623" lon="8.935880">
        <ele>241.936768</ele>
        <time>2026-08-17T10:41:16.696Z</time>
      </trkpt>
      <trkpt lat="51.762604" lon="8.935906">
        <ele>242.043626</ele>
        <time>2026-08-17T10:41:17.815Z</time>
      </trkpt>
      <trkpt lat="51.762488" lon="8.936065">
        <ele>242.696470</ele>
        <time>2026-08-17T10:41:24.281Z</time>
      </trkpt>
      <trkpt lat="51.762407" lon="8.936160">
        <ele>243.126026</ele>
        <time>2026-08-17T10:41:28.349Z</time>
      </trkpt>
      <trkpt lat="51.762387" lon="8.936176">
        <ele>243.221805</ele>
        <time>2026-08-17T10:41:29.202Z</time>
      </trkpt>
      <trkpt lat="51.762338" lon="8.936216">
        <ele>243.457413</ele>
        <time>2026-08-17T10:41:31.355Z</time>
      </trkpt>
      <trkpt lat="51.762077" lon="8.936467">
        <ele>245.085328</ele>
        <time>2026-08-17T10:41:43.147Z</time>
      </trkpt>
      <trkpt lat="51.762003" lon="8.936588">
        <ele>245.674301</ele>
        <time>2026-08-17T10:41:47.232Z</time>
      </trkpt>
      <trkpt lat="51.761552" lon="8.937783">
        <ele>250.520434</ele>
        <time>2026-08-17T10:42:27.743Z</time>
      </trkpt>
      <trkpt lat="51.761428" lon="8.938067">
        <ele>251.723817</ele>
        <time>2026-08-17T10:42:36.903Z</time>
      </trkpt>
      <trkpt lat="51.761219" lon="8.938387">
        <ele>253.334598</ele>
        <time>2026-08-17T10:42:49.318Z</time>
      </trkpt>
      <trkpt lat="51.760987" lon="8.938678">
        <ele>255.054149</ele>
        <time>2026-08-17T10:43:03.386Z</time>
      </trkpt>
      <trkpt lat="51.760658" lon="8.939166">
        <ele>257.708837</ele>
        <time>2026-08-17T10:43:25.578Z</time>
      </trkpt>
      <trkpt lat="51.760519" lon="8.939368">
        <ele>258.820091</ele>
        <time>2026-08-17T10:43:34.856Z</time>
      </trkpt>
      <trkpt lat="51.760168" lon="8.939892">
        <ele>261.660704</ele>
        <time>2026-08-17T10:43:55.623Z</time>
      </trkpt>
      <trkpt lat="51.759794" lon="8.940658">
        <ele>265.050866</ele>
        <time>2026-08-17T10:44:22.723Z</time>
      </trkpt>
      <trkpt lat="51.759580" lon="8.940993">
        <ele>266.383739</ele>
        <time>2026-08-17T10:44:36.644Z</time>
      </trkpt>
      <trkpt lat="51.759501" lon="8.941095">
        <ele>266.836092</ele>
        <time>2026-08-17T10:44:41.107Z</time>
      </trkpt>
      <trkpt lat="51.759117" lon="8.941465">
        <ele>268.836030</ele>
        <time>2026-08-17T10:44:58.782Z</time>
      </trkpt>
      <trkpt lat="51.758673" lon="8.941686">
        <ele>270.914191</ele>
        <time>2026-08-17T10:45:16.174Z</time>
      </trkpt>
      <trkpt lat="51.758508" lon="8.941759">
        <ele>271.679420</ele>
        <time>2026-08-17T10:45:23.012Z</time>
      </trkpt>
      <trkpt lat="51.758377" lon="8.941817">
        <ele>272.286997</ele>
        <time>2026-08-17T10:45:28.398Z</time>
      </trkpt>
      <trkpt lat="51.758372" lon="8.941868">
        <ele>272.429963</ele>
        <time>2026-08-17T10:45:29.586Z</time>
      </trkpt>
      <trkpt lat="51.758319" lon="8.941888">
        <ele>272.607045</ele>
        <time>2026-08-17T10:45:31.608Z</time>
      </trkpt>
      <trkpt lat="51.758034" lon="8.941998">
        <ele>273.442322</ele>
        <time>2026-08-17T10:45:41.878Z</time>
      </trkpt>
      <trkpt lat="51.756621" lon="8.942520">
        <ele>277.574154</ele>
        <time>2026-08-17T10:46:29.088Z</time>
      </trkpt>
      <trkpt lat="51.756282" lon="8.942639">
        <ele>278.334994</ele>
        <time>2026-08-17T10:46:40.473Z</time>
      </trkpt>
      <trkpt lat="51.756156" lon="8.942745">
        <ele>278.642268</ele>
        <time>2026-08-17T10:46:45.033Z</time>
      </trkpt>
      <trkpt lat="51.756028" lon="8.942801">
        <ele>278.929101</ele>
        <time>2026-08-17T10:46:49.190Z</time>
      </trkpt>
      <trkpt lat="51.755622" lon="8.942939">
        <ele>279.826496</ele>
        <time>2026-08-17T10:47:01.845Z</time>
      </trkpt>
      <trkpt lat="51.755499" lon="8.942974">
        <ele>280.096637</ele>
        <time>2026-08-17T10:47:05.537Z</time>
      </trkpt>
      <trkpt lat="51.754488" lon="8.943263">
        <ele>283.120666</ele>
        <time>2026-08-17T10:47:35.445Z</time>
      </trkpt>
      <trkpt lat="51.754122" lon="8.943479">
        <ele>284.800000</ele>
        <time>2026-08-17T10:47:49.876Z</time>
      </trkpt>
      <trkpt lat="51.754088" lon="8.943492">
        <ele>284.950579</ele>
        <time>2026-08-17T10:47:51.344Z</time>
      </trkpt>
      <trkpt lat="51.754058" lon="8.943522">
        <ele>285.102640</ele>
        <time>2026-08-17T10:47:52.751Z</time>
      </trkpt>
      <trkpt lat="51.753840" lon="8.943533">
        <ele>286.042622</ele>
        <time>2026-08-17T10:48:02.119Z</time>
      </trkpt>
      <trkpt lat="51.753361" lon="8.943729">
        <ele>288.172188</ele>
        <time>2026-08-17T10:48:24.392Z</time>
      </trkpt>
      <trkpt lat="51.753337" lon="8.943743">
        <ele>288.282159</ele>
        <time>2026-08-17T10:48:25.588Z</time>
      </trkpt>
      <trkpt lat="51.752994" lon="8.943956">
        <ele>289.908920</ele>
        <time>2026-08-17T10:48:42.970Z</time>
      </trkpt>
      <trkpt lat="51.752756" lon="8.944248">
        <ele>291.288429</ele>
        <time>2026-08-17T10:48:57.227Z</time>
      </trkpt>
      <trkpt lat="51.751878" lon="8.945630">
        <ele>296.947005</ele>
        <time>2026-08-17T10:49:44.517Z</time>
      </trkpt>
      <trkpt lat="51.751576" lon="8.946025">
        <ele>298.595049</ele>
        <time>2026-08-17T10:49:58.907Z</time>
      </trkpt>
      <trkpt lat="51.751507" lon="8.946108">
        <ele>298.943094</ele>
        <time>2026-08-17T10:50:02.174Z</time>
      </trkpt>
      <trkpt lat="51.750951" lon="8.946564">
        <ele>301.465778</ele>
        <time>2026-08-17T10:50:26.755Z</time>
      </trkpt>
      <trkpt lat="51.750385" lon="8.946832">
        <ele>303.851944</ele>
        <time>2026-08-17T10:50:51.251Z</time>
      </trkpt>
      <trkpt lat="51.750062" lon="8.946897">
        <ele>304.926895</ele>
        <time>2026-08-17T10:51:03.406Z</time>
      </trkpt>
      <trkpt lat="51.749677" lon="8.946905">
        <ele>305.343561</ele>
        <time>2026-08-17T10:51:15.599Z</time>
      </trkpt>
      <trkpt lat="51.749444" lon="8.946847">
        <ele>305.598681</ele>
        <time>2026-08-17T10:51:22.143Z</time>
      </trkpt>
      <trkpt lat="51.749060" lon="8.946796">
        <ele>306.015632</ele>
        <time>2026-08-17T10:51:31.315Z</time>
      </trkpt>
      <trkpt lat="51.747064" lon="8.945970">
        <ele>307.731318</ele>
        <time>2026-08-17T10:52:15.094Z</time>
      </trkpt>
      <trkpt lat="51.746904" lon="8.945925">
        <ele>307.845204</ele>
        <time>2026-08-17T10:52:20.272Z</time>
      </trkpt>
      <trkpt lat="51.746584" lon="8.945905">
        <ele>308.179695</ele>
        <time>2026-08-17T10:52:31.121Z</time>
      </trkpt>
      <trkpt lat="51.745904" lon="8.945846">
        <ele>310.889724</ele>
        <time>2026-08-17T10:52:57.075Z</time>
      </trkpt>
      <trkpt lat="51.745122" lon="8.945852">
        <ele>314.001806</ele>
        <time>2026-08-17T10:53:29.675Z</time>
      </trkpt>
      <trkpt lat="51.744665" lon="8.945621">
        <ele>315.613463</ele>
        <time>2026-08-17T10:53:48.176Z</time>
      </trkpt>
      <trkpt lat="51.743634" lon="8.944931">
        <ele>318.198210</ele>
        <time>2026-08-17T10:54:25.912Z</time>
      </trkpt>
      <trkpt lat="51.743318" lon="8.944711">
        <ele>318.995188</ele>
        <time>2026-08-17T10:54:35.079Z</time>
      </trkpt>
      <trkpt lat="51.743170" lon="8.944649">
        <ele>319.349308</ele>
        <time>2026-08-17T10:54:38.482Z</time>
      </trkpt>
      <trkpt lat="51.743182" lon="8.944578">
        <ele>319.334104</ele>
        <time>2026-08-17T10:54:39.458Z</time>
      </trkpt>
      <trkpt lat="51.742460" lon="8.944370">
        <ele>318.618780</ele>
        <time>2026-08-17T10:54:54.606Z</time>
      </trkpt>
      <trkpt lat="51.742244" lon="8.944322">
        <ele>318.406118</ele>
        <time>2026-08-17T10:54:59.026Z</time>
      </trkpt>
      <trkpt lat="51.742152" lon="8.944353">
        <ele>318.314453</ele>
        <time>2026-08-17T10:55:00.773Z</time>
      </trkpt>
      <trkpt lat="51.742113" lon="8.944102">
        <ele>318.158164</ele>
        <time>2026-08-17T10:55:03.716Z</time>
      </trkpt>
      <trkpt lat="51.742058" lon="8.944029">
        <ele>318.088727</ele>
        <time>2026-08-17T10:55:05.007Z</time>
      </trkpt>
      <trkpt lat="51.741926" lon="8.943923">
        <ele>317.944942</ele>
        <time>2026-08-17T10:55:08.585Z</time>
      </trkpt>
      <trkpt lat="51.741819" lon="8.943802">
        <ele>317.817537</ele>
        <time>2026-08-17T10:55:11.758Z</time>
      </trkpt>
      <trkpt lat="51.741672" lon="8.943636">
        <ele>317.642585</ele>
        <time>2026-08-17T10:55:16.032Z</time>
      </trkpt>
      <trkpt lat="51.741476" lon="8.943496">
        <ele>317.105265</ele>
        <time>2026-08-17T10:55:21.034Z</time>
      </trkpt>
      <trkpt lat="51.741408" lon="8.943491">
        <ele>316.919125</ele>
        <time>2026-08-17T10:55:22.635Z</time>
      </trkpt>
      <trkpt lat="51.741477" lon="8.943909">
        <ele>316.186631</ele>
        <time>2026-08-17T10:55:27.219Z</time>
      </trkpt>
      <trkpt lat="51.741518" lon="8.944263">
        <ele>315.576828</ele>
        <time>2026-08-17T10:55:30.951Z</time>
      </trkpt>
      <trkpt lat="51.741528" lon="8.944571">
        <ele>315.054593</ele>
        <time>2026-08-17T10:55:34.091Z</time>
      </trkpt>
      <trkpt lat="51.741381" lon="8.944591">
        <ele>314.651194</ele>
        <time>2026-08-17T10:55:36.460Z</time>
      </trkpt>
      <trkpt lat="51.741080" lon="8.944671">
        <ele>313.817032</ele>
        <time>2026-08-17T10:55:41.259Z</time>
      </trkpt>
      <trkpt lat="51.741043" lon="8.944677">
        <ele>313.715346</ele>
        <time>2026-08-17T10:55:41.840Z</time>
      </trkpt>
      <trkpt lat="51.740772" lon="8.944600">
        <ele>312.962909</ele>
        <time>2026-08-17T10:55:46.294Z</time>
      </trkpt>
      <trkpt lat="51.740612" lon="8.944385">
        <ele>312.509982</ele>
        <time>2026-08-17T10:55:49.838Z</time>
      </trkpt>
      <trkpt lat="51.740487" lon="8.944296">
        <ele>312.279547</ele>
        <time>2026-08-17T10:55:52.294Z</time>
      </trkpt>
      <trkpt lat="51.740219" lon="8.944126">
        <ele>311.793857</ele>
        <time>2026-08-17T10:55:57.911Z</time>
      </trkpt>
      <trkpt lat="51.739941" lon="8.943932">
        <ele>311.283014</ele>
        <time>2026-08-17T10:56:04.111Z</time>
      </trkpt>
      <trkpt lat="51.739803" lon="8.943862">
        <ele>311.039020</ele>
        <time>2026-08-17T10:56:06.918Z</time>
      </trkpt>
      <trkpt lat="51.739607" lon="8.943868">
        <ele>310.708346</ele>
        <time>2026-08-17T10:56:10.583Z</time>
      </trkpt>
      <trkpt lat="51.739358" lon="8.943962">
        <ele>310.277005</ele>
        <time>2026-08-17T10:56:15.233Z</time>
      </trkpt>
      <trkpt lat="51.739319" lon="8.943981">
        <ele>310.208291</ele>
        <time>2026-08-17T10:56:15.964Z</time>
      </trkpt>
      <trkpt lat="51.739286" lon="8.943988">
        <ele>310.152148</ele>
        <time>2026-08-17T10:56:16.547Z</time>
      </trkpt>
      <trkpt lat="51.739152" lon="8.944015">
        <ele>309.924362</ele>
        <time>2026-08-17T10:56:18.910Z</time>
      </trkpt>
      <trkpt lat="51.738906" lon="8.944007">
        <ele>309.482013</ele>
        <time>2026-08-17T10:56:23.176Z</time>
      </trkpt>
      <trkpt lat="51.738656" lon="8.944005">
        <ele>308.985446</ele>
        <time>2026-08-17T10:56:27.510Z</time>
      </trkpt>
      <trkpt lat="51.738416" lon="8.944024">
        <ele>308.508176</ele>
        <time>2026-08-17T10:56:31.622Z</time>
      </trkpt>
      <trkpt lat="51.738318" lon="8.944028">
        <ele>308.313462</ele>
        <time>2026-08-17T10:56:33.281Z</time>
      </trkpt>
      <trkpt lat="51.738126" lon="8.944122">
        <ele>307.914962</ele>
        <time>2026-08-17T10:56:36.581Z</time>
      </trkpt>
      <trkpt lat="51.738016" lon="8.944156">
        <ele>307.692510</ele>
        <time>2026-08-17T10:56:38.500Z</time>
      </trkpt>
      <trkpt lat="51.737652" lon="8.944171">
        <ele>306.969282</ele>
        <time>2026-08-17T10:56:44.930Z</time>
      </trkpt>
      <trkpt lat="51.737357" lon="8.944149">
        <ele>306.382716</ele>
        <time>2026-08-17T10:56:50.674Z</time>
      </trkpt>
      <trkpt lat="51.737214" lon="8.944123">
        <ele>306.096889</ele>
        <time>2026-08-17T10:56:53.713Z</time>
      </trkpt>
      <trkpt lat="51.736736" lon="8.943799">
        <ele>305.697651</ele>
        <time>2026-08-17T10:57:05.458Z</time>
      </trkpt>
      <trkpt lat="51.736167" lon="8.943763">
        <ele>305.263348</ele>
        <time>2026-08-17T10:57:18.509Z</time>
      </trkpt>
      <trkpt lat="51.735937" lon="8.943801">
        <ele>305.087014</ele>
        <time>2026-08-17T10:57:23.410Z</time>
      </trkpt>
      <trkpt lat="51.735501" lon="8.944031">
        <ele>304.737186</ele>
        <time>2026-08-17T10:57:32.496Z</time>
      </trkpt>
      <trkpt lat="51.734490" lon="8.945072">
        <ele>303.779951</ele>
        <time>2026-08-17T10:57:54.458Z</time>
      </trkpt>
      <trkpt lat="51.734289" lon="8.945130">
        <ele>303.616797</ele>
        <time>2026-08-17T10:57:58.653Z</time>
      </trkpt>
      <trkpt lat="51.734130" lon="8.945121">
        <ele>303.489670</ele>
        <time>2026-08-17T10:58:02.397Z</time>
      </trkpt>
      <trkpt lat="51.733609" lon="8.944438">
        <ele>304.012501</ele>
        <time>2026-08-17T10:58:23.760Z</time>
      </trkpt>
      <trkpt lat="51.733301" lon="8.943537">
        <ele>305.146730</ele>
        <time>2026-08-17T10:58:46.528Z</time>
      </trkpt>
      <trkpt lat="51.733203" lon="8.943314">
        <ele>305.448091</ele>
        <time>2026-08-17T10:58:52.602Z</time>
      </trkpt>
      <trkpt lat="51.733011" lon="8.943028">
        <ele>305.912953</ele>
        <time>2026-08-17T10:59:01.489Z</time>
      </trkpt>
      <trkpt lat="51.730973" lon="8.941543">
        <ele>305.182600</ele>
        <time>2026-08-17T10:59:48.525Z</time>
      </trkpt>
      <trkpt lat="51.730792" lon="8.941464">
        <ele>304.810505</ele>
        <time>2026-08-17T10:59:52.013Z</time>
      </trkpt>
      <trkpt lat="51.729566" lon="8.941034">
        <ele>302.320719</ele>
        <time>2026-08-17T11:00:14.855Z</time>
      </trkpt>
      <trkpt lat="51.728837" lon="8.940938">
        <ele>300.375131</ele>
        <time>2026-08-17T11:00:27.870Z</time>
      </trkpt>
      <trkpt lat="51.728055" lon="8.940881">
        <ele>298.035814</ele>
        <time>2026-08-17T11:00:41.402Z</time>
      </trkpt>
      <trkpt lat="51.727493" lon="8.940879">
        <ele>296.349826</ele>
        <time>2026-08-17T11:00:50.851Z</time>
      </trkpt>
      <trkpt lat="51.726895" lon="8.940726">
        <ele>294.437752</ele>
        <time>2026-08-17T11:01:01.125Z</time>
      </trkpt>
      <trkpt lat="51.726684" lon="8.940655">
        <ele>293.757087</ele>
        <time>2026-08-17T11:01:04.823Z</time>
      </trkpt>
      <trkpt lat="51.725598" lon="8.939960">
        <ele>290.012332</ele>
        <time>2026-08-17T11:01:25.039Z</time>
      </trkpt>
      <trkpt lat="51.723789" lon="8.938615">
        <ele>283.267336</ele>
        <time>2026-08-17T11:01:58.545Z</time>
      </trkpt>
      <trkpt lat="51.723350" lon="8.938251">
        <ele>281.621355</ele>
        <time>2026-08-17T11:02:06.439Z</time>
      </trkpt>
      <trkpt lat="51.721665" lon="8.936580">
        <ele>275.550431</ele>
        <time>2026-08-17T11:02:38.846Z</time>
      </trkpt>
      <trkpt lat="51.720419" lon="8.935554">
        <ele>271.712145</ele>
        <time>2026-08-17T11:03:02.588Z</time>
      </trkpt>
      <trkpt lat="51.719845" lon="8.935182">
        <ele>270.084924</ele>
        <time>2026-08-17T11:03:12.846Z</time>
      </trkpt>
      <trkpt lat="51.719814" lon="8.935162">
        <ele>269.997098</ele>
        <time>2026-08-17T11:03:13.408Z</time>
      </trkpt>
      <trkpt lat="51.718941" lon="8.934387">
        <ele>267.955860</ele>
        <time>2026-08-17T11:03:30.253Z</time>
      </trkpt>
      <trkpt lat="51.718888" lon="8.934369">
        <ele>267.871105</ele>
        <time>2026-08-17T11:03:31.221Z</time>
      </trkpt>
      <trkpt lat="51.718869" lon="8.934267">
        <ele>267.767844</ele>
        <time>2026-08-17T11:03:32.399Z</time>
      </trkpt>
      <trkpt lat="51.718697" lon="8.934041">
        <ele>267.420780</ele>
        <time>2026-08-17T11:03:36.426Z</time>
      </trkpt>
      <trkpt lat="51.718570" lon="8.933859">
        <ele>267.155014</ele>
        <time>2026-08-17T11:03:39.544Z</time>
      </trkpt>
      <trkpt lat="51.718364" lon="8.933477">
        <ele>266.664020</ele>
        <time>2026-08-17T11:03:45.479Z</time>
      </trkpt>
      <trkpt lat="51.717968" lon="8.932491">
        <ele>265.816524</ele>
        <time>2026-08-17T11:04:00.420Z</time>
      </trkpt>
      <trkpt lat="51.717877" lon="8.932336">
        <ele>265.738632</ele>
        <time>2026-08-17T11:04:03.134Z</time>
      </trkpt>
      <trkpt lat="51.717750" lon="8.931287">
        <ele>265.348756</ele>
        <time>2026-08-17T11:04:16.872Z</time>
      </trkpt>
      <trkpt lat="51.717714" lon="8.931094">
        <ele>265.275235</ele>
        <time>2026-08-17T11:04:19.448Z</time>
      </trkpt>
      <trkpt lat="51.717612" lon="8.930922">
        <ele>265.188385</ele>
        <time>2026-08-17T11:04:22.479Z</time>
      </trkpt>
      <trkpt lat="51.717682" lon="8.930471">
        <ele>265.018792</ele>
        <time>2026-08-17T11:04:28.307Z</time>
      </trkpt>
      <trkpt lat="51.717717" lon="8.930168">
        <ele>264.889123</ele>
        <time>2026-08-17T11:04:32.079Z</time>
      </trkpt>
      <trkpt lat="51.717724" lon="8.930050">
        <ele>264.818407</ele>
        <time>2026-08-17T11:04:33.486Z</time>
      </trkpt>
      <trkpt lat="51.717728" lon="8.929667">
        <ele>264.589892</ele>
        <time>2026-08-17T11:04:38.087Z</time>
      </trkpt>
      <trkpt lat="51.717627" lon="8.929243">
        <ele>264.318899</ele>
        <time>2026-08-17T11:04:43.478Z</time>
      </trkpt>
      <trkpt lat="51.717418" lon="8.928492">
        <ele>263.827756</ele>
        <time>2026-08-17T11:04:53.225Z</time>
      </trkpt>
      <trkpt lat="51.717408" lon="8.928454">
        <ele>263.803126</ele>
        <time>2026-08-17T11:04:53.711Z</time>
      </trkpt>
      <trkpt lat="51.717331" lon="8.928139">
        <ele>263.601110</ele>
        <time>2026-08-17T11:04:57.706Z</time>
      </trkpt>
      <trkpt lat="51.717276" lon="8.927926">
        <ele>263.463447</ele>
        <time>2026-08-17T11:05:00.434Z</time>
      </trkpt>
      <trkpt lat="51.717246" lon="8.927756">
        <ele>263.357997</ele>
        <time>2026-08-17T11:05:02.513Z</time>
      </trkpt>
      <trkpt lat="51.717202" lon="8.927117">
        <ele>262.995590</ele>
        <time>2026-08-17T11:05:10.285Z</time>
      </trkpt>
      <trkpt lat="51.717194" lon="8.926868">
        <ele>262.860695</ele>
        <time>2026-08-17T11:05:13.437Z</time>
      </trkpt>
      <trkpt lat="51.717191" lon="8.926799">
        <ele>262.823273</ele>
        <time>2026-08-17T11:05:14.321Z</time>
      </trkpt>
      <trkpt lat="51.717160" lon="8.925993">
        <ele>262.386369</ele>
        <time>2026-08-17T11:05:24.559Z</time>
      </trkpt>
      <trkpt lat="51.717149" lon="8.925469">
        <ele>262.102711</ele>
        <time>2026-08-17T11:05:30.803Z</time>
      </trkpt>
      <trkpt lat="51.717170" lon="8.924582">
        <ele>261.620777</ele>
        <time>2026-08-17T11:05:41.501Z</time>
      </trkpt>
      <trkpt lat="51.717115" lon="8.924517">
        <ele>261.549223</ele>
        <time>2026-08-17T11:05:42.732Z</time>
      </trkpt>
      <trkpt lat="51.717091" lon="8.924205">
        <ele>261.344765</ele>
        <time>2026-08-17T11:05:46.431Z</time>
      </trkpt>
      <trkpt lat="51.717060" lon="8.923723">
        <ele>261.029625</ele>
        <time>2026-08-17T11:05:52.021Z</time>
      </trkpt>
      <trkpt lat="51.717052" lon="8.923571">
        <ele>260.930420</ele>
        <time>2026-08-17T11:05:53.785Z</time>
      </trkpt>
      <trkpt lat="51.717040" lon="8.923376">
        <ele>260.802983</ele>
        <time>2026-08-17T11:05:56.092Z</time>
      </trkpt>
      <trkpt lat="51.716994" lon="8.922185">
        <ele>260.026943</ele>
        <time>2026-08-17T11:06:10.251Z</time>
      </trkpt>
      <trkpt lat="51.716987" lon="8.921294">
        <ele>259.528152</ele>
        <time>2026-08-17T11:06:21.321Z</time>
      </trkpt>
      <trkpt lat="51.716834" lon="8.920670">
        <ele>259.210935</ele>
        <time>2026-08-17T11:06:29.663Z</time>
      </trkpt>
      <trkpt lat="51.716420" lon="8.918928">
        <ele>258.344225</ele>
        <time>2026-08-17T11:06:52.561Z</time>
      </trkpt>
      <trkpt lat="51.716319" lon="8.918286">
        <ele>258.145740</ele>
        <time>2026-08-17T11:07:00.536Z</time>
      </trkpt>
      <trkpt lat="51.716020" lon="8.914002">
        <ele>256.930615</ele>
        <time>2026-08-17T11:07:56.383Z</time>
      </trkpt>
      <trkpt lat="51.715916" lon="8.912383">
        <ele>256.163494</ele>
        <time>2026-08-17T11:08:17.153Z</time>
      </trkpt>
      <trkpt lat="51.715886" lon="8.911923">
        <ele>255.864660</ele>
        <time>2026-08-17T11:08:22.565Z</time>
      </trkpt>
      <trkpt lat="51.715837" lon="8.911669">
        <ele>255.692787</ele>
        <time>2026-08-17T11:08:25.653Z</time>
      </trkpt>
      <trkpt lat="51.715556" lon="8.910694">
        <ele>254.998049</ele>
        <time>2026-08-17T11:08:37.980Z</time>
      </trkpt>
      <trkpt lat="51.715278" lon="8.909640">
        <ele>254.259231</ele>
        <time>2026-08-17T11:08:51.308Z</time>
      </trkpt>
      <trkpt lat="51.715156" lon="8.909258">
        <ele>253.982164</ele>
        <time>2026-08-17T11:08:56.595Z</time>
      </trkpt>
      <trkpt lat="51.714972" lon="8.908872">
        <ele>253.668180</ele>
        <time>2026-08-17T11:09:02.836Z</time>
      </trkpt>
      <trkpt lat="51.713624" lon="8.906817">
        <ele>251.566335</ele>
        <time>2026-08-17T11:09:38.199Z</time>
      </trkpt>
      <trkpt lat="51.713024" lon="8.905911">
        <ele>250.591227</ele>
        <time>2026-08-17T11:09:53.290Z</time>
      </trkpt>
      <trkpt lat="51.710973" lon="8.902792">
        <ele>247.981099</ele>
        <time>2026-08-17T11:10:46.893Z</time>
      </trkpt>
      <trkpt lat="51.710782" lon="8.902534">
        <ele>247.834880</ele>
        <time>2026-08-17T11:10:52.298Z</time>
      </trkpt>
      <trkpt lat="51.709190" lon="8.900144">
        <ele>249.340420</ele>
        <time>2026-08-17T11:11:48.829Z</time>
      </trkpt>
      <trkpt lat="51.707951" lon="8.899230">
        <ele>250.662628</ele>
        <time>2026-08-17T11:12:25.523Z</time>
      </trkpt>
      <trkpt lat="51.706789" lon="8.898431">
        <ele>250.674097</ele>
        <time>2026-08-17T11:12:56.215Z</time>
      </trkpt>
      <trkpt lat="51.706703" lon="8.898354">
        <ele>250.636048</ele>
        <time>2026-08-17T11:12:58.268Z</time>
      </trkpt>
      <trkpt lat="51.704207" lon="8.895222">
        <ele>247.477803</ele>
        <time>2026-08-17T11:13:56.531Z</time>
      </trkpt>
      <trkpt lat="51.704022" lon="8.895051">
        <ele>247.370296</ele>
        <time>2026-08-17T11:14:01.088Z</time>
      </trkpt>
      <trkpt lat="51.703262" lon="8.894486">
        <ele>246.948352</ele>
        <time>2026-08-17T11:14:20.297Z</time>
      </trkpt>
      <trkpt lat="51.702508" lon="8.894070">
        <ele>245.922139</ele>
        <time>2026-08-17T11:14:37.421Z</time>
      </trkpt>
      <trkpt lat="51.700306" lon="8.892443">
        <ele>241.559498</ele>
        <time>2026-08-17T11:15:19.147Z</time>
      </trkpt>
      <trkpt lat="51.700180" lon="8.892417">
        <ele>241.297849</ele>
        <time>2026-08-17T11:15:21.245Z</time>
      </trkpt>
      <trkpt lat="51.700149" lon="8.892460">
        <ele>241.213642</ele>
        <time>2026-08-17T11:15:21.908Z</time>
      </trkpt>
      <trkpt lat="51.699706" lon="8.893836">
        <ele>239.932393</ele>
        <time>2026-08-17T11:15:39.790Z</time>
      </trkpt>
      <trkpt lat="51.699676" lon="8.893928">
        <ele>239.880120</ele>
        <time>2026-08-17T11:15:41.148Z</time>
      </trkpt>
      <trkpt lat="51.699379" lon="8.894816">
        <ele>239.372731</ele>
        <time>2026-08-17T11:15:54.804Z</time>
      </trkpt>
      <trkpt lat="51.695895" lon="8.890191">
        <ele>235.819874</ele>
        <time>2026-08-17T11:17:23.713Z</time>
      </trkpt>
      <trkpt lat="51.695689" lon="8.889750">
        <ele>235.632532</ele>
        <time>2026-08-17T11:17:30.556Z</time>
      </trkpt>
      <trkpt lat="51.694195" lon="8.885456">
        <ele>233.919992</ele>
        <time>2026-08-17T11:18:33.817Z</time>
      </trkpt>
      <trkpt lat="51.694040" lon="8.884955">
        <ele>233.450443</ele>
        <time>2026-08-17T11:18:40.509Z</time>
      </trkpt>
      <trkpt lat="51.693033" lon="8.881769">
        <ele>230.653772</ele>
        <time>2026-08-17T11:19:20.747Z</time>
      </trkpt>
      <trkpt lat="51.692801" lon="8.881097">
        <ele>230.112755</ele>
        <time>2026-08-17T11:19:30.143Z</time>
      </trkpt>
      <trkpt lat="51.692755" lon="8.880945">
        <ele>229.993784</ele>
        <time>2026-08-17T11:19:32.265Z</time>
      </trkpt>
      <trkpt lat="51.692727" lon="8.880755">
        <ele>229.856421</ele>
        <time>2026-08-17T11:19:34.742Z</time>
      </trkpt>
      <trkpt lat="51.692700" lon="8.880723">
        <ele>229.818406</ele>
        <time>2026-08-17T11:19:35.437Z</time>
      </trkpt>
      <trkpt lat="51.692623" lon="8.880775">
        <ele>229.723690</ele>
        <time>2026-08-17T11:19:37.158Z</time>
      </trkpt>
      <trkpt lat="51.692550" lon="8.880804">
        <ele>229.653381</ele>
        <time>2026-08-17T11:19:38.720Z</time>
      </trkpt>
      <trkpt lat="51.692491" lon="8.880776">
        <ele>229.622595</ele>
        <time>2026-08-17T11:19:40.014Z</time>
      </trkpt>
      <trkpt lat="51.692366" lon="8.880578">
        <ele>229.534899</ele>
        <time>2026-08-17T11:19:43.717Z</time>
      </trkpt>
      <trkpt lat="51.691844" lon="8.880012">
        <ele>229.220050</ele>
        <time>2026-08-17T11:19:57.002Z</time>
      </trkpt>
      <trkpt lat="51.691461" lon="8.879797">
        <ele>229.017047</ele>
        <time>2026-08-17T11:20:05.366Z</time>
      </trkpt>
      <trkpt lat="51.690967" lon="8.879520">
        <ele>228.754395</ele>
        <time>2026-08-17T11:20:15.824Z</time>
      </trkpt>
      <trkpt lat="51.690686" lon="8.879317">
        <ele>228.586665</ele>
        <time>2026-08-17T11:20:21.842Z</time>
      </trkpt>
      <trkpt lat="51.690494" lon="8.879081">
        <ele>228.455165</ele>
        <time>2026-08-17T11:20:26.588Z</time>
      </trkpt>
      <trkpt lat="51.690385" lon="8.878865">
        <ele>228.361106</ele>
        <time>2026-08-17T11:20:29.985Z</time>
      </trkpt>
      <trkpt lat="51.690342" lon="8.878750">
        <ele>228.315752</ele>
        <time>2026-08-17T11:20:31.655Z</time>
      </trkpt>
      <trkpt lat="51.690213" lon="8.878368">
        <ele>228.168847</ele>
        <time>2026-08-17T11:20:37.126Z</time>
      </trkpt>
      <trkpt lat="51.690093" lon="8.877885">
        <ele>227.993120</ele>
        <time>2026-08-17T11:20:43.903Z</time>
      </trkpt>
      <trkpt lat="51.689986" lon="8.877203">
        <ele>227.791266</ele>
        <time>2026-08-17T11:20:53.091Z</time>
      </trkpt>
      <trkpt lat="51.689926" lon="8.876454">
        <ele>227.845663</ele>
        <time>2026-08-17T11:21:03.360Z</time>
      </trkpt>
      <trkpt lat="51.689916" lon="8.876279">
        <ele>227.858321</ele>
        <time>2026-08-17T11:21:05.871Z</time>
      </trkpt>
      <trkpt lat="51.689895" lon="8.875984">
        <ele>227.879709</ele>
        <time>2026-08-17T11:21:10.149Z</time>
      </trkpt>
      <trkpt lat="51.689802" lon="8.873912">
        <ele>228.034257</ele>
        <time>2026-08-17T11:21:40.262Z</time>
      </trkpt>
      <trkpt lat="51.689777" lon="8.872249">
        <ele>228.170729</ele>
        <time>2026-08-17T11:22:03.919Z</time>
      </trkpt>
      <trkpt lat="51.689789" lon="8.871862">
        <ele>228.202518</ele>
        <time>2026-08-17T11:22:09.272Z</time>
      </trkpt>
      <trkpt lat="51.689850" lon="8.871467">
        <ele>228.243659</ele>
        <time>2026-08-17T11:22:14.814Z</time>
      </trkpt>
      <trkpt lat="51.690069" lon="8.870491">
        <ele>228.497242</ele>
        <time>2026-08-17T11:22:28.524Z</time>
      </trkpt>
      <trkpt lat="51.690106" lon="8.869775">
        <ele>228.672772</ele>
        <time>2026-08-17T11:22:38.965Z</time>
      </trkpt>
      <trkpt lat="51.690075" lon="8.869407">
        <ele>228.763503</ele>
        <time>2026-08-17T11:22:44.877Z</time>
      </trkpt>
      <trkpt lat="51.690000" lon="8.868930">
        <ele>228.883727</ele>
        <time>2026-08-17T11:22:53.295Z</time>
      </trkpt>
      <trkpt lat="51.689679" lon="8.867302">
        <ele>228.691658</ele>
        <time>2026-08-17T11:23:21.118Z</time>
      </trkpt>
      <trkpt lat="51.689528" lon="8.866788">
        <ele>228.595543</ele>
        <time>2026-08-17T11:23:28.538Z</time>
      </trkpt>
      <trkpt lat="51.689492" lon="8.866490">
        <ele>228.544239</ele>
        <time>2026-08-17T11:23:32.015Z</time>
      </trkpt>
      <trkpt lat="51.689488" lon="8.866180">
        <ele>228.491844</ele>
        <time>2026-08-17T11:23:35.364Z</time>
      </trkpt>
      <trkpt lat="51.689537" lon="8.864329">
        <ele>226.620685</ele>
        <time>2026-08-17T11:23:54.434Z</time>
      </trkpt>
      <trkpt lat="51.689657" lon="8.863392">
        <ele>225.532120</ele>
        <time>2026-08-17T11:24:05.452Z</time>
      </trkpt>
      <trkpt lat="51.689848" lon="8.862547">
        <ele>225.099358</ele>
        <time>2026-08-17T11:24:17.464Z</time>
      </trkpt>
      <trkpt lat="51.690477" lon="8.860650">
        <ele>224.907669</ele>
        <time>2026-08-17T11:24:47.988Z</time>
      </trkpt>
      <trkpt lat="51.690956" lon="8.859829">
        <ele>224.417297</ele>
        <time>2026-08-17T11:25:02.157Z</time>
      </trkpt>
      <trkpt lat="51.691005" lon="8.859792">
        <ele>224.373336</ele>
        <time>2026-08-17T11:25:03.196Z</time>
      </trkpt>
      <trkpt lat="51.693291" lon="8.856471">
        <ele>222.064559</ele>
        <time>2026-08-17T11:26:02.354Z</time>
      </trkpt>
      <trkpt lat="51.693475" lon="8.856182">
        <ele>222.501105</ele>
        <time>2026-08-17T11:26:08.167Z</time>
      </trkpt>
      <trkpt lat="51.693566" lon="8.856058">
        <ele>222.703595</ele>
        <time>2026-08-17T11:26:10.950Z</time>
      </trkpt>
      <trkpt lat="51.693624" lon="8.855975">
        <ele>222.835391</ele>
        <time>2026-08-17T11:26:12.878Z</time>
      </trkpt>
      <trkpt lat="51.693689" lon="8.855973">
        <ele>222.945906</ele>
        <time>2026-08-17T11:26:14.707Z</time>
      </trkpt>
      <trkpt lat="51.693915" lon="8.855584">
        <ele>223.507699</ele>
        <time>2026-08-17T11:26:24.939Z</time>
      </trkpt>
      <trkpt lat="51.694309" lon="8.855035">
        <ele>224.392707</ele>
        <time>2026-08-17T11:26:43.462Z</time>
      </trkpt>
      <trkpt lat="51.694356" lon="8.854977">
        <ele>224.493298</ele>
        <time>2026-08-17T11:26:45.637Z</time>
      </trkpt>
      <trkpt lat="51.694333" lon="8.854931">
        <ele>224.555572</ele>
        <time>2026-08-17T11:26:46.937Z</time>
      </trkpt>
      <trkpt lat="51.694305" lon="8.854875">
        <ele>224.631384</ele>
        <time>2026-08-17T11:26:48.440Z</time>
      </trkpt>
      <trkpt lat="51.694298" lon="8.854823">
        <ele>224.687454</ele>
        <time>2026-08-17T11:26:49.664Z</time>
      </trkpt>
      <trkpt lat="51.694298" lon="8.854664">
        <ele>224.854993</ele>
        <time>2026-08-17T11:26:53.110Z</time>
      </trkpt>
      <trkpt lat="51.694316" lon="8.854557">
        <ele>224.951270</ele>
        <time>2026-08-17T11:26:55.559Z</time>
      </trkpt>
      <trkpt lat="51.694593" lon="8.853934">
        <ele>225.406956</ele>
        <time>2026-08-17T11:27:10.649Z</time>
      </trkpt>
      <trkpt lat="51.694703" lon="8.853590">
        <ele>225.637012</ele>
        <time>2026-08-17T11:27:17.242Z</time>
      </trkpt>
      <trkpt lat="51.694881" lon="8.852844">
        <ele>226.112107</ele>
        <time>2026-08-17T11:27:30.681Z</time>
      </trkpt>
      <trkpt lat="51.694975" lon="8.852678">
        <ele>226.245739</ele>
        <time>2026-08-17T11:27:33.762Z</time>
      </trkpt>
      <trkpt lat="51.695055" lon="8.852534">
        <ele>226.360669</ele>
        <time>2026-08-17T11:27:36.217Z</time>
      </trkpt>
      <trkpt lat="51.695323" lon="8.852308">
        <ele>226.646665</ele>
        <time>2026-08-17T11:27:42.026Z</time>
      </trkpt>
      <trkpt lat="51.695298" lon="8.852190">
        <ele>226.498324</ele>
        <time>2026-08-17T11:27:43.521Z</time>
      </trkpt>
      <trkpt lat="51.695300" lon="8.852025">
        <ele>226.302009</ele>
        <time>2026-08-17T11:27:45.410Z</time>
      </trkpt>
      <trkpt lat="51.695368" lon="8.851817">
        <ele>226.022275</ele>
        <time>2026-08-17T11:27:48.051Z</time>
      </trkpt>
      <trkpt lat="51.695421" lon="8.851622">
        <ele>225.768991</ele>
        <time>2026-08-17T11:27:50.377Z</time>
      </trkpt>
      <trkpt lat="51.695459" lon="8.851075">
        <ele>225.114230</ele>
        <time>2026-08-17T11:27:56.256Z</time>
      </trkpt>
      <trkpt lat="51.695473" lon="8.850632">
        <ele>224.586572</ele>
        <time>2026-08-17T11:28:01.085Z</time>
      </trkpt>
      <trkpt lat="51.695443" lon="8.850464">
        <ele>224.378599</ele>
        <time>2026-08-17T11:28:03.058Z</time>
      </trkpt>
      <trkpt lat="51.695512" lon="8.850365">
        <ele>224.201388</ele>
        <time>2026-08-17T11:28:04.687Z</time>
      </trkpt>
      <trkpt lat="51.695544" lon="8.850020">
        <ele>223.786422</ele>
        <time>2026-08-17T11:28:08.418Z</time>
      </trkpt>
      <trkpt lat="51.695549" lon="8.848866">
        <ele>222.410831</ele>
        <time>2026-08-17T11:28:20.502Z</time>
      </trkpt>
      <trkpt lat="51.695569" lon="8.848411">
        <ele>221.866278</ele>
        <time>2026-08-17T11:28:25.304Z</time>
      </trkpt>
      <trkpt lat="51.695580" lon="8.848152">
        <ele>221.556354</ele>
        <time>2026-08-17T11:28:28.059Z</time>
      </trkpt>
      <trkpt lat="51.695607" lon="8.847713">
        <ele>221.029693</ele>
        <time>2026-08-17T11:28:32.808Z</time>
      </trkpt>
      <trkpt lat="51.695684" lon="8.847133">
        <ele>220.321574</ele>
        <time>2026-08-17T11:28:39.483Z</time>
      </trkpt>
      <trkpt lat="51.695910" lon="8.845443">
        <ele>219.562635</ele>
        <time>2026-08-17T11:29:00.578Z</time>
      </trkpt>
      <trkpt lat="51.696092" lon="8.844941">
        <ele>219.482357</ele>
        <time>2026-08-17T11:29:08.358Z</time>
      </trkpt>
      <trkpt lat="51.696433" lon="8.843927">
        <ele>219.319549</ele>
        <time>2026-08-17T11:29:25.787Z</time>
      </trkpt>
      <trkpt lat="51.696596" lon="8.843322">
        <ele>219.194640</ele>
        <time>2026-08-17T11:29:35.839Z</time>
      </trkpt>
      <trkpt lat="51.696625" lon="8.842998">
        <ele>219.132655</ele>
        <time>2026-08-17T11:29:40.727Z</time>
      </trkpt>
      <trkpt lat="51.696610" lon="8.842793">
        <ele>219.093570</ele>
        <time>2026-08-17T11:29:43.746Z</time>
      </trkpt>
      <trkpt lat="51.696559" lon="8.842541">
        <ele>219.043375</ele>
        <time>2026-08-17T11:29:47.565Z</time>
      </trkpt>
      <trkpt lat="51.695660" lon="8.839337">
        <ele>217.194447</ele>
        <time>2026-08-17T11:30:28.780Z</time>
      </trkpt>
      <trkpt lat="51.695466" lon="8.838026">
        <ele>216.494293</ele>
        <time>2026-08-17T11:30:44.389Z</time>
      </trkpt>
      <trkpt lat="51.695448" lon="8.836935">
        <ele>216.239132</ele>
        <time>2026-08-17T11:30:58.297Z</time>
      </trkpt>
      <trkpt lat="51.695601" lon="8.835145">
        <ele>215.998458</ele>
        <time>2026-08-17T11:31:24.590Z</time>
      </trkpt>
      <trkpt lat="51.695343" lon="8.833203">
        <ele>216.150473</ele>
        <time>2026-08-17T11:31:52.228Z</time>
      </trkpt>
      <trkpt lat="51.695139" lon="8.832199">
        <ele>216.183710</ele>
        <time>2026-08-17T11:32:06.879Z</time>
      </trkpt>
      <trkpt lat="51.695054" lon="8.831541">
        <ele>216.191097</ele>
        <time>2026-08-17T11:32:15.977Z</time>
      </trkpt>
      <trkpt lat="51.694891" lon="8.829561">
        <ele>216.528848</ele>
        <time>2026-08-17T11:32:43.376Z</time>
      </trkpt>
      <trkpt lat="51.694908" lon="8.829311">
        <ele>216.692254</ele>
        <time>2026-08-17T11:32:47.046Z</time>
      </trkpt>
      <trkpt lat="51.695320" lon="8.827247">
        <ele>218.078277</ele>
        <time>2026-08-17T11:33:25.105Z</time>
      </trkpt>
      <trkpt lat="51.695384" lon="8.826915">
        <ele>217.671653</ele>
        <time>2026-08-17T11:33:31.787Z</time>
      </trkpt>
      <trkpt lat="51.695391" lon="8.826879">
        <ele>217.627527</ele>
        <time>2026-08-17T11:33:32.417Z</time>
      </trkpt>
      <trkpt lat="51.695414" lon="8.826720">
        <ele>217.436577</ele>
        <time>2026-08-17T11:33:35.208Z</time>
      </trkpt>
      <trkpt lat="51.695416" lon="8.826106">
        <ele>216.718483</ele>
        <time>2026-08-17T11:33:43.616Z</time>
      </trkpt>
      <trkpt lat="51.695417" lon="8.825453">
        <ele>215.954785</ele>
        <time>2026-08-17T11:33:50.607Z</time>
      </trkpt>
      <trkpt lat="51.695765" lon="8.825346">
        <ele>215.286360</ele>
        <time>2026-08-17T11:33:56.143Z</time>
      </trkpt>
      <trkpt lat="51.696239" lon="8.825200">
        <ele>214.091452</ele>
        <time>2026-08-17T11:34:03.395Z</time>
      </trkpt>
      <trkpt lat="51.696532" lon="8.825019">
        <ele>212.978886</ele>
        <time>2026-08-17T11:34:08.035Z</time>
      </trkpt>
      <trkpt lat="51.696716" lon="8.824831">
        <ele>212.206565</ele>
        <time>2026-08-17T11:34:11.294Z</time>
      </trkpt>
      <trkpt lat="51.696903" lon="8.824536">
        <ele>211.279125</ele>
        <time>2026-08-17T11:34:15.357Z</time>
      </trkpt>
      <trkpt lat="51.696948" lon="8.824425">
        <ele>210.987601</ele>
        <time>2026-08-17T11:34:16.673Z</time>
      </trkpt>
      <trkpt lat="51.697010" lon="8.824286">
        <ele>210.611202</ele>
        <time>2026-08-17T11:34:18.398Z</time>
      </trkpt>
      <trkpt lat="51.697102" lon="8.824024">
        <ele>209.949351</ele>
        <time>2026-08-17T11:34:21.543Z</time>
      </trkpt>
      <trkpt lat="51.697144" lon="8.823850">
        <ele>209.538933</ele>
        <time>2026-08-17T11:34:23.573Z</time>
      </trkpt>
      <trkpt lat="51.697289" lon="8.823039">
        <ele>208.137704</ele>
        <time>2026-08-17T11:34:33.443Z</time>
      </trkpt>
      <trkpt lat="51.697268" lon="8.822822">
        <ele>207.998798</ele>
        <time>2026-08-17T11:34:36.193Z</time>
      </trkpt>
      <trkpt lat="51.697400" lon="8.821292">
        <ele>207.021815</ele>
        <time>2026-08-17T11:34:55.232Z</time>
      </trkpt>
      <trkpt lat="51.697653" lon="8.819515">
        <ele>205.911932</ele>
        <time>2026-08-17T11:35:16.652Z</time>
      </trkpt>
      <trkpt lat="51.697775" lon="8.818071">
        <ele>205.054832</ele>
        <time>2026-08-17T11:35:34.234Z</time>
      </trkpt>
      <trkpt lat="51.697704" lon="8.815836">
        <ele>204.023666</ele>
        <time>2026-08-17T11:36:01.710Z</time>
      </trkpt>
      <trkpt lat="51.697596" lon="8.814364">
        <ele>203.453894</ele>
        <time>2026-08-17T11:36:20.542Z</time>
      </trkpt>
      <trkpt lat="51.697482" lon="8.813535">
        <ele>203.244828</ele>
        <time>2026-08-17T11:36:31.410Z</time>
      </trkpt>
      <trkpt lat="51.697324" lon="8.812850">
        <ele>203.064878</ele>
        <time>2026-08-17T11:36:40.638Z</time>
      </trkpt>
      <trkpt lat="51.696523" lon="8.809764">
        <ele>203.684137</ele>
        <time>2026-08-17T11:37:25.333Z</time>
      </trkpt>
      <trkpt lat="51.696518" lon="8.809597">
        <ele>203.744630</ele>
        <time>2026-08-17T11:37:28.433Z</time>
      </trkpt>
      <trkpt lat="51.696638" lon="8.809226">
        <ele>204.037940</ele>
        <time>2026-08-17T11:37:36.761Z</time>
      </trkpt>
      <trkpt lat="51.696721" lon="8.808599">
        <ele>205.863763</ele>
        <time>2026-08-17T11:37:50.998Z</time>
      </trkpt>
      <trkpt lat="51.697234" lon="8.806600">
        <ele>212.025073</ele>
        <time>2026-08-17T11:38:49.907Z</time>
      </trkpt>
      <trkpt lat="51.697842" lon="8.804679">
        <ele>217.428943</ele>
        <time>2026-08-17T11:39:48.885Z</time>
      </trkpt>
      <trkpt lat="51.698068" lon="8.804273">
        <ele>218.792547</ele>
        <time>2026-08-17T11:39:59.907Z</time>
      </trkpt>
      <trkpt lat="51.697554" lon="8.801355">
        <ele>218.718579</ele>
        <time>2026-08-17T11:40:36.904Z</time>
      </trkpt>
      <trkpt lat="51.697455" lon="8.800785">
        <ele>218.880416</ele>
        <time>2026-08-17T11:40:44.496Z</time>
      </trkpt>
      <trkpt lat="51.697215" lon="8.799837">
        <ele>219.277445</ele>
        <time>2026-08-17T11:40:59.090Z</time>
      </trkpt>
      <trkpt lat="51.696776" lon="8.798277">
        <ele>220.286478</ele>
        <time>2026-08-17T11:41:27.523Z</time>
      </trkpt>
      <trkpt lat="51.696452" lon="8.797269">
        <ele>221.951537</ele>
        <time>2026-08-17T11:41:52.124Z</time>
      </trkpt>
      <trkpt lat="51.696277" lon="8.796691">
        <ele>222.894833</ele>
        <time>2026-08-17T11:42:07.382Z</time>
      </trkpt>
      <trkpt lat="51.696209" lon="8.796288">
        <ele>223.507302</ele>
        <time>2026-08-17T11:42:16.423Z</time>
      </trkpt>
      <trkpt lat="51.696198" lon="8.796076">
        <ele>223.819268</ele>
        <time>2026-08-17T11:42:20.698Z</time>
      </trkpt>
      <trkpt lat="51.696302" lon="8.796014">
        <ele>224.062923</ele>
        <time>2026-08-17T11:42:24.156Z</time>
      </trkpt>
      <trkpt lat="51.696527" lon="8.795679">
        <ele>223.203032</ele>
        <time>2026-08-17T11:42:32.705Z</time>
      </trkpt>
      <trkpt lat="51.699278" lon="8.792124">
        <ele>210.484411</ele>
        <time>2026-08-17T11:43:27.326Z</time>
      </trkpt>
      <trkpt lat="51.700678" lon="8.790307">
        <ele>203.819091</ele>
        <time>2026-08-17T11:43:55.864Z</time>
      </trkpt>
      <trkpt lat="51.703935" lon="8.786031">
        <ele>190.791853</ele>
        <time>2026-08-17T11:45:04.955Z</time>
      </trkpt>
      <trkpt lat="51.704228" lon="8.785654">
        <ele>189.610049</ele>
        <time>2026-08-17T11:45:11.099Z</time>
      </trkpt>
      <trkpt lat="51.704654" lon="8.785096">
        <ele>187.879709</ele>
        <time>2026-08-17T11:45:19.966Z</time>
      </trkpt>
      <trkpt lat="51.704701" lon="8.785024">
        <ele>187.680988</ele>
        <time>2026-08-17T11:45:21.015Z</time>
      </trkpt>
      <trkpt lat="51.705095" lon="8.784514">
        <ele>186.196261</ele>
        <time>2026-08-17T11:45:29.216Z</time>
      </trkpt>
      <trkpt lat="51.705204" lon="8.784373">
        <ele>185.785617</ele>
        <time>2026-08-17T11:45:31.447Z</time>
      </trkpt>
      <trkpt lat="51.705306" lon="8.784248">
        <ele>185.409129</ele>
        <time>2026-08-17T11:45:33.505Z</time>
      </trkpt>
      <trkpt lat="51.705427" lon="8.784087">
        <ele>184.948132</ele>
        <time>2026-08-17T11:45:36.054Z</time>
      </trkpt>
      <trkpt lat="51.705486" lon="8.784007">
        <ele>184.721605</ele>
        <time>2026-08-17T11:45:37.342Z</time>
      </trkpt>
      <trkpt lat="51.705396" lon="8.783774">
        <ele>184.221473</ele>
        <time>2026-08-17T11:45:40.136Z</time>
      </trkpt>
      <trkpt lat="51.705348" lon="8.783650">
        <ele>183.955148</ele>
        <time>2026-08-17T11:45:41.642Z</time>
      </trkpt>
      <trkpt lat="51.705145" lon="8.783142">
        <ele>182.854061</ele>
        <time>2026-08-17T11:45:48.011Z</time>
      </trkpt>
      <trkpt lat="51.705119" lon="8.783076">
        <ele>182.711599</ele>
        <time>2026-08-17T11:45:48.864Z</time>
      </trkpt>
      <trkpt lat="51.705097" lon="8.783021">
        <ele>182.592352</ele>
        <time>2026-08-17T11:45:49.588Z</time>
      </trkpt>
      <trkpt lat="51.705089" lon="8.783001">
        <ele>182.548989</ele>
        <time>2026-08-17T11:45:49.839Z</time>
      </trkpt>
      <trkpt lat="51.704970" lon="8.782603">
        <ele>181.923429</ele>
        <time>2026-08-17T11:45:54.693Z</time>
      </trkpt>
      <trkpt lat="51.704952" lon="8.782444">
        <ele>181.701609</ele>
        <time>2026-08-17T11:45:56.477Z</time>
      </trkpt>
      <trkpt lat="51.704938" lon="8.781922">
        <ele>180.984553</ele>
        <time>2026-08-17T11:46:02.122Z</time>
      </trkpt>
      <trkpt lat="51.704963" lon="8.781633">
        <ele>180.584087</ele>
        <time>2026-08-17T11:46:05.259Z</time>
      </trkpt>
      <trkpt lat="51.705072" lon="8.781229">
        <ele>179.979377</ele>
        <time>2026-08-17T11:46:10.032Z</time>
      </trkpt>
      <trkpt lat="51.705255" lon="8.780921">
        <ele>179.393793</ele>
        <time>2026-08-17T11:46:14.544Z</time>
      </trkpt>
      <trkpt lat="51.705283" lon="8.780884">
        <ele>179.313648</ele>
        <time>2026-08-17T11:46:15.145Z</time>
      </trkpt>
      <trkpt lat="51.705460" lon="8.780737">
        <ele>178.872803</ele>
        <time>2026-08-17T11:46:18.478Z</time>
      </trkpt>
      <trkpt lat="51.705558" lon="8.780705">
        <ele>178.651377</ele>
        <time>2026-08-17T11:46:20.172Z</time>
      </trkpt>
      <trkpt lat="51.705840" lon="8.780572">
        <ele>178.233944</ele>
        <time>2026-08-17T11:46:25.245Z</time>
      </trkpt>
      <trkpt lat="51.705857" lon="8.780563">
        <ele>178.213271</ele>
        <time>2026-08-17T11:46:25.548Z</time>
      </trkpt>
      <trkpt lat="51.706058" lon="8.780385">
        <ele>177.948359</ele>
        <time>2026-08-17T11:46:29.614Z</time>
      </trkpt>
      <trkpt lat="51.706200" lon="8.780183">
        <ele>177.729641</ele>
        <time>2026-08-17T11:46:33.103Z</time>
      </trkpt>
      <trkpt lat="51.706304" lon="8.779967">
        <ele>177.533789</ele>
        <time>2026-08-17T11:46:36.351Z</time>
      </trkpt>
      <trkpt lat="51.706438" lon="8.779643">
        <ele>177.254883</ele>
        <time>2026-08-17T11:46:41.273Z</time>
      </trkpt>
      <trkpt lat="51.706402" lon="8.779459">
        <ele>177.116729</ele>
        <time>2026-08-17T11:46:44.582Z</time>
      </trkpt>
      <trkpt lat="51.706392" lon="8.779420">
        <ele>177.086508</ele>
        <time>2026-08-17T11:46:45.285Z</time>
      </trkpt>
      <trkpt lat="51.706024" lon="8.778109">
        <ele>176.033625</ele>
        <time>2026-08-17T11:47:09.914Z</time>
      </trkpt>
      <trkpt lat="51.706099" lon="8.778043">
        <ele>175.928680</ele>
        <time>2026-08-17T11:47:12.197Z</time>
      </trkpt>
      <trkpt lat="51.706506" lon="8.777707">
        <ele>175.367063</ele>
        <time>2026-08-17T11:47:20.922Z</time>
      </trkpt>
      <trkpt lat="51.707383" lon="8.776904">
        <ele>174.153073</ele>
        <time>2026-08-17T11:47:38.934Z</time>
      </trkpt>
      <trkpt lat="51.707448" lon="8.776889">
        <ele>174.100017</ele>
        <time>2026-08-17T11:47:40.160Z</time>
      </trkpt>
      <trkpt lat="51.707458" lon="8.776793">
        <ele>174.051273</ele>
        <time>2026-08-17T11:47:41.700Z</time>
      </trkpt>
      <trkpt lat="51.707459" lon="8.776738">
        <ele>174.023722</ele>
        <time>2026-08-17T11:47:42.557Z</time>
      </trkpt>
      <trkpt lat="51.707422" lon="8.776675">
        <ele>173.980260</ele>
        <time>2026-08-17T11:47:43.588Z</time>
      </trkpt>
      <trkpt lat="51.707371" lon="8.776506">
        <ele>173.886138</ele>
        <time>2026-08-17T11:47:45.832Z</time>
      </trkpt>
      <trkpt lat="51.707335" lon="8.776406">
        <ele>173.828230</ele>
        <time>2026-08-17T11:47:47.255Z</time>
      </trkpt>
      <trkpt lat="51.707421" lon="8.776327">
        <ele>173.748269</ele>
        <time>2026-08-17T11:47:49.228Z</time>
      </trkpt>
      <trkpt lat="51.707485" lon="8.776268">
        <ele>173.688712</ele>
        <time>2026-08-17T11:47:50.737Z</time>
      </trkpt>
      <trkpt lat="51.707582" lon="8.776188">
        <ele>173.600690</ele>
        <time>2026-08-17T11:47:52.969Z</time>
      </trkpt>
      <trkpt lat="51.707605" lon="8.776112">
        <ele>173.558340</ele>
        <time>2026-08-17T11:47:54.073Z</time>
      </trkpt>
      <trkpt lat="51.707627" lon="8.776001">
        <ele>173.499987</ele>
        <time>2026-08-17T11:47:55.596Z</time>
      </trkpt>
      <trkpt lat="51.707441" lon="8.775902">
        <ele>173.341729</ele>
        <time>2026-08-17T11:47:59.925Z</time>
      </trkpt>
      <trkpt lat="51.707228" lon="8.775388">
        <ele>173.032114</ele>
        <time>2026-08-17T11:48:08.349Z</time>
      </trkpt>
      <trkpt lat="51.707102" lon="8.775019">
        <ele>172.821154</ele>
        <time>2026-08-17T11:48:13.444Z</time>
      </trkpt>
      <trkpt lat="51.706804" lon="8.774145">
        <ele>172.243952</ele>
        <time>2026-08-17T11:48:24.924Z</time>
      </trkpt>
      <trkpt lat="51.706617" lon="8.773629">
        <ele>171.889990</ele>
        <time>2026-08-17T11:48:34.115Z</time>
      </trkpt>
      <trkpt lat="51.706498" lon="8.772966">
        <ele>171.481259</ele>
        <time>2026-08-17T11:48:45.071Z</time>
      </trkpt>
      <trkpt lat="51.706398" lon="8.772557">
        <ele>171.220900</ele>
        <time>2026-08-17T11:48:52.291Z</time>
      </trkpt>
      <trkpt lat="51.706103" lon="8.771835">
        <ele>171.330459</ele>
        <time>2026-08-17T11:49:07.800Z</time>
      </trkpt>
      <trkpt lat="51.705944" lon="8.771492">
        <ele>171.570013</ele>
        <time>2026-08-17T11:49:16.398Z</time>
      </trkpt>
      <trkpt lat="51.705814" lon="8.771113">
        <ele>171.812272</ele>
        <time>2026-08-17T11:49:25.531Z</time>
      </trkpt>
      <trkpt lat="51.705655" lon="8.770652">
        <ele>172.107330</ele>
        <time>2026-08-17T11:49:37.058Z</time>
      </trkpt>
      <trkpt lat="51.705620" lon="8.770629">
        <ele>172.141435</ele>
        <time>2026-08-17T11:49:38.131Z</time>
      </trkpt>
      <trkpt lat="51.705586" lon="8.770600">
        <ele>172.176142</ele>
        <time>2026-08-17T11:49:39.195Z</time>
      </trkpt>
      <trkpt lat="51.705564" lon="8.770542">
        <ele>172.214172</ele>
        <time>2026-08-17T11:49:40.664Z</time>
      </trkpt>
      <trkpt lat="51.705555" lon="8.770496">
        <ele>172.241150</ele>
        <time>2026-08-17T11:49:41.719Z</time>
      </trkpt>
      <trkpt lat="51.705513" lon="8.770361">
        <ele>172.325630</ele>
        <time>2026-08-17T11:49:44.329Z</time>
      </trkpt>
      <trkpt lat="51.705496" lon="8.770290">
        <ele>172.368198</ele>
        <time>2026-08-17T11:49:45.640Z</time>
      </trkpt>
      <trkpt lat="51.705489" lon="8.770265">
        <ele>172.383541</ele>
        <time>2026-08-17T11:49:46.233Z</time>
      </trkpt>
      <trkpt lat="51.705438" lon="8.770198">
        <ele>172.442890</ele>
        <time>2026-08-17T11:49:48.542Z</time>
      </trkpt>
      <trkpt lat="51.705393" lon="8.770097">
        <ele>172.512459</ele>
        <time>2026-08-17T11:49:51.181Z</time>
      </trkpt>
      <trkpt lat="51.704158" lon="8.766598">
        <ele>175.679661</ele>
        <time>2026-08-17T11:51:01.498Z</time>
      </trkpt>
      <trkpt lat="51.704031" lon="8.766224">
        <ele>175.866774</ele>
        <time>2026-08-17T11:51:10.839Z</time>
      </trkpt>
      <trkpt lat="51.704022" lon="8.766067">
        <ele>175.935953</ele>
        <time>2026-08-17T11:51:14.127Z</time>
      </trkpt>
      <trkpt lat="51.703983" lon="8.765988">
        <ele>175.980268</ele>
        <time>2026-08-17T11:51:15.779Z</time>
      </trkpt>
      <trkpt lat="51.703910" lon="8.766012">
        <ele>176.033012</ele>
        <time>2026-08-17T11:51:17.697Z</time>
      </trkpt>
      <trkpt lat="51.703849" lon="8.765827">
        <ele>176.124956</ele>
        <time>2026-08-17T11:51:20.976Z</time>
      </trkpt>
      <trkpt lat="51.703809" lon="8.765643">
        <ele>176.210511</ele>
        <time>2026-08-17T11:51:23.858Z</time>
      </trkpt>
      <trkpt lat="51.703803" lon="8.765159">
        <ele>176.422911</ele>
        <time>2026-08-17T11:51:30.609Z</time>
      </trkpt>
      <trkpt lat="51.703717" lon="8.764910">
        <ele>176.547983</ele>
        <time>2026-08-17T11:51:34.360Z</time>
      </trkpt>
      <trkpt lat="51.703947" lon="8.764738">
        <ele>176.231006</ele>
        <time>2026-08-17T11:51:39.353Z</time>
      </trkpt>
      <trkpt lat="51.703955" lon="8.764645">
        <ele>176.143119</ele>
        <time>2026-08-17T11:51:40.470Z</time>
      </trkpt>
      <trkpt lat="51.704206" lon="8.764350">
        <ele>175.674103</ele>
        <time>2026-08-17T11:51:46.019Z</time>
      </trkpt>
      <trkpt lat="51.704543" lon="8.763666">
        <ele>174.856175</ele>
        <time>2026-08-17T11:51:55.405Z</time>
      </trkpt>
      <trkpt lat="51.704956" lon="8.763183">
        <ele>174.085771</ele>
        <time>2026-08-17T11:52:04.498Z</time>
      </trkpt>
      <trkpt lat="51.705003" lon="8.763126">
        <ele>173.996968</ele>
        <time>2026-08-17T11:52:05.578Z</time>
      </trkpt>
      <trkpt lat="51.704951" lon="8.763013">
        <ele>173.865225</ele>
        <time>2026-08-17T11:52:07.176Z</time>
      </trkpt>
      <trkpt lat="51.704763" lon="8.762571">
        <ele>173.468071</ele>
        <time>2026-08-17T11:52:13.379Z</time>
      </trkpt>
      <trkpt lat="51.704593" lon="8.762122">
        <ele>173.080980</ele>
        <time>2026-08-17T11:52:19.761Z</time>
      </trkpt>
      <trkpt lat="51.704506" lon="8.761881">
        <ele>172.875792</ele>
        <time>2026-08-17T11:52:23.298Z</time>
      </trkpt>
      <trkpt lat="51.704444" lon="8.761682">
        <ele>172.711931</ele>
        <time>2026-08-17T11:52:26.183Z</time>
      </trkpt>
      <trkpt lat="51.704272" lon="8.760987">
        <ele>172.161366</ele>
        <time>2026-08-17T11:52:35.572Z</time>
      </trkpt>
      <trkpt lat="51.704248" lon="8.760783">
        <ele>172.008605</ele>
        <time>2026-08-17T11:52:37.982Z</time>
      </trkpt>
      <trkpt lat="51.704283" lon="8.760556">
        <ele>171.836513</ele>
        <time>2026-08-17T11:52:40.622Z</time>
      </trkpt>
      <trkpt lat="51.704331" lon="8.760426">
        <ele>171.725185</ele>
        <time>2026-08-17T11:52:42.287Z</time>
      </trkpt>
      <trkpt lat="51.704405" lon="8.760344">
        <ele>171.447745</ele>
        <time>2026-08-17T11:52:43.852Z</time>
      </trkpt>
      <trkpt lat="51.704852" lon="8.760025">
        <ele>169.860790</ele>
        <time>2026-08-17T11:52:52.269Z</time>
      </trkpt>
      <trkpt lat="51.705658" lon="8.759428">
        <ele>166.981285</ele>
        <time>2026-08-17T11:53:06.329Z</time>
      </trkpt>
      <trkpt lat="51.705835" lon="8.759284">
        <ele>166.337681</ele>
        <time>2026-08-17T11:53:09.446Z</time>
      </trkpt>
      <trkpt lat="51.706236" lon="8.759000">
        <ele>164.546413</ele>
        <time>2026-08-17T11:53:16.253Z</time>
      </trkpt>
      <trkpt lat="51.706431" lon="8.758865">
        <ele>163.592735</ele>
        <time>2026-08-17T11:53:19.489Z</time>
      </trkpt>
      <trkpt lat="51.706449" lon="8.758852">
        <ele>163.504101</ele>
        <time>2026-08-17T11:53:19.790Z</time>
      </trkpt>
      <trkpt lat="51.706480" lon="8.758830">
        <ele>163.351893</ele>
        <time>2026-08-17T11:53:20.311Z</time>
      </trkpt>
      <trkpt lat="51.706684" lon="8.758688">
        <ele>162.353352</ele>
        <time>2026-08-17T11:53:23.706Z</time>
      </trkpt>
      <trkpt lat="51.706695" lon="8.758681">
        <ele>162.300208</ele>
        <time>2026-08-17T11:53:23.895Z</time>
      </trkpt>
      <trkpt lat="51.706983" lon="8.758460">
        <ele>160.866896</ele>
        <time>2026-08-17T11:53:28.740Z</time>
      </trkpt>
      <trkpt lat="51.707049" lon="8.758409">
        <ele>160.538004</ele>
        <time>2026-08-17T11:53:29.846Z</time>
      </trkpt>
      <trkpt lat="51.707151" lon="8.758330">
        <ele>160.029498</ele>
        <time>2026-08-17T11:53:31.582Z</time>
      </trkpt>
      <trkpt lat="51.707204" lon="8.758294">
        <ele>159.771048</ele>
        <time>2026-08-17T11:53:32.455Z</time>
      </trkpt>
      <trkpt lat="51.707250" lon="8.758262">
        <ele>159.545909</ele>
        <time>2026-08-17T11:53:33.231Z</time>
      </trkpt>
      <trkpt lat="51.707324" lon="8.758212">
        <ele>159.185339</ele>
        <time>2026-08-17T11:53:34.456Z</time>
      </trkpt>
      <trkpt lat="51.707418" lon="8.758148">
        <ele>158.726793</ele>
        <time>2026-08-17T11:53:36.038Z</time>
      </trkpt>
      <trkpt lat="51.707485" lon="8.758102">
        <ele>158.399541</ele>
        <time>2026-08-17T11:53:37.168Z</time>
      </trkpt>
      <trkpt lat="51.707532" lon="8.758067">
        <ele>158.166893</ele>
        <time>2026-08-17T11:53:37.969Z</time>
      </trkpt>
      <trkpt lat="51.707774" lon="8.757890">
        <ele>157.156987</ele>
        <time>2026-08-17T11:53:42.112Z</time>
      </trkpt>
      <trkpt lat="51.707989" lon="8.757728">
        <ele>156.330052</ele>
        <time>2026-08-17T11:53:45.778Z</time>
      </trkpt>
      <trkpt lat="51.708140" lon="8.757624">
        <ele>155.757888</ele>
        <time>2026-08-17T11:53:48.282Z</time>
      </trkpt>
      <trkpt lat="51.708262" lon="8.757539">
        <ele>155.294780</ele>
        <time>2026-08-17T11:53:50.312Z</time>
      </trkpt>
      <trkpt lat="51.708282" lon="8.757525">
        <ele>155.218805</ele>
        <time>2026-08-17T11:53:50.643Z</time>
      </trkpt>
      <trkpt lat="51.708492" lon="8.757377">
        <ele>154.420201</ele>
        <time>2026-08-17T11:53:54.262Z</time>
      </trkpt>
      <trkpt lat="51.708719" lon="8.757216">
        <ele>153.556065</ele>
        <time>2026-08-17T11:53:58.257Z</time>
      </trkpt>
      <trkpt lat="51.708787" lon="8.757152">
        <ele>153.281724</ele>
        <time>2026-08-17T11:53:59.546Z</time>
      </trkpt>
      <trkpt lat="51.709249" lon="8.756803">
        <ele>151.518142</ele>
        <time>2026-08-17T11:54:08.322Z</time>
      </trkpt>
      <trkpt lat="51.709223" lon="8.756712">
        <ele>151.449013</ele>
        <time>2026-08-17T11:54:09.455Z</time>
      </trkpt>
      <trkpt lat="51.708957" lon="8.755907">
        <ele>150.819646</ele>
        <time>2026-08-17T11:54:19.731Z</time>
      </trkpt>
      <trkpt lat="51.708857" lon="8.755611">
        <ele>150.587068</ele>
        <time>2026-08-17T11:54:23.552Z</time>
      </trkpt>
      <trkpt lat="51.708660" lon="8.755025">
        <ele>150.127143</ele>
        <time>2026-08-17T11:54:31.893Z</time>
      </trkpt>
      <trkpt lat="51.708393" lon="8.754236">
        <ele>149.514580</ele>
        <time>2026-08-17T11:54:43.584Z</time>
      </trkpt>
      <trkpt lat="51.708362" lon="8.754144">
        <ele>149.478105</ele>
        <time>2026-08-17T11:54:44.936Z</time>
      </trkpt>
      <trkpt lat="51.708327" lon="8.754043">
        <ele>149.437800</ele>
        <time>2026-08-17T11:54:46.400Z</time>
      </trkpt>
      <trkpt lat="51.708182" lon="8.753637">
        <ele>149.274585</ele>
        <time>2026-08-17T11:54:52.327Z</time>
      </trkpt>
      <trkpt lat="51.707710" lon="8.752260">
        <ele>148.726488</ele>
        <time>2026-08-17T11:55:12.399Z</time>
      </trkpt>
      <trkpt lat="51.707693" lon="8.752203">
        <ele>148.704455</ele>
        <time>2026-08-17T11:55:13.232Z</time>
      </trkpt>
      <trkpt lat="51.707678" lon="8.752153">
        <ele>148.685106</ele>
        <time>2026-08-17T11:55:13.944Z</time>
      </trkpt>
      <trkpt lat="51.707261" lon="8.750915">
        <ele>147.671191</ele>
        <time>2026-08-17T11:55:31.205Z</time>
      </trkpt>
      <trkpt lat="51.707087" lon="8.750358">
        <ele>147.095455</ele>
        <time>2026-08-17T11:55:38.266Z</time>
      </trkpt>
      <trkpt lat="51.707062" lon="8.750119">
        <ele>146.871739</ele>
        <time>2026-08-17T11:55:40.950Z</time>
      </trkpt>
      <trkpt lat="51.707293" lon="8.748390">
        <ele>144.853223</ele>
        <time>2026-08-17T11:56:00.156Z</time>
      </trkpt>
      <trkpt lat="51.707308" lon="8.748281">
        <ele>144.683101</ele>
        <time>2026-08-17T11:56:01.366Z</time>
      </trkpt>
      <trkpt lat="51.707312" lon="8.748252">
        <ele>144.637835</ele>
        <time>2026-08-17T11:56:01.677Z</time>
      </trkpt>
      <trkpt lat="51.707388" lon="8.747758">
        <ele>143.862314</ele>
        <time>2026-08-17T11:56:07.181Z</time>
      </trkpt>
      <trkpt lat="51.707430" lon="8.747434">
        <ele>143.357974</ele>
        <time>2026-08-17T11:56:10.696Z</time>
      </trkpt>
      <trkpt lat="51.707437" lon="8.747374">
        <ele>143.264950</ele>
        <time>2026-08-17T11:56:11.342Z</time>
      </trkpt>
      <trkpt lat="51.707483" lon="8.747077">
        <ele>142.798514</ele>
        <time>2026-08-17T11:56:14.572Z</time>
      </trkpt>
      <trkpt lat="51.707516" lon="8.746857">
        <ele>142.453636</ele>
        <time>2026-08-17T11:56:16.940Z</time>
      </trkpt>
      <trkpt lat="51.707520" lon="8.746831">
        <ele>142.412820</ele>
        <time>2026-08-17T11:56:17.224Z</time>
      </trkpt>
      <trkpt lat="51.707599" lon="8.746312">
        <ele>141.598554</ele>
        <time>2026-08-17T11:56:22.756Z</time>
      </trkpt>
      <trkpt lat="51.707623" lon="8.746129">
        <ele>141.260675</ele>
        <time>2026-08-17T11:56:24.668Z</time>
      </trkpt>
      <trkpt lat="51.707651" lon="8.745914">
        <ele>140.742363</ele>
        <time>2026-08-17T11:56:26.890Z</time>
      </trkpt>
      <trkpt lat="51.707685" lon="8.745668">
        <ele>140.147736</ele>
        <time>2026-08-17T11:56:29.404Z</time>
      </trkpt>
      <trkpt lat="51.707790" lon="8.745007">
        <ele>138.537877</ele>
        <time>2026-08-17T11:56:36.096Z</time>
      </trkpt>
      <trkpt lat="51.708093" lon="8.743807">
        <ele>135.480834</ele>
        <time>2026-08-17T11:56:48.558Z</time>
      </trkpt>
      <trkpt lat="51.708318" lon="8.743109">
        <ele>133.742453</ele>
        <time>2026-08-17T11:56:56.186Z</time>
      </trkpt>
      <trkpt lat="51.708532" lon="8.742541">
        <ele>132.371257</ele>
        <time>2026-08-17T11:57:02.726Z</time>
      </trkpt>
      <trkpt lat="51.708697" lon="8.742182">
        <ele>131.449280</ele>
        <time>2026-08-17T11:57:07.182Z</time>
      </trkpt>
      <trkpt lat="51.708723" lon="8.742128">
        <ele>131.308221</ele>
        <time>2026-08-17T11:57:07.870Z</time>
      </trkpt>
      <trkpt lat="51.708907" lon="8.741763">
        <ele>130.337655</ele>
        <time>2026-08-17T11:57:12.592Z</time>
      </trkpt>
      <trkpt lat="51.710680" lon="8.740553">
        <ele>125.413269</ele>
        <time>2026-08-17T11:57:45.226Z</time>
      </trkpt>
      <trkpt lat="51.710536" lon="8.740002">
        <ele>124.573750</ele>
        <time>2026-08-17T11:57:51.989Z</time>
      </trkpt>
      <trkpt lat="51.710522" lon="8.739948">
        <ele>124.494270</ele>
        <time>2026-08-17T11:57:52.653Z</time>
      </trkpt>
      <trkpt lat="51.710426" lon="8.739581">
        <ele>124.117923</ele>
        <time>2026-08-17T11:57:57.202Z</time>
      </trkpt>
      <trkpt lat="51.710355" lon="8.739307">
        <ele>123.837341</ele>
        <time>2026-08-17T11:58:00.653Z</time>
      </trkpt>
      <trkpt lat="51.710329" lon="8.739206">
        <ele>123.734015</ele>
        <time>2026-08-17T11:58:01.931Z</time>
      </trkpt>
      <trkpt lat="51.710023" lon="8.738028">
        <ele>122.527271</ele>
        <time>2026-08-17T11:58:16.819Z</time>
      </trkpt>
      <trkpt lat="51.709735" lon="8.736921">
        <ele>121.471991</ele>
        <time>2026-08-17T11:58:29.981Z</time>
      </trkpt>
      <trkpt lat="51.709722" lon="8.736872">
        <ele>121.432547</ele>
        <time>2026-08-17T11:58:30.555Z</time>
      </trkpt>
      <trkpt lat="51.709661" lon="8.736640">
        <ele>121.246053</ele>
        <time>2026-08-17T11:58:33.356Z</time>
      </trkpt>
      <trkpt lat="51.709829" lon="8.736523">
        <ele>121.027540</ele>
        <time>2026-08-17T11:58:36.697Z</time>
      </trkpt>
      <trkpt lat="51.710145" lon="8.736304">
        <ele>120.616841</ele>
        <time>2026-08-17T11:58:43.091Z</time>
      </trkpt>
      <trkpt lat="51.710137" lon="8.736238">
        <ele>120.567076</ele>
        <time>2026-08-17T11:58:43.884Z</time>
      </trkpt>
      <trkpt lat="51.710127" lon="8.736065">
        <ele>120.438502</ele>
        <time>2026-08-17T11:58:45.911Z</time>
      </trkpt>
      <trkpt lat="51.710126" lon="8.735923">
        <ele>120.333417</ele>
        <time>2026-08-17T11:58:47.579Z</time>
      </trkpt>
      <trkpt lat="51.710121" lon="8.735297">
        <ele>119.870147</ele>
        <time>2026-08-17T11:58:54.996Z</time>
      </trkpt>
      <trkpt lat="51.710120" lon="8.735070">
        <ele>119.702166</ele>
        <time>2026-08-17T11:58:57.873Z</time>
      </trkpt>
      <trkpt lat="51.710116" lon="8.734616">
        <ele>119.618448</ele>
        <time>2026-08-17T11:59:03.959Z</time>
      </trkpt>
      <trkpt lat="51.710117" lon="8.734387">
        <ele>119.624669</ele>
        <time>2026-08-17T11:59:07.186Z</time>
      </trkpt>
      <trkpt lat="51.710112" lon="8.733789">
        <ele>119.640918</ele>
        <time>2026-08-17T11:59:15.817Z</time>
      </trkpt>
      <trkpt lat="51.710094" lon="8.733606">
        <ele>119.645952</ele>
        <time>2026-08-17T11:59:18.594Z</time>
      </trkpt>
      <trkpt lat="51.710045" lon="8.733414">
        <ele>119.651593</ele>
        <time>2026-08-17T11:59:21.724Z</time>
      </trkpt>
      <trkpt lat="51.710079" lon="8.733318">
        <ele>119.654597</ele>
        <time>2026-08-17T11:59:23.317Z</time>
      </trkpt>
      <trkpt lat="51.710046" lon="8.733221">
        <ele>119.657604</ele>
        <time>2026-08-17T11:59:24.972Z</time>
      </trkpt>
      <trkpt lat="51.710087" lon="8.733050">
        <ele>119.662585</ele>
        <time>2026-08-17T11:59:27.633Z</time>
      </trkpt>
      <trkpt lat="51.710085" lon="8.732921">
        <ele>119.666091</ele>
        <time>2026-08-17T11:59:29.515Z</time>
      </trkpt>
      <trkpt lat="51.710080" lon="8.732689">
        <ele>119.672398</ele>
        <time>2026-08-17T11:59:32.846Z</time>
      </trkpt>
      <trkpt lat="51.710078" lon="8.732607">
        <ele>119.674628</ele>
        <time>2026-08-17T11:59:33.974Z</time>
      </trkpt>
      <trkpt lat="51.710053" lon="8.731683">
        <ele>119.653080</ele>
        <time>2026-08-17T11:59:46.500Z</time>
      </trkpt>
      <trkpt lat="51.710003" lon="8.731087">
        <ele>119.602394</ele>
        <time>2026-08-17T11:59:54.406Z</time>
      </trkpt>
      <trkpt lat="51.709938" lon="8.730736">
        <ele>119.571522</ele>
        <time>2026-08-17T11:59:59.247Z</time>
      </trkpt>
      <trkpt lat="51.709768" lon="8.730062">
        <ele>119.510196</ele>
        <time>2026-08-17T12:00:09.024Z</time>
      </trkpt>
      <trkpt lat="51.709420" lon="8.728804">
        <ele>119.323761</ele>
        <time>2026-08-17T12:00:27.667Z</time>
      </trkpt>
      <trkpt lat="51.709174" lon="8.727921">
        <ele>119.126617</ele>
        <time>2026-08-17T12:00:40.752Z</time>
      </trkpt>
      <trkpt lat="51.709140" lon="8.727722">
        <ele>119.084582</ele>
        <time>2026-08-17T12:00:43.343Z</time>
      </trkpt>
      <trkpt lat="51.709230" lon="8.727034">
        <ele>118.941395</ele>
        <time>2026-08-17T12:00:52.188Z</time>
      </trkpt>
      <trkpt lat="51.709371" lon="8.726177">
        <ele>118.723979</ele>
        <time>2026-08-17T12:01:03.297Z</time>
      </trkpt>
      <trkpt lat="51.709407" lon="8.725872">
        <ele>118.635383</ele>
        <time>2026-08-17T12:01:07.204Z</time>
      </trkpt>
      <trkpt lat="51.709434" lon="8.725521">
        <ele>118.534457</ele>
        <time>2026-08-17T12:01:11.730Z</time>
      </trkpt>
      <trkpt lat="51.709408" lon="8.725353">
        <ele>118.485046</ele>
        <time>2026-08-17T12:01:13.927Z</time>
      </trkpt>
      <trkpt lat="51.709494" lon="8.725233">
        <ele>118.432692</ele>
        <time>2026-08-17T12:01:16.235Z</time>
      </trkpt>
      <trkpt lat="51.709694" lon="8.724481">
        <ele>118.199181</ele>
        <time>2026-08-17T12:01:26.881Z</time>
      </trkpt>
      <trkpt lat="51.709620" lon="8.724059">
        <ele>118.074035</ele>
        <time>2026-08-17T12:01:32.806Z</time>
      </trkpt>
      <trkpt lat="51.709345" lon="8.722853">
        <ele>117.890091</ele>
        <time>2026-08-17T12:01:49.311Z</time>
      </trkpt>
      <trkpt lat="51.709227" lon="8.722345">
        <ele>117.824511</ele>
        <time>2026-08-17T12:01:56.404Z</time>
      </trkpt>
      <trkpt lat="51.709164" lon="8.722075">
        <ele>117.789636</ele>
        <time>2026-08-17T12:02:00.229Z</time>
      </trkpt>
      <trkpt lat="51.709142" lon="8.721979">
        <ele>117.777264</ele>
        <time>2026-08-17T12:02:01.580Z</time>
      </trkpt>
      <trkpt lat="51.709051" lon="8.721558">
        <ele>117.723366</ele>
        <time>2026-08-17T12:02:07.603Z</time>
      </trkpt>
      <trkpt lat="51.708926" lon="8.721020">
        <ele>117.672849</ele>
        <time>2026-08-17T12:02:15.783Z</time>
      </trkpt>
      <trkpt lat="51.708875" lon="8.720797">
        <ele>117.671852</ele>
        <time>2026-08-17T12:02:19.207Z</time>
      </trkpt>
      <trkpt lat="51.708866" lon="8.720746">
        <ele>117.671630</ele>
        <time>2026-08-17T12:02:19.968Z</time>
      </trkpt>
      <trkpt lat="51.708843" lon="8.720632">
        <ele>117.671127</ele>
        <time>2026-08-17T12:02:21.688Z</time>
      </trkpt>
      <trkpt lat="51.708833" lon="8.720580">
        <ele>117.670898</ele>
        <time>2026-08-17T12:02:22.470Z</time>
      </trkpt>
      <trkpt lat="51.708809" lon="8.720495">
        <ele>117.670507</ele>
        <time>2026-08-17T12:02:23.801Z</time>
      </trkpt>
      <trkpt lat="51.708977" lon="8.720363">
        <ele>117.669242</ele>
        <time>2026-08-17T12:02:29.408Z</time>
      </trkpt>
      <trkpt lat="51.709082" lon="8.720343">
        <ele>117.668526</ele>
        <time>2026-08-17T12:02:32.560Z</time>
      </trkpt>
      <trkpt lat="51.709075" lon="8.720261">
        <ele>117.668179</ele>
        <time>2026-08-17T12:02:33.728Z</time>
      </trkpt>
      <trkpt lat="51.709072" lon="8.720224">
        <ele>117.668022</ele>
        <time>2026-08-17T12:02:34.263Z</time>
      </trkpt>
      <trkpt lat="51.709153" lon="8.720182">
        <ele>117.667446</ele>
        <time>2026-08-17T12:02:36.217Z</time>
      </trkpt>
      <trkpt lat="51.709166" lon="8.720162">
        <ele>117.667325</ele>
        <time>2026-08-17T12:02:36.639Z</time>
      </trkpt>
      <trkpt lat="51.709273" lon="8.720043">
        <ele>117.666445</ele>
        <time>2026-08-17T12:02:39.603Z</time>
      </trkpt>
      <trkpt lat="51.709338" lon="8.719970">
        <ele>117.665909</ele>
        <time>2026-08-17T12:02:41.404Z</time>
      </trkpt>
      <trkpt lat="51.709275" lon="8.719913">
        <ele>117.665420</ele>
        <time>2026-08-17T12:02:43.055Z</time>
      </trkpt>
      <trkpt lat="51.709137" lon="8.719799">
        <ele>117.664370</ele>
        <time>2026-08-17T12:02:46.492Z</time>
      </trkpt>
      <trkpt lat="51.709102" lon="8.719767">
        <ele>117.664098</ele>
        <time>2026-08-17T12:02:47.375Z</time>
      </trkpt>
      <trkpt lat="51.709091" lon="8.719692">
        <ele>117.663775</ele>
        <time>2026-08-17T12:02:48.410Z</time>
      </trkpt>
      <trkpt lat="51.709089" lon="8.719635">
        <ele>117.663535</ele>
        <time>2026-08-17T12:02:49.179Z</time>
      </trkpt>
      <trkpt lat="51.709046" lon="8.719501">
        <ele>117.662902</ele>
        <time>2026-08-17T12:02:51.187Z</time>
      </trkpt>
      <trkpt lat="51.708772" lon="8.719057">
        <ele>117.494546</ele>
        <time>2026-08-17T12:02:59.497Z</time>
      </trkpt>
      <trkpt lat="51.708668" lon="8.718841">
        <ele>117.317371</ele>
        <time>2026-08-17T12:03:03.008Z</time>
      </trkpt>
      <trkpt lat="51.708554" lon="8.718460">
        <ele>117.043329</ele>
        <time>2026-08-17T12:03:08.278Z</time>
      </trkpt>
      <trkpt lat="51.708352" lon="8.717529">
        <ele>116.404409</ele>
        <time>2026-08-17T12:03:20.083Z</time>
      </trkpt>
      <trkpt lat="51.708413" lon="8.717374">
        <ele>116.285477</ele>
        <time>2026-08-17T12:03:22.179Z</time>
      </trkpt>
      <trkpt lat="51.708673" lon="8.717086">
        <ele>115.955846</ele>
        <time>2026-08-17T12:03:27.829Z</time>
      </trkpt>
      <trkpt lat="51.708827" lon="8.716761">
        <ele>115.668974</ele>
        <time>2026-08-17T12:03:32.339Z</time>
      </trkpt>
      <trkpt lat="51.708920" lon="8.716302">
        <ele>115.280538</ele>
        <time>2026-08-17T12:03:37.621Z</time>
      </trkpt>
      <trkpt lat="51.708914" lon="8.716132">
        <ele>115.143576</ele>
        <time>2026-08-17T12:03:39.506Z</time>
      </trkpt>
      <trkpt lat="51.708902" lon="8.715842">
        <ele>114.909792</ele>
        <time>2026-08-17T12:03:42.694Z</time>
      </trkpt>
      <trkpt lat="51.708771" lon="8.715391">
        <ele>114.509149</ele>
        <time>2026-08-17T12:03:48.257Z</time>
      </trkpt>
      <trkpt lat="51.708535" lon="8.715053">
        <ele>114.099561</ele>
        <time>2026-08-17T12:03:54.077Z</time>
      </trkpt>
      <trkpt lat="51.708358" lon="8.714903">
        <ele>113.840049</ele>
        <time>2026-08-17T12:03:57.935Z</time>
      </trkpt>
      <trkpt lat="51.707951" lon="8.714744">
        <ele>113.476104</ele>
        <time>2026-08-17T12:04:06.595Z</time>
      </trkpt>
      <trkpt lat="51.707791" lon="8.714597">
        <ele>113.523218</ele>
        <time>2026-08-17T12:04:10.737Z</time>
      </trkpt>
      <trkpt lat="51.707650" lon="8.714337">
        <ele>113.578005</ele>
        <time>2026-08-17T12:04:15.759Z</time>
      </trkpt>
      <trkpt lat="51.707408" lon="8.713324">
        <ele>113.750161</ele>
        <time>2026-08-17T12:04:32.064Z</time>
      </trkpt>
      <trkpt lat="51.707437" lon="8.713189">
        <ele>113.772818</ele>
        <time>2026-08-17T12:04:34.260Z</time>
      </trkpt>
      <trkpt lat="51.707528" lon="8.713124">
        <ele>113.798283</ele>
        <time>2026-08-17T12:04:36.725Z</time>
      </trkpt>
      <trkpt lat="51.707760" lon="8.713091">
        <ele>113.857881</ele>
        <time>2026-08-17T12:04:42.418Z</time>
      </trkpt>
      <trkpt lat="51.707986" lon="8.713139">
        <ele>113.915051</ele>
        <time>2026-08-17T12:04:47.975Z</time>
      </trkpt>
      <trkpt lat="51.708035" lon="8.713085">
        <ele>113.928364</ele>
        <time>2026-08-17T12:04:49.398Z</time>
      </trkpt>
      <trkpt lat="51.708052" lon="8.712979">
        <ele>113.943587</ele>
        <time>2026-08-17T12:04:51.043Z</time>
      </trkpt>
      <trkpt lat="51.708073" lon="8.712899">
        <ele>113.955667</ele>
        <time>2026-08-17T12:04:52.319Z</time>
      </trkpt>
      <trkpt lat="51.708026" lon="8.712775">
        <ele>113.975877</ele>
        <time>2026-08-17T12:04:54.467Z</time>
      </trkpt>
      <trkpt lat="51.708019" lon="8.712673">
        <ele>113.990145</ele>
        <time>2026-08-17T12:04:55.982Z</time>
      </trkpt>
      <trkpt lat="51.708047" lon="8.712381">
        <ele>114.031227</ele>
        <time>2026-08-17T12:05:00.284Z</time>
      </trkpt>
      <trkpt lat="51.708034" lon="8.712231">
        <ele>114.052286</ele>
        <time>2026-08-17T12:05:02.508Z</time>
      </trkpt>
      <trkpt lat="51.708002" lon="8.712075">
        <ele>114.075133</ele>
        <time>2026-08-17T12:05:04.859Z</time>
      </trkpt>
      <trkpt lat="51.707918" lon="8.711917">
        <ele>114.104077</ele>
        <time>2026-08-17T12:05:07.821Z</time>
      </trkpt>
      <trkpt lat="51.707847" lon="8.711835">
        <ele>114.123667</ele>
        <time>2026-08-17T12:05:09.829Z</time>
      </trkpt>
      <trkpt lat="51.707681" lon="8.711762">
        <ele>114.162271</ele>
        <time>2026-08-17T12:05:13.717Z</time>
      </trkpt>
      <trkpt lat="51.707163" lon="8.711789">
        <ele>114.278556</ele>
        <time>2026-08-17T12:05:25.522Z</time>
      </trkpt>
      <trkpt lat="51.707086" lon="8.711720">
        <ele>114.298318</ele>
        <time>2026-08-17T12:05:27.500Z</time>
      </trkpt>
      <trkpt lat="51.707025" lon="8.711504">
        <ele>114.283523</ele>
        <time>2026-08-17T12:05:30.802Z</time>
      </trkpt>
      <trkpt lat="51.706906" lon="8.710821">
        <ele>114.157331</ele>
        <time>2026-08-17T12:05:40.433Z</time>
      </trkpt>
      <trkpt lat="51.706922" lon="8.710728">
        <ele>114.140164</ele>
        <time>2026-08-17T12:05:41.734Z</time>
      </trkpt>
      <trkpt lat="51.707015" lon="8.710662">
        <ele>114.111003</ele>
        <time>2026-08-17T12:05:43.879Z</time>
      </trkpt>
      <trkpt lat="51.707110" lon="8.710682">
        <ele>114.083504</ele>
        <time>2026-08-17T12:05:45.901Z</time>
      </trkpt>
      <trkpt lat="51.707138" lon="8.710759">
        <ele>114.067625</ele>
        <time>2026-08-17T12:05:47.071Z</time>
      </trkpt>
      <trkpt lat="51.707202" lon="8.710801">
        <ele>114.047794</ele>
        <time>2026-08-17T12:05:48.515Z</time>
      </trkpt>
      <trkpt lat="51.707287" lon="8.710805">
        <ele>114.023386</ele>
        <time>2026-08-17T12:05:50.268Z</time>
      </trkpt>
      <trkpt lat="51.707487" lon="8.710737">
        <ele>113.964721</ele>
        <time>2026-08-17T12:05:54.474Z</time>
      </trkpt>
      <trkpt lat="51.708325" lon="8.710120">
        <ele>113.772400</ele>
        <time>2026-08-17T12:06:13.255Z</time>
      </trkpt>
      <trkpt lat="51.708888" lon="8.709746">
        <ele>113.731965</ele>
        <time>2026-08-17T12:06:26.127Z</time>
      </trkpt>
      <trkpt lat="51.708325" lon="8.710120">
        <ele>113.691531</ele>
        <time>2026-08-17T12:06:40.103Z</time>
      </trkpt>
      <trkpt lat="51.708064" lon="8.704890">
        <ele>114.618473</ele>
        <time>2026-08-17T12:07:59.472Z</time>
      </trkpt>
      <trkpt lat="51.708037" lon="8.704313">
        <ele>114.631951</ele>
        <time>2026-08-17T12:08:06.634Z</time>
      </trkpt>
      <trkpt lat="51.708016" lon="8.703769">
        <ele>114.564753</ele>
        <time>2026-08-17T12:08:13.141Z</time>
      </trkpt>
      <trkpt lat="51.707948" lon="8.702430">
        <ele>113.903475</ele>
        <time>2026-08-17T12:08:28.809Z</time>
      </trkpt>
      <trkpt lat="51.707738" lon="8.698099">
        <ele>112.482689</ele>
        <time>2026-08-17T12:09:24.495Z</time>
      </trkpt>
      <trkpt lat="51.707735" lon="8.697998">
        <ele>112.476434</ele>
        <time>2026-08-17T12:09:25.860Z</time>
      </trkpt>
      <trkpt lat="51.707977" lon="8.695124">
        <ele>112.333459</ele>
        <time>2026-08-17T12:10:05.225Z</time>
      </trkpt>
      <trkpt lat="51.708536" lon="8.688479">
        <ele>115.333339</ele>
        <time>2026-08-17T12:11:44.253Z</time>
      </trkpt>
      <trkpt lat="51.709095" lon="8.686056">
        <ele>119.740441</ele>
        <time>2026-08-17T12:12:44.261Z</time>
      </trkpt>
      <trkpt lat="51.709656" lon="8.683784">
        <ele>124.403684</ele>
        <time>2026-08-17T12:13:38.197Z</time>
      </trkpt>
      <trkpt lat="51.709688" lon="8.683421">
        <ele>124.700055</ele>
        <time>2026-08-17T12:13:45.069Z</time>
      </trkpt>
      <trkpt lat="51.709968" lon="8.677302">
        <ele>128.142401</ele>
        <time>2026-08-17T12:15:20.958Z</time>
      </trkpt>
      <trkpt lat="51.710120" lon="8.674164">
        <ele>128.757467</ele>
        <time>2026-08-17T12:16:07.199Z</time>
      </trkpt>
      <trkpt lat="51.710146" lon="8.673557">
        <ele>128.771488</ele>
        <time>2026-08-17T12:16:15.550Z</time>
      </trkpt>
      <trkpt lat="51.710302" lon="8.670287">
        <ele>128.340076</ele>
        <time>2026-08-17T12:16:58.389Z</time>
      </trkpt>
      <trkpt lat="51.710367" lon="8.668774">
        <ele>127.838317</ele>
        <time>2026-08-17T12:17:17.899Z</time>
      </trkpt>
      <trkpt lat="51.710463" lon="8.666521">
        <ele>126.727275</ele>
        <time>2026-08-17T12:17:45.837Z</time>
      </trkpt>
      <trkpt lat="51.710521" lon="8.665913">
        <ele>125.998972</ele>
        <time>2026-08-17T12:17:52.917Z</time>
      </trkpt>
      <trkpt lat="51.710858" lon="8.662794">
        <ele>122.198227</ele>
        <time>2026-08-17T12:18:26.746Z</time>
      </trkpt>
      <trkpt lat="51.710985" lon="8.662679">
        <ele>121.908125</ele>
        <time>2026-08-17T12:18:29.275Z</time>
      </trkpt>
      <trkpt lat="51.711390" lon="8.662455">
        <ele>121.055254</ele>
        <time>2026-08-17T12:18:36.830Z</time>
      </trkpt>
      <trkpt lat="51.711524" lon="8.662467">
        <ele>120.787900</ele>
        <time>2026-08-17T12:18:39.225Z</time>
      </trkpt>
      <trkpt lat="51.711494" lon="8.662333">
        <ele>120.612030</ele>
        <time>2026-08-17T12:18:40.803Z</time>
      </trkpt>
      <trkpt lat="51.711464" lon="8.662228">
        <ele>120.469307</ele>
        <time>2026-08-17T12:18:42.078Z</time>
      </trkpt>
      <trkpt lat="51.711452" lon="8.662151">
        <ele>120.371301</ele>
        <time>2026-08-17T12:18:42.963Z</time>
      </trkpt>
      <trkpt lat="51.711495" lon="8.661948">
        <ele>120.106489</ele>
        <time>2026-08-17T12:18:45.350Z</time>
      </trkpt>
      <trkpt lat="51.711571" lon="8.661833">
        <ele>119.898950</ele>
        <time>2026-08-17T12:18:47.244Z</time>
      </trkpt>
      <trkpt lat="51.711638" lon="8.661776">
        <ele>119.801072</ele>
        <time>2026-08-17T12:18:48.610Z</time>
      </trkpt>
      <trkpt lat="51.711701" lon="8.661734">
        <ele>119.713667</ele>
        <time>2026-08-17T12:18:49.882Z</time>
      </trkpt>
      <trkpt lat="51.711607" lon="8.661431">
        <ele>119.444434</ele>
        <time>2026-08-17T12:18:53.767Z</time>
      </trkpt>
      <trkpt lat="51.711503" lon="8.660956">
        <ele>119.044162</ele>
        <time>2026-08-17T12:18:59.661Z</time>
      </trkpt>
      <trkpt lat="51.711443" lon="8.660479">
        <ele>118.657438</ele>
        <time>2026-08-17T12:19:05.408Z</time>
      </trkpt>
      <trkpt lat="51.711408" lon="8.659759">
        <ele>118.083613</ele>
        <time>2026-08-17T12:19:13.843Z</time>
      </trkpt>
      <trkpt lat="51.711461" lon="8.658463">
        <ele>117.138943</ele>
        <time>2026-08-17T12:19:29.150Z</time>
      </trkpt>
      <trkpt lat="51.711900" lon="8.654359">
        <ele>114.488447</ele>
        <time>2026-08-17T12:20:18.651Z</time>
      </trkpt>
      <trkpt lat="51.711943" lon="8.654205">
        <ele>114.386640</ele>
        <time>2026-08-17T12:20:20.685Z</time>
      </trkpt>
      <trkpt lat="51.712099" lon="8.653191">
        <ele>113.837682</ele>
        <time>2026-08-17T12:20:33.372Z</time>
      </trkpt>
      <trkpt lat="51.712273" lon="8.652341">
        <ele>113.586275</ele>
        <time>2026-08-17T12:20:44.520Z</time>
      </trkpt>
      <trkpt lat="51.712530" lon="8.651307">
        <ele>113.273392</ele>
        <time>2026-08-17T12:20:58.816Z</time>
      </trkpt>
      <trkpt lat="51.712821" lon="8.650362">
        <ele>113.163807</ele>
        <time>2026-08-17T12:21:13.028Z</time>
      </trkpt>
      <trkpt lat="51.712901" lon="8.650019">
        <ele>113.226805</ele>
        <time>2026-08-17T12:21:18.200Z</time>
      </trkpt>
      <trkpt lat="51.713170" lon="8.649182">
        <ele>113.388881</ele>
        <time>2026-08-17T12:21:31.994Z</time>
      </trkpt>
      <trkpt lat="51.713477" lon="8.648245">
        <ele>113.571075</ele>
        <time>2026-08-17T12:21:47.897Z</time>
      </trkpt>
      <trkpt lat="51.713562" lon="8.647906">
        <ele>113.564503</ele>
        <time>2026-08-17T12:21:53.524Z</time>
      </trkpt>
      <trkpt lat="51.713591" lon="8.647654">
        <ele>113.535830</ele>
        <time>2026-08-17T12:21:57.434Z</time>
      </trkpt>
      <trkpt lat="51.713592" lon="8.647398">
        <ele>113.507190</ele>
        <time>2026-08-17T12:22:01.320Z</time>
      </trkpt>
      <trkpt lat="51.713549" lon="8.647402">
        <ele>113.499413</ele>
        <time>2026-08-17T12:22:02.356Z</time>
      </trkpt>
      <trkpt lat="51.713530" lon="8.647085">
        <ele>113.463785</ele>
        <time>2026-08-17T12:22:07.063Z</time>
      </trkpt>
      <trkpt lat="51.713472" lon="8.646791">
        <ele>113.429268</ele>
        <time>2026-08-17T12:22:11.488Z</time>
      </trkpt>
      <trkpt lat="51.713378" lon="8.646482">
        <ele>113.390758</ele>
        <time>2026-08-17T12:22:16.157Z</time>
      </trkpt>
      <trkpt lat="51.713363" lon="8.646442">
        <ele>113.385527</ele>
        <time>2026-08-17T12:22:16.789Z</time>
      </trkpt>
      <trkpt lat="51.713182" lon="8.646105">
        <ele>113.335634</ele>
        <time>2026-08-17T12:22:22.480Z</time>
      </trkpt>
      <trkpt lat="51.713034" lon="8.645936">
        <ele>113.302900</ele>
        <time>2026-08-17T12:22:26.014Z</time>
      </trkpt>
      <trkpt lat="51.712750" lon="8.645691">
        <ele>113.047220</ele>
        <time>2026-08-17T12:22:32.022Z</time>
      </trkpt>
      <trkpt lat="51.712638" lon="8.645604">
        <ele>112.826563</ele>
        <time>2026-08-17T12:22:34.265Z</time>
      </trkpt>
      <trkpt lat="51.712267" lon="8.645189">
        <ele>112.025227</ele>
        <time>2026-08-17T12:22:42.277Z</time>
      </trkpt>
      <trkpt lat="51.712083" lon="8.644898">
        <ele>111.567897</ele>
        <time>2026-08-17T12:22:46.754Z</time>
      </trkpt>
      <trkpt lat="51.712103" lon="8.644777">
        <ele>111.430148</ele>
        <time>2026-08-17T12:22:48.121Z</time>
      </trkpt>
      <trkpt lat="51.712089" lon="8.644717">
        <ele>111.359626</ele>
        <time>2026-08-17T12:22:48.808Z</time>
      </trkpt>
      <trkpt lat="51.712025" lon="8.644649">
        <ele>111.223601</ele>
        <time>2026-08-17T12:22:50.121Z</time>
      </trkpt>
      <trkpt lat="51.711951" lon="8.644679">
        <ele>111.088153</ele>
        <time>2026-08-17T12:22:51.434Z</time>
      </trkpt>
      <trkpt lat="51.711908" lon="8.644560">
        <ele>110.936625</ele>
        <time>2026-08-17T12:22:52.974Z</time>
      </trkpt>
      <trkpt lat="51.711877" lon="8.644421">
        <ele>110.774128</ele>
        <time>2026-08-17T12:22:54.627Z</time>
      </trkpt>
      <trkpt lat="51.711827" lon="8.644034">
        <ele>110.339288</ele>
        <time>2026-08-17T12:22:59.127Z</time>
      </trkpt>
      <trkpt lat="51.711846" lon="8.642787">
        <ele>109.593897</ele>
        <time>2026-08-17T12:23:14.238Z</time>
      </trkpt>
      <trkpt lat="51.711850" lon="8.642522">
        <ele>109.467398</ele>
        <time>2026-08-17T12:23:17.649Z</time>
      </trkpt>
      <trkpt lat="51.711852" lon="8.642402">
        <ele>109.410112</ele>
        <time>2026-08-17T12:23:19.211Z</time>
      </trkpt>
      <trkpt lat="51.711855" lon="8.642136">
        <ele>109.283153</ele>
        <time>2026-08-17T12:23:22.696Z</time>
      </trkpt>
      <trkpt lat="51.711861" lon="8.641732">
        <ele>109.090304</ele>
        <time>2026-08-17T12:23:28.125Z</time>
      </trkpt>
      <trkpt lat="51.711885" lon="8.641043">
        <ele>108.760986</ele>
        <time>2026-08-17T12:23:37.701Z</time>
      </trkpt>
      <trkpt lat="51.711942" lon="8.640132">
        <ele>108.584465</ele>
        <time>2026-08-17T12:23:50.732Z</time>
      </trkpt>
      <trkpt lat="51.711974" lon="8.639738">
        <ele>108.530205</ele>
        <time>2026-08-17T12:23:56.322Z</time>
      </trkpt>
      <trkpt lat="51.712190" lon="8.637528">
        <ele>108.333874</ele>
        <time>2026-08-17T12:24:26.928Z</time>
      </trkpt>
      <trkpt lat="51.712258" lon="8.637044">
        <ele>108.375268</ele>
        <time>2026-08-17T12:24:33.748Z</time>
      </trkpt>
      <trkpt lat="51.712421" lon="8.636554">
        <ele>108.421655</ele>
        <time>2026-08-17T12:24:41.748Z</time>
      </trkpt>
      <trkpt lat="51.712469" lon="8.636591">
        <ele>108.428816</ele>
        <time>2026-08-17T12:24:42.990Z</time>
      </trkpt>
      <trkpt lat="51.712522" lon="8.636581">
        <ele>108.435999</ele>
        <time>2026-08-17T12:24:44.230Z</time>
      </trkpt>
      <trkpt lat="51.712564" lon="8.636528">
        <ele>108.443176</ele>
        <time>2026-08-17T12:24:45.468Z</time>
      </trkpt>
      <trkpt lat="51.712577" lon="8.636389">
        <ele>108.454900</ele>
        <time>2026-08-17T12:24:47.536Z</time>
      </trkpt>
      <trkpt lat="51.712554" lon="8.636327">
        <ele>108.460928</ele>
        <time>2026-08-17T12:24:48.588Z</time>
      </trkpt>
      <trkpt lat="51.712829" lon="8.635965">
        <ele>108.508698</ele>
        <time>2026-08-17T12:24:57.610Z</time>
      </trkpt>
      <trkpt lat="51.713048" lon="8.635665">
        <ele>108.539567</ele>
        <time>2026-08-17T12:25:05.095Z</time>
      </trkpt>
      <trkpt lat="51.713150" lon="8.635504">
        <ele>108.547042</ele>
        <time>2026-08-17T12:25:08.807Z</time>
      </trkpt>
      <trkpt lat="51.713316" lon="8.635063">
        <ele>108.563794</ele>
        <time>2026-08-17T12:25:16.921Z</time>
      </trkpt>
      <trkpt lat="51.713348" lon="8.634949">
        <ele>108.567857</ele>
        <time>2026-08-17T12:25:18.865Z</time>
      </trkpt>
      <trkpt lat="51.713439" lon="8.634459">
        <ele>108.584464</ele>
        <time>2026-08-17T12:25:26.514Z</time>
      </trkpt>
      <trkpt lat="51.713518" lon="8.633934">
        <ele>108.602003</ele>
        <time>2026-08-17T12:25:34.207Z</time>
      </trkpt>
      <trkpt lat="51.713693" lon="8.632793">
        <ele>108.456708</ele>
        <time>2026-08-17T12:25:49.946Z</time>
      </trkpt>
      <trkpt lat="51.713734" lon="8.632568">
        <ele>108.340977</ele>
        <time>2026-08-17T12:25:52.859Z</time>
      </trkpt>
      <trkpt lat="51.713786" lon="8.632282">
        <ele>108.193895</ele>
        <time>2026-08-17T12:25:56.521Z</time>
      </trkpt>
      <trkpt lat="51.713735" lon="8.632258">
        <ele>108.151586</ele>
        <time>2026-08-17T12:25:57.564Z</time>
      </trkpt>
      <trkpt lat="51.713786" lon="8.632282">
        <ele>108.109277</ele>
        <time>2026-08-17T12:25:58.611Z</time>
      </trkpt>
      <trkpt lat="51.713914" lon="8.631669">
        <ele>107.790069</ele>
        <time>2026-08-17T12:26:06.075Z</time>
      </trkpt>
      <trkpt lat="51.713966" lon="8.631424">
        <ele>107.662274</ele>
        <time>2026-08-17T12:26:09.129Z</time>
      </trkpt>
      <trkpt lat="51.714136" lon="8.630614">
        <ele>107.240263</ele>
        <time>2026-08-17T12:26:19.925Z</time>
      </trkpt>
      <trkpt lat="51.714185" lon="8.630347">
        <ele>107.197188</ele>
        <time>2026-08-17T12:26:23.662Z</time>
      </trkpt>
      <trkpt lat="51.714216" lon="8.630171">
        <ele>107.198007</ele>
        <time>2026-08-17T12:26:26.129Z</time>
      </trkpt>
      <trkpt lat="51.714237" lon="8.629939">
        <ele>107.199056</ele>
        <time>2026-08-17T12:26:29.325Z</time>
      </trkpt>
      <trkpt lat="51.714230" lon="8.629617">
        <ele>107.200498</ele>
        <time>2026-08-17T12:26:33.572Z</time>
      </trkpt>
      <trkpt lat="51.714186" lon="8.629215">
        <ele>107.202324</ele>
        <time>2026-08-17T12:26:38.916Z</time>
      </trkpt>
      <trkpt lat="51.714146" lon="8.628942">
        <ele>107.203580</ele>
        <time>2026-08-17T12:26:42.707Z</time>
      </trkpt>
      <trkpt lat="51.714109" lon="8.628717">
        <ele>107.204621</ele>
        <time>2026-08-17T12:26:46.075Z</time>
      </trkpt>
      <trkpt lat="51.714040" lon="8.628293">
        <ele>107.206583</ele>
        <time>2026-08-17T12:26:52.739Z</time>
      </trkpt>
      <trkpt lat="51.714165" lon="8.628234">
        <ele>107.207524</ele>
        <time>2026-08-17T12:26:55.969Z</time>
      </trkpt>
      <trkpt lat="51.714329" lon="8.628090">
        <ele>107.208872</ele>
        <time>2026-08-17T12:27:00.593Z</time>
      </trkpt>
      <trkpt lat="51.714536" lon="8.627878">
        <ele>107.260410</ele>
        <time>2026-08-17T12:27:06.581Z</time>
      </trkpt>
      <trkpt lat="51.714790" lon="8.627628">
        <ele>107.344050</ele>
        <time>2026-08-17T12:27:13.529Z</time>
      </trkpt>
      <trkpt lat="51.715209" lon="8.627372">
        <ele>107.470005</ele>
        <time>2026-08-17T12:27:23.546Z</time>
      </trkpt>
      <trkpt lat="51.715193" lon="8.627210">
        <ele>107.498579</ele>
        <time>2026-08-17T12:27:25.891Z</time>
      </trkpt>
      <trkpt lat="51.715259" lon="8.627056">
        <ele>107.531196</ele>
        <time>2026-08-17T12:27:28.610Z</time>
      </trkpt>
      <trkpt lat="51.715322" lon="8.626913">
        <ele>107.561759</ele>
        <time>2026-08-17T12:27:31.151Z</time>
      </trkpt>
      <trkpt lat="51.715737" lon="8.626202">
        <ele>107.688300</ele>
        <time>2026-08-17T12:27:45.803Z</time>
      </trkpt>
      <trkpt lat="51.715834" lon="8.625575">
        <ele>107.510535</ele>
        <time>2026-08-17T12:27:55.050Z</time>
      </trkpt>
      <trkpt lat="51.715865" lon="8.625370">
        <ele>107.452491</ele>
        <time>2026-08-17T12:27:57.872Z</time>
      </trkpt>
      <trkpt lat="51.716348" lon="8.625379">
        <ele>107.238037</ele>
        <time>2026-08-17T12:28:07.807Z</time>
      </trkpt>
      <trkpt lat="51.716923" lon="8.625390">
        <ele>106.982733</ele>
        <time>2026-08-17T12:28:19.059Z</time>
      </trkpt>
      <trkpt lat="51.716967" lon="8.625362">
        <ele>106.961735</ele>
        <time>2026-08-17T12:28:19.960Z</time>
      </trkpt>
      <trkpt lat="51.716998" lon="8.625283">
        <ele>106.936013</ele>
        <time>2026-08-17T12:28:21.078Z</time>
      </trkpt>
      <trkpt lat="51.717722" lon="8.624624">
        <ele>105.803238</ele>
        <time>2026-08-17T12:28:36.455Z</time>
      </trkpt>
      <trkpt lat="51.717867" lon="8.624512">
        <ele>105.575895</ele>
        <time>2026-08-17T12:28:39.407Z</time>
      </trkpt>
      <trkpt lat="51.718593" lon="8.624029">
        <ele>104.465324</ele>
        <time>2026-08-17T12:28:53.955Z</time>
      </trkpt>
      <trkpt lat="51.718811" lon="8.623894">
        <ele>104.092941</ele>
        <time>2026-08-17T12:28:58.249Z</time>
      </trkpt>
      <trkpt lat="51.718947" lon="8.623471">
        <ele>103.601276</ele>
        <time>2026-08-17T12:29:03.626Z</time>
      </trkpt>
      <trkpt lat="51.719722" lon="8.621175">
        <ele>101.039561</ele>
        <time>2026-08-17T12:29:32.509Z</time>
      </trkpt>
      <trkpt lat="51.722847" lon="8.612002">
        <ele>93.666573</ele>
        <time>2026-08-17T12:31:35.889Z</time>
      </trkpt>
      <trkpt lat="51.722882" lon="8.611975">
        <ele>93.629838</ele>
        <time>2026-08-17T12:31:36.697Z</time>
      </trkpt>
      <trkpt lat="51.722450" lon="8.610312">
        <ele>92.830744</ele>
        <time>2026-08-17T12:31:59.726Z</time>
      </trkpt>
      <trkpt lat="51.725280" lon="8.608517">
        <ele>90.954601</ele>
        <time>2026-08-17T12:33:00.782Z</time>
      </trkpt>
      <trkpt lat="51.725323" lon="8.608488">
        <ele>90.936481</ele>
        <time>2026-08-17T12:33:01.752Z</time>
      </trkpt>
      <trkpt lat="51.726530" lon="8.607725">
        <ele>90.432470</ele>
        <time>2026-08-17T12:33:28.755Z</time>
      </trkpt>
      <trkpt lat="51.726463" lon="8.607093">
        <ele>90.303534</ele>
        <time>2026-08-17T12:33:37.354Z</time>
      </trkpt>
      <trkpt lat="51.726304" lon="8.605579">
        <ele>90.143592</ele>
        <time>2026-08-17T12:33:58.252Z</time>
      </trkpt>
      <trkpt lat="51.726749" lon="8.595006">
        <ele>88.713406</ele>
        <time>2026-08-17T12:36:18.395Z</time>
      </trkpt>
      <trkpt lat="51.726718" lon="8.594876">
        <ele>88.710394</ele>
        <time>2026-08-17T12:36:20.409Z</time>
      </trkpt>
      <trkpt lat="51.726182" lon="8.593481">
        <ele>88.674895</ele>
        <time>2026-08-17T12:36:43.795Z</time>
      </trkpt>
      <trkpt lat="51.729155" lon="8.591028">
        <ele>87.862327</ele>
        <time>2026-08-17T12:37:54.361Z</time>
      </trkpt>
      <trkpt lat="51.730133" lon="8.589408">
        <ele>87.611384</ele>
        <time>2026-08-17T12:38:24.914Z</time>
      </trkpt>
      <trkpt lat="51.733297" lon="8.584204">
        <ele>87.049497</ele>
        <time>2026-08-17T12:40:03.026Z</time>
      </trkpt>
      <trkpt lat="51.734417" lon="8.583785">
        <ele>87.042907</ele>
        <time>2026-08-17T12:40:28.900Z</time>
      </trkpt>
      <trkpt lat="51.733319" lon="8.580635">
        <ele>86.953091</ele>
        <time>2026-08-17T12:41:17.794Z</time>
      </trkpt>
      <trkpt lat="51.732761" lon="8.579051">
        <ele>87.123819</ele>
        <time>2026-08-17T12:41:43.422Z</time>
      </trkpt>
      <trkpt lat="51.732494" lon="8.578304">
        <ele>87.228964</ele>
        <time>2026-08-17T12:41:56.060Z</time>
      </trkpt>
      <trkpt lat="51.732397" lon="8.578254">
        <ele>87.249007</ele>
        <time>2026-08-17T12:41:58.467Z</time>
      </trkpt>
      <trkpt lat="51.731728" lon="8.578819">
        <ele>87.367876</ele>
        <time>2026-08-17T12:42:16.158Z</time>
      </trkpt>
      <trkpt lat="51.731596" lon="8.578860">
        <ele>87.386586</ele>
        <time>2026-08-17T12:42:19.291Z</time>
      </trkpt>
      <trkpt lat="51.730952" lon="8.577417">
        <ele>87.539915</ele>
        <time>2026-08-17T12:42:44.162Z</time>
      </trkpt>
      <trkpt lat="51.730507" lon="8.576418">
        <ele>87.352256</ele>
        <time>2026-08-17T12:43:00.646Z</time>
      </trkpt>
      <trkpt lat="51.729349" lon="8.573861">
        <ele>86.739746</ele>
        <time>2026-08-17T12:43:41.739Z</time>
      </trkpt>
      <trkpt lat="51.729205" lon="8.573708">
        <ele>86.677254</ele>
        <time>2026-08-17T12:43:45.185Z</time>
      </trkpt>
      <trkpt lat="51.729087" lon="8.573648">
        <ele>86.632406</ele>
        <time>2026-08-17T12:43:47.699Z</time>
      </trkpt>
      <trkpt lat="51.728794" lon="8.573582">
        <ele>86.525162</ele>
        <time>2026-08-17T12:43:53.749Z</time>
      </trkpt>
      <trkpt lat="51.728570" lon="8.573413">
        <ele>86.435530</ele>
        <time>2026-08-17T12:43:58.868Z</time>
      </trkpt>
      <trkpt lat="51.727614" lon="8.571368">
        <ele>86.467012</ele>
        <time>2026-08-17T12:44:34.430Z</time>
      </trkpt>
      <trkpt lat="51.728878" lon="8.570437">
        <ele>86.904754</ele>
        <time>2026-08-17T12:45:09.957Z</time>
      </trkpt>
      <trkpt lat="51.728978" lon="8.570361">
        <ele>86.947673</ele>
        <time>2026-08-17T12:45:13.383Z</time>
      </trkpt>
      <trkpt lat="51.729103" lon="8.570055">
        <ele>87.035838</ele>
        <time>2026-08-17T12:45:19.110Z</time>
      </trkpt>
      <trkpt lat="51.729242" lon="8.569943">
        <ele>87.096164</ele>
        <time>2026-08-17T12:45:24.016Z</time>
      </trkpt>
      <trkpt lat="51.730603" lon="8.568854">
        <ele>88.411467</ele>
        <time>2026-08-17T12:46:07.451Z</time>
      </trkpt>
      <trkpt lat="51.730892" lon="8.568611">
        <ele>88.718426</ele>
        <time>2026-08-17T12:46:17.016Z</time>
      </trkpt>
      <trkpt lat="51.730947" lon="8.568414">
        <ele>88.844507</ele>
        <time>2026-08-17T12:46:20.854Z</time>
      </trkpt>
      <trkpt lat="51.730869" lon="8.568388">
        <ele>88.877560</ele>
        <time>2026-08-17T12:46:22.915Z</time>
      </trkpt>
      <trkpt lat="51.730820" lon="8.568209">
        <ele>88.891598</ele>
        <time>2026-08-17T12:46:26.050Z</time>
      </trkpt>
      <trkpt lat="51.730670" lon="8.567854">
        <ele>88.922425</ele>
        <time>2026-08-17T12:46:36.891Z</time>
      </trkpt>
      <trkpt lat="51.730624" lon="8.567586">
        <ele>88.942374</ele>
        <time>2026-08-17T12:46:43.661Z</time>
      </trkpt>
      <trkpt lat="51.730567" lon="8.567255">
        <ele>88.967018</ele>
        <time>2026-08-17T12:46:51.785Z</time>
      </trkpt>
      <trkpt lat="51.730594" lon="8.567209">
        <ele>88.971564</ele>
        <time>2026-08-17T12:46:53.243Z</time>
      </trkpt>
      <trkpt lat="51.730739" lon="8.566928">
        <ele>88.997800</ele>
        <time>2026-08-17T12:46:59.867Z</time>
      </trkpt>
      <trkpt lat="51.730799" lon="8.566786">
        <ele>89.010130</ele>
        <time>2026-08-17T12:47:02.918Z</time>
      </trkpt>
      <trkpt lat="51.730670" lon="8.566686">
        <ele>89.026703</ele>
        <time>2026-08-17T12:47:05.966Z</time>
      </trkpt>
      <trkpt lat="51.730691" lon="8.566612">
        <ele>89.032542</ele>
        <time>2026-08-17T12:47:07.030Z</time>
      </trkpt>
      <trkpt lat="51.730941" lon="8.565783">
        <ele>88.985352</ele>
        <time>2026-08-17T12:47:18.456Z</time>
      </trkpt>
      <trkpt lat="51.730975" lon="8.565671">
        <ele>88.940055</ele>
        <time>2026-08-17T12:47:19.979Z</time>
      </trkpt>
      <trkpt lat="51.731414" lon="8.565232">
        <ele>88.637274</ele>
        <time>2026-08-17T12:47:30.175Z</time>
      </trkpt>
      <trkpt lat="51.731466" lon="8.565129">
        <ele>88.589016</ele>
        <time>2026-08-17T12:47:31.766Z</time>
      </trkpt>
      <trkpt lat="51.731826" lon="8.564712">
        <ele>88.329226</ele>
        <time>2026-08-17T12:47:40.602Z</time>
      </trkpt>
      <trkpt lat="51.732153" lon="8.564052">
        <ele>88.025631</ele>
        <time>2026-08-17T12:47:51.611Z</time>
      </trkpt>
      <trkpt lat="51.732203" lon="8.563906">
        <ele>88.031231</ele>
        <time>2026-08-17T12:47:53.852Z</time>
      </trkpt>
      <trkpt lat="51.732367" lon="8.563447">
        <ele>88.049016</ele>
        <time>2026-08-17T12:48:01.035Z</time>
      </trkpt>
      <trkpt lat="51.732422" lon="8.563202">
        <ele>88.057762</ele>
        <time>2026-08-17T12:48:04.600Z</time>
      </trkpt>
      <trkpt lat="51.732517" lon="8.562946">
        <ele>88.067778</ele>
        <time>2026-08-17T12:48:08.687Z</time>
      </trkpt>
      <trkpt lat="51.732562" lon="8.562602">
        <ele>88.079579</ele>
        <time>2026-08-17T12:48:13.517Z</time>
      </trkpt>
      <trkpt lat="51.732665" lon="8.562150">
        <ele>88.095743</ele>
        <time>2026-08-17T12:48:20.229Z</time>
      </trkpt>
      <trkpt lat="51.732652" lon="8.561894">
        <ele>88.104364</ele>
        <time>2026-08-17T12:48:23.916Z</time>
      </trkpt>
      <trkpt lat="51.732708" lon="8.561641">
        <ele>88.113381</ele>
        <time>2026-08-17T12:48:27.850Z</time>
      </trkpt>
      <trkpt lat="51.732710" lon="8.561445">
        <ele>88.119960</ele>
        <time>2026-08-17T12:48:30.740Z</time>
      </trkpt>
      <trkpt lat="51.732718" lon="8.561160">
        <ele>88.163938</ele>
        <time>2026-08-17T12:48:35.007Z</time>
      </trkpt>
      <trkpt lat="51.732770" lon="8.560798">
        <ele>88.240299</ele>
        <time>2026-08-17T12:48:40.584Z</time>
      </trkpt>
      <trkpt lat="51.732792" lon="8.560366">
        <ele>88.329368</ele>
        <time>2026-08-17T12:48:47.001Z</time>
      </trkpt>
      <trkpt lat="51.732899" lon="8.559218">
        <ele>88.567923</ele>
        <time>2026-08-17T12:49:03.815Z</time>
      </trkpt>
      <trkpt lat="51.732282" lon="8.558469">
        <ele>88.800322</ele>
        <time>2026-08-17T12:49:22.540Z</time>
      </trkpt>
      <trkpt lat="51.732250" lon="8.558345">
        <ele>88.821658</ele>
        <time>2026-08-17T12:49:24.545Z</time>
      </trkpt>
      <trkpt lat="51.732252" lon="8.558141">
        <ele>88.854063</ele>
        <time>2026-08-17T12:49:27.639Z</time>
      </trkpt>
      <trkpt lat="51.732261" lon="8.558048">
        <ele>88.869013</ele>
        <time>2026-08-17T12:49:29.023Z</time>
      </trkpt>
      <trkpt lat="51.731532" lon="8.557878">
        <ele>89.057905</ele>
        <time>2026-08-17T12:49:51.489Z</time>
      </trkpt>
      <trkpt lat="51.731295" lon="8.557753">
        <ele>89.121844</ele>
        <time>2026-08-17T12:49:59.189Z</time>
      </trkpt>
      <trkpt lat="51.731341" lon="8.557520">
        <ele>89.160687</ele>
        <time>2026-08-17T12:50:02.727Z</time>
      </trkpt>
      <trkpt lat="51.731630" lon="8.557069">
        <ele>89.140321</ele>
        <time>2026-08-17T12:50:11.773Z</time>
      </trkpt>
      <trkpt lat="51.731965" lon="8.556475">
        <ele>89.077949</ele>
        <time>2026-08-17T12:50:22.661Z</time>
      </trkpt>
      <trkpt lat="51.732222" lon="8.556228">
        <ele>89.040458</ele>
        <time>2026-08-17T12:50:28.909Z</time>
      </trkpt>
      <trkpt lat="51.733381" lon="8.555593">
        <ele>89.068193</ele>
        <time>2026-08-17T12:50:56.128Z</time>
      </trkpt>
      <trkpt lat="51.733648" lon="8.555418">
        <ele>89.127817</ele>
        <time>2026-08-17T12:51:03.024Z</time>
      </trkpt>
      <trkpt lat="51.733998" lon="8.555129">
        <ele>89.209158</ele>
        <time>2026-08-17T12:51:12.808Z</time>
      </trkpt>
      <trkpt lat="51.734221" lon="8.554974">
        <ele>89.259393</ele>
        <time>2026-08-17T12:51:19.008Z</time>
      </trkpt>
      <trkpt lat="51.734700" lon="8.554744">
        <ele>89.366265</ele>
        <time>2026-08-17T12:51:31.739Z</time>
      </trkpt>
      <trkpt lat="51.734910" lon="8.554490">
        <ele>89.425900</ele>
        <time>2026-08-17T12:51:38.384Z</time>
      </trkpt>
      <trkpt lat="51.735735" lon="8.552972">
        <ele>89.710178</ele>
        <time>2026-08-17T12:52:08.140Z</time>
      </trkpt>
      <trkpt lat="51.735854" lon="8.552804">
        <ele>89.733097</ele>
        <time>2026-08-17T12:52:11.671Z</time>
      </trkpt>
      <trkpt lat="51.736203" lon="8.552468">
        <ele>89.702293</ele>
        <time>2026-08-17T12:52:20.866Z</time>
      </trkpt>
      <trkpt lat="51.736749" lon="8.551954">
        <ele>89.654378</ele>
        <time>2026-08-17T12:52:35.415Z</time>
      </trkpt>
      <trkpt lat="51.737155" lon="8.551281">
        <ele>89.610268</ele>
        <time>2026-08-17T12:52:48.685Z</time>
      </trkpt>
      <trkpt lat="51.737300" lon="8.551029">
        <ele>89.573035</ele>
        <time>2026-08-17T12:52:53.511Z</time>
      </trkpt>
      <trkpt lat="51.737784" lon="8.550211">
        <ele>89.329227</ele>
        <time>2026-08-17T12:53:08.793Z</time>
      </trkpt>
      <trkpt lat="51.737858" lon="8.550116">
        <ele>89.296329</ele>
        <time>2026-08-17T12:53:10.809Z</time>
      </trkpt>
      <trkpt lat="51.741628" lon="8.546920">
        <ele>87.880730</ele>
        <time>2026-08-17T12:54:39.345Z</time>
      </trkpt>
      <trkpt lat="51.741695" lon="8.546862">
        <ele>87.857555</ele>
        <time>2026-08-17T12:54:41.002Z</time>
      </trkpt>
      <trkpt lat="51.741815" lon="8.546752">
        <ele>87.815488</ele>
        <time>2026-08-17T12:54:44.043Z</time>
      </trkpt>
      <trkpt lat="51.744777" lon="8.544242">
        <ele>88.206388</ele>
        <time>2026-08-17T12:56:01.081Z</time>
      </trkpt>
      <trkpt lat="51.744026" lon="8.541435">
        <ele>87.795538</ele>
        <time>2026-08-17T12:56:40.748Z</time>
      </trkpt>
      <trkpt lat="51.742772" lon="8.536671">
        <ele>87.625889</ele>
        <time>2026-08-17T12:57:51.857Z</time>
      </trkpt>
      <trkpt lat="51.741506" lon="8.531866">
        <ele>87.660338</ele>
        <time>2026-08-17T12:59:03.893Z</time>
      </trkpt>
      <trkpt lat="51.741538" lon="8.531708">
        <ele>87.658629</ele>
        <time>2026-08-17T12:59:06.124Z</time>
      </trkpt>
      <trkpt lat="51.742217" lon="8.531160">
        <ele>87.646025</ele>
        <time>2026-08-17T12:59:22.624Z</time>
      </trkpt>
      <trkpt lat="51.744619" lon="8.529382">
        <ele>87.815914</ele>
        <time>2026-08-17T13:00:22.208Z</time>
      </trkpt>
      <trkpt lat="51.743970" lon="8.527606">
        <ele>87.943256</ele>
        <time>2026-08-17T13:00:51.339Z</time>
      </trkpt>
      <trkpt lat="51.743826" lon="8.527062">
        <ele>87.985666</ele>
        <time>2026-08-17T13:00:59.408Z</time>
      </trkpt>
      <trkpt lat="51.743709" lon="8.526393">
        <ele>88.035499</ele>
        <time>2026-08-17T13:01:08.844Z</time>
      </trkpt>
      <trkpt lat="51.743256" lon="8.525198">
        <ele>88.110256</ele>
        <time>2026-08-17T13:01:29.264Z</time>
      </trkpt>
      <trkpt lat="51.743234" lon="8.525038">
        <ele>88.091205</ele>
        <time>2026-08-17T13:01:31.622Z</time>
      </trkpt>
      <trkpt lat="51.743299" lon="8.524980">
        <ele>88.077264</ele>
        <time>2026-08-17T13:01:33.424Z</time>
      </trkpt>
      <trkpt lat="51.743494" lon="8.524803">
        <ele>88.035272</ele>
        <time>2026-08-17T13:01:38.824Z</time>
      </trkpt>
      <trkpt lat="51.743538" lon="8.524763">
        <ele>88.025793</ele>
        <time>2026-08-17T13:01:40.027Z</time>
      </trkpt>
      <trkpt lat="51.743584" lon="8.524720">
        <ele>88.015815</ele>
        <time>2026-08-17T13:01:41.265Z</time>
      </trkpt>
      <trkpt lat="51.742113" lon="8.520795">
        <ele>87.069366</ele>
        <time>2026-08-17T13:02:40.327Z</time>
      </trkpt>
      <trkpt lat="51.742131" lon="8.520640">
        <ele>87.026282</ele>
        <time>2026-08-17T13:02:42.273Z</time>
      </trkpt>
      <trkpt lat="51.742111" lon="8.520529">
        <ele>86.994804</ele>
        <time>2026-08-17T13:02:43.721Z</time>
      </trkpt>
      <trkpt lat="51.742325" lon="8.520367">
        <ele>86.941832</ele>
        <time>2026-08-17T13:02:48.515Z</time>
      </trkpt>
      <trkpt lat="51.742835" lon="8.520165">
        <ele>86.824137</ele>
        <time>2026-08-17T13:02:59.376Z</time>
      </trkpt>
      <trkpt lat="51.743351" lon="8.519960">
        <ele>86.705037</ele>
        <time>2026-08-17T13:03:10.646Z</time>
      </trkpt>
      <trkpt lat="51.743964" lon="8.519717">
        <ele>86.596844</ele>
        <time>2026-08-17T13:03:25.153Z</time>
      </trkpt>
      <trkpt lat="51.744659" lon="8.519441">
        <ele>86.625644</ele>
        <time>2026-08-17T13:03:41.359Z</time>
      </trkpt>
      <trkpt lat="51.744913" lon="8.519338">
        <ele>86.636182</ele>
        <time>2026-08-17T13:03:47.197Z</time>
      </trkpt>
      <trkpt lat="51.744684" lon="8.518186">
        <ele>86.660925</ele>
        <time>2026-08-17T13:04:14.933Z</time>
      </trkpt>
      <trkpt lat="51.744680" lon="8.517538">
        <ele>86.636894</ele>
        <time>2026-08-17T13:04:29.669Z</time>
      </trkpt>
      <trkpt lat="51.744678" lon="8.517171">
        <ele>86.623284</ele>
        <time>2026-08-17T13:04:38.044Z</time>
      </trkpt>
      <trkpt lat="51.744786" lon="8.515365">
        <ele>86.555808</ele>
        <time>2026-08-17T13:05:19.465Z</time>
      </trkpt>
      <trkpt lat="51.744779" lon="8.514545">
        <ele>86.511883</ele>
        <time>2026-08-17T13:05:38.044Z</time>
      </trkpt>
      <trkpt lat="51.744679" lon="8.513741">
        <ele>86.467959</ele>
        <time>2026-08-17T13:05:56.628Z</time>
      </trkpt>
      <trkpt lat="51.743897" lon="8.511173">
        <ele>86.548142</ele>
        <time>2026-08-17T13:07:02.238Z</time>
      </trkpt>
      <trkpt lat="51.743913" lon="8.511163">
        <ele>86.550679</ele>
        <time>2026-08-17T13:07:02.626Z</time>
      </trkpt>
      <trkpt lat="51.744065" lon="8.511081">
        <ele>86.574380</ele>
        <time>2026-08-17T13:07:06.412Z</time>
      </trkpt>
      <trkpt lat="51.744121" lon="8.511054">
        <ele>86.583023</ele>
        <time>2026-08-17T13:07:07.789Z</time>
      </trkpt>
      <trkpt lat="51.744204" lon="8.511011">
        <ele>86.595915</ele>
        <time>2026-08-17T13:07:09.890Z</time>
      </trkpt>
      <trkpt lat="51.744292" lon="8.510970">
        <ele>86.609460</ele>
        <time>2026-08-17T13:07:12.164Z</time>
      </trkpt>
      <trkpt lat="51.744428" lon="8.510904">
        <ele>86.630462</ele>
        <time>2026-08-17T13:07:15.574Z</time>
      </trkpt>
      <trkpt lat="51.744624" lon="8.510859">
        <ele>86.659741</ele>
        <time>2026-08-17T13:07:20.249Z</time>
      </trkpt>
      <trkpt lat="51.745223" lon="8.510735">
        <ele>86.641343</ele>
        <time>2026-08-17T13:07:33.896Z</time>
      </trkpt>
      <trkpt lat="51.745268" lon="8.510704">
        <ele>86.639099</ele>
        <time>2026-08-17T13:07:34.981Z</time>
      </trkpt>
      <trkpt lat="51.745247" lon="8.510585">
        <ele>86.635584</ele>
        <time>2026-08-17T13:07:37.346Z</time>
      </trkpt>
      <trkpt lat="51.745268" lon="8.510704">
        <ele>86.632069</ele>
        <time>2026-08-17T13:07:39.563Z</time>
      </trkpt>
      <trkpt lat="51.745408" lon="8.510541">
        <ele>86.624150</ele>
        <time>2026-08-17T13:07:43.549Z</time>
      </trkpt>
      <trkpt lat="51.745544" lon="8.510495">
        <ele>86.617775</ele>
        <time>2026-08-17T13:07:46.589Z</time>
      </trkpt>
      <trkpt lat="51.745653" lon="8.510568">
        <ele>86.612362</ele>
        <time>2026-08-17T13:07:49.148Z</time>
      </trkpt>
      <trkpt lat="51.745792" lon="8.510622">
        <ele>86.605802</ele>
        <time>2026-08-17T13:07:52.137Z</time>
      </trkpt>
      <trkpt lat="51.745839" lon="8.510689">
        <ele>86.602926</ele>
        <time>2026-08-17T13:07:53.450Z</time>
      </trkpt>
      <trkpt lat="51.746141" lon="8.510617">
        <ele>86.588920</ele>
        <time>2026-08-17T13:07:59.768Z</time>
      </trkpt>
      <trkpt lat="51.746323" lon="8.510574">
        <ele>86.577928</ele>
        <time>2026-08-17T13:08:03.532Z</time>
      </trkpt>
      <trkpt lat="51.746398" lon="8.510556">
        <ele>86.572138</ele>
        <time>2026-08-17T13:08:05.091Z</time>
      </trkpt>
      <trkpt lat="51.746391" lon="8.510481">
        <ele>86.568552</ele>
        <time>2026-08-17T13:08:06.079Z</time>
      </trkpt>
      <trkpt lat="51.746260" lon="8.509839">
        <ele>86.536591</ele>
        <time>2026-08-17T13:08:15.009Z</time>
      </trkpt>
      <trkpt lat="51.746062" lon="8.508848">
        <ele>86.487357</ele>
        <time>2026-08-17T13:08:29.552Z</time>
      </trkpt>
      <trkpt lat="51.745810" lon="8.507595">
        <ele>86.406976</ele>
        <time>2026-08-17T13:08:48.267Z</time>
      </trkpt>
      <trkpt lat="51.745479" lon="8.505954">
        <ele>86.257982</ele>
        <time>2026-08-17T13:09:11.453Z</time>
      </trkpt>
      <trkpt lat="51.745104" lon="8.504137">
        <ele>86.059255</ele>
        <time>2026-08-17T13:09:35.990Z</time>
      </trkpt>
      <trkpt lat="51.744850" lon="8.502911">
        <ele>85.911667</ele>
        <time>2026-08-17T13:09:53.587Z</time>
      </trkpt>
      <trkpt lat="51.744671" lon="8.501991">
        <ele>85.902656</ele>
        <time>2026-08-17T13:10:07.216Z</time>
      </trkpt>
      <trkpt lat="51.744556" lon="8.501470">
        <ele>85.940859</ele>
        <time>2026-08-17T13:10:15.002Z</time>
      </trkpt>
      <trkpt lat="51.744260" lon="8.499909">
        <ele>86.053617</ele>
        <time>2026-08-17T13:10:38.018Z</time>
      </trkpt>
      <trkpt lat="51.744251" lon="8.499862">
        <ele>86.057015</ele>
        <time>2026-08-17T13:10:38.693Z</time>
      </trkpt>
      <trkpt lat="51.744186" lon="8.499521">
        <ele>86.060092</ele>
        <time>2026-08-17T13:10:43.572Z</time>
      </trkpt>
      <trkpt lat="51.744172" lon="8.499446">
        <ele>86.058416</ele>
        <time>2026-08-17T13:10:44.666Z</time>
      </trkpt>
      <trkpt lat="51.744087" lon="8.498450">
        <ele>86.036910</ele>
        <time>2026-08-17T13:10:58.576Z</time>
      </trkpt>
      <trkpt lat="51.743972" lon="8.497251">
        <ele>86.010956</ele>
        <time>2026-08-17T13:11:15.183Z</time>
      </trkpt>
      <trkpt lat="51.743679" lon="8.493747">
        <ele>85.581243</ele>
        <time>2026-08-17T13:12:01.893Z</time>
      </trkpt>
      <trkpt lat="51.743199" lon="8.492022">
        <ele>85.548261</ele>
        <time>2026-08-17T13:12:27.966Z</time>
      </trkpt>
      <trkpt lat="51.742785" lon="8.491000">
        <ele>85.492601</ele>
        <time>2026-08-17T13:12:45.169Z</time>
      </trkpt>
      <trkpt lat="51.742501" lon="8.490298">
        <ele>85.416553</ele>
        <time>2026-08-17T13:12:56.388Z</time>
      </trkpt>
      <trkpt lat="51.743116" lon="8.489733">
        <ele>85.312923</ele>
        <time>2026-08-17T13:13:11.701Z</time>
      </trkpt>
      <trkpt lat="51.743839" lon="8.489168">
        <ele>85.158640</ele>
        <time>2026-08-17T13:13:28.289Z</time>
      </trkpt>
      <trkpt lat="51.744715" lon="8.488906">
        <ele>84.965590</ele>
        <time>2026-08-17T13:13:47.192Z</time>
      </trkpt>
      <trkpt lat="51.744891" lon="8.488936">
        <ele>84.927240</ele>
        <time>2026-08-17T13:13:51.011Z</time>
      </trkpt>
      <trkpt lat="51.745980" lon="8.489720">
        <ele>85.346708</ele>
        <time>2026-08-17T13:14:18.320Z</time>
      </trkpt>
      <trkpt lat="51.746518" lon="8.489923">
        <ele>85.607842</ele>
        <time>2026-08-17T13:14:32.180Z</time>
      </trkpt>
      <trkpt lat="51.747481" lon="8.490378">
        <ele>86.593008</ele>
        <time>2026-08-17T13:14:59.099Z</time>
      </trkpt>
      <trkpt lat="51.747565" lon="8.490346">
        <ele>86.693349</ele>
        <time>2026-08-17T13:15:01.500Z</time>
      </trkpt>
      <trkpt lat="51.747649" lon="8.490172">
        <ele>86.852173</ele>
        <time>2026-08-17T13:15:05.283Z</time>
      </trkpt>
      <trkpt lat="51.747693" lon="8.489579">
        <ele>87.282078</ele>
        <time>2026-08-17T13:15:15.243Z</time>
      </trkpt>
      <trkpt lat="51.747946" lon="8.488577">
        <ele>88.097381</ele>
        <time>2026-08-17T13:15:33.364Z</time>
      </trkpt>
      <trkpt lat="51.747786" lon="8.488502">
        <ele>88.320712</ele>
        <time>2026-08-17T13:15:38.954Z</time>
      </trkpt>
      <trkpt lat="51.747946" lon="8.488577">
        <ele>88.544042</ele>
        <time>2026-08-17T13:15:44.561Z</time>
      </trkpt>
      <trkpt lat="51.748442" lon="8.486614">
        <ele>90.302044</ele>
        <time>2026-08-17T13:16:21.050Z</time>
      </trkpt>
      <trkpt lat="51.748308" lon="8.483485">
        <ele>92.466242</ele>
        <time>2026-08-17T13:17:16.044Z</time>
      </trkpt>
      <trkpt lat="51.748179" lon="8.482127">
        <ele>91.928722</ele>
        <time>2026-08-17T13:17:32.863Z</time>
      </trkpt>
      <trkpt lat="51.748103" lon="8.481567">
        <ele>91.704425</ele>
        <time>2026-08-17T13:17:39.286Z</time>
      </trkpt>
      <trkpt lat="51.747919" lon="8.480751">
        <ele>91.321825</ele>
        <time>2026-08-17T13:17:49.145Z</time>
      </trkpt>
      <trkpt lat="51.747491" lon="8.478621">
        <ele>90.019904</ele>
        <time>2026-08-17T13:18:16.512Z</time>
      </trkpt>
      <trkpt lat="51.747462" lon="8.477274">
        <ele>89.485901</ele>
        <time>2026-08-17T13:18:32.800Z</time>
      </trkpt>
      <trkpt lat="51.747435" lon="8.476041">
        <ele>89.108000</ele>
        <time>2026-08-17T13:18:47.789Z</time>
      </trkpt>
      <trkpt lat="51.747396" lon="8.475648">
        <ele>88.986088</ele>
        <time>2026-08-17T13:18:52.929Z</time>
      </trkpt>
      <trkpt lat="51.746924" lon="8.470920">
        <ele>91.921041</ele>
        <time>2026-08-17T13:20:08.825Z</time>
      </trkpt>
      <trkpt lat="51.747815" lon="8.469997">
        <ele>94.133523</ele>
        <time>2026-08-17T13:20:43.800Z</time>
      </trkpt>
      <trkpt lat="51.748379" lon="8.469491">
        <ele>96.222947</ele>
        <time>2026-08-17T13:21:07.860Z</time>
      </trkpt>
      <trkpt lat="51.749610" lon="8.468644">
        <ele>99.830996</ele>
        <time>2026-08-17T13:21:55.323Z</time>
      </trkpt>
      <trkpt lat="51.750090" lon="8.468418">
        <ele>100.506456</ele>
        <time>2026-08-17T13:22:09.616Z</time>
      </trkpt>
      <trkpt lat="51.750445" lon="8.468281">
        <ele>100.999554</ele>
        <time>2026-08-17T13:22:18.937Z</time>
      </trkpt>
      <trkpt lat="51.750205" lon="8.467031">
        <ele>101.688396</ele>
        <time>2026-08-17T13:22:36.908Z</time>
      </trkpt>
      <trkpt lat="51.749979" lon="8.465875">
        <ele>101.534632</ele>
        <time>2026-08-17T13:22:53.040Z</time>
      </trkpt>
      <trkpt lat="51.749969" lon="8.465824">
        <ele>101.527846</ele>
        <time>2026-08-17T13:22:53.732Z</time>
      </trkpt>
      <trkpt lat="51.749734" lon="8.464620">
        <ele>101.369305</ele>
        <time>2026-08-17T13:23:10.091Z</time>
      </trkpt>
      <trkpt lat="51.749673" lon="8.464307">
        <ele>101.339458</ele>
        <time>2026-08-17T13:23:14.413Z</time>
      </trkpt>
      <trkpt lat="51.749454" lon="8.463179">
        <ele>101.231930</ele>
        <time>2026-08-17T13:23:30.491Z</time>
      </trkpt>
      <trkpt lat="51.749277" lon="8.462246">
        <ele>101.143170</ele>
        <time>2026-08-17T13:23:44.000Z</time>
      </trkpt>
      <trkpt lat="51.749274" lon="8.462141">
        <ele>101.133609</ele>
        <time>2026-08-17T13:23:45.388Z</time>
      </trkpt>
      <trkpt lat="51.749304" lon="8.462046">
        <ele>101.123909</ele>
        <time>2026-08-17T13:23:46.820Z</time>
      </trkpt>
      <trkpt lat="51.749363" lon="8.461966">
        <ele>101.112592</ele>
        <time>2026-08-17T13:23:48.483Z</time>
      </trkpt>
      <trkpt lat="51.749887" lon="8.461606">
        <ele>100.725451</ele>
        <time>2026-08-17T13:24:00.344Z</time>
      </trkpt>
      <trkpt lat="51.749920" lon="8.461519">
        <ele>100.681024</ele>
        <time>2026-08-17T13:24:01.579Z</time>
      </trkpt>
      <trkpt lat="51.750745" lon="8.462484">
        <ele>99.964607</ele>
        <time>2026-08-17T13:24:21.391Z</time>
      </trkpt>
      <trkpt lat="51.751020" lon="8.462770">
        <ele>99.710273</ele>
        <time>2026-08-17T13:24:27.740Z</time>
      </trkpt>
      <trkpt lat="51.751068" lon="8.462819">
        <ele>99.661471</ele>
        <time>2026-08-17T13:24:28.859Z</time>
      </trkpt>
      <trkpt lat="51.751186" lon="8.462941">
        <ele>99.541059</ele>
        <time>2026-08-17T13:24:31.635Z</time>
      </trkpt>
      <trkpt lat="51.751525" lon="8.463292">
        <ele>99.194986</ele>
        <time>2026-08-17T13:24:39.637Z</time>
      </trkpt>
      <trkpt lat="51.751680" lon="8.463459">
        <ele>99.034855</ele>
        <time>2026-08-17T13:24:43.372Z</time>
      </trkpt>
      <trkpt lat="51.752073" lon="8.463880">
        <ele>98.629561</ele>
        <time>2026-08-17T13:24:52.809Z</time>
      </trkpt>
      <trkpt lat="51.752106" lon="8.463915">
        <ele>98.595632</ele>
        <time>2026-08-17T13:24:53.579Z</time>
      </trkpt>
      <trkpt lat="51.752586" lon="8.462340">
        <ele>97.386739</ele>
        <time>2026-08-17T13:25:14.257Z</time>
      </trkpt>
      <trkpt lat="51.752655" lon="8.462010">
        <ele>97.121396</ele>
        <time>2026-08-17T13:25:18.261Z</time>
      </trkpt>
      <trkpt lat="51.752753" lon="8.461125">
        <ele>96.436509</ele>
        <time>2026-08-17T13:25:28.586Z</time>
      </trkpt>
      <trkpt lat="51.752690" lon="8.460653">
        <ele>96.072163</ele>
        <time>2026-08-17T13:25:34.106Z</time>
      </trkpt>
      <trkpt lat="51.752226" lon="8.459184">
        <ele>95.087401</ele>
        <time>2026-08-17T13:25:53.687Z</time>
      </trkpt>
      <trkpt lat="51.751714" lon="8.457376">
        <ele>94.009110</ele>
        <time>2026-08-17T13:26:18.229Z</time>
      </trkpt>
      <trkpt lat="51.751433" lon="8.456091">
        <ele>93.392438</ele>
        <time>2026-08-17T13:26:35.177Z</time>
      </trkpt>
      <trkpt lat="51.751539" lon="8.456001">
        <ele>93.304908</ele>
        <time>2026-08-17T13:26:37.526Z</time>
      </trkpt>
      <trkpt lat="51.751572" lon="8.456023">
        <ele>93.278814</ele>
        <time>2026-08-17T13:26:38.223Z</time>
      </trkpt>
      <trkpt lat="51.751539" lon="8.456001">
        <ele>93.252720</ele>
        <time>2026-08-17T13:26:38.915Z</time>
      </trkpt>
      <trkpt lat="51.751433" lon="8.456091">
        <ele>93.165190</ele>
        <time>2026-08-17T13:26:41.258Z</time>
      </trkpt>
      <trkpt lat="51.751326" lon="8.455469">
        <ele>92.776636</ele>
        <time>2026-08-17T13:26:49.077Z</time>
      </trkpt>
      <trkpt lat="51.751304" lon="8.455020">
        <ele>92.451594</ele>
        <time>2026-08-17T13:26:54.509Z</time>
      </trkpt>
      <trkpt lat="51.751327" lon="8.454725">
        <ele>92.237020</ele>
        <time>2026-08-17T13:26:58.067Z</time>
      </trkpt>
      <trkpt lat="51.751413" lon="8.454358">
        <ele>91.953829</ele>
        <time>2026-08-17T13:27:02.681Z</time>
      </trkpt>
      <trkpt lat="51.751618" lon="8.453790">
        <ele>91.479350</ele>
        <time>2026-08-17T13:27:10.303Z</time>
      </trkpt>
      <trkpt lat="51.751716" lon="8.453435">
        <ele>91.198843</ele>
        <time>2026-08-17T13:27:14.755Z</time>
      </trkpt>
      <trkpt lat="51.752044" lon="8.451319">
        <ele>89.269046</ele>
        <time>2026-08-17T13:27:39.571Z</time>
      </trkpt>
      <trkpt lat="51.752171" lon="8.450351">
        <ele>88.361680</ele>
        <time>2026-08-17T13:27:50.789Z</time>
      </trkpt>
      <trkpt lat="51.752263" lon="8.449160">
        <ele>87.138259</ele>
        <time>2026-08-17T13:28:04.345Z</time>
      </trkpt>
      <trkpt lat="51.752265" lon="8.448612">
        <ele>86.574824</ele>
        <time>2026-08-17T13:28:10.470Z</time>
      </trkpt>
      <trkpt lat="51.752218" lon="8.448075">
        <ele>86.017217</ele>
        <time>2026-08-17T13:28:16.506Z</time>
      </trkpt>
      <trkpt lat="51.753616" lon="8.447381">
        <ele>83.776086</ele>
        <time>2026-08-17T13:28:44.111Z</time>
      </trkpt>
      <trkpt lat="51.754458" lon="8.446875">
        <ele>82.561151</ele>
        <time>2026-08-17T13:29:01.692Z</time>
      </trkpt>
      <trkpt lat="51.755020" lon="8.446478">
        <ele>82.216039</ele>
        <time>2026-08-17T13:29:14.266Z</time>
      </trkpt>
      <trkpt lat="51.755557" lon="8.445774">
        <ele>81.826930</ele>
        <time>2026-08-17T13:29:29.497Z</time>
      </trkpt>
      <trkpt lat="51.755809" lon="8.445616">
        <ele>81.674841</ele>
        <time>2026-08-17T13:29:35.650Z</time>
      </trkpt>
      <trkpt lat="51.755916" lon="8.445573">
        <ele>81.616836</ele>
        <time>2026-08-17T13:29:38.187Z</time>
      </trkpt>
      <trkpt lat="51.756049" lon="8.445584">
        <ele>81.598528</ele>
        <time>2026-08-17T13:29:41.244Z</time>
      </trkpt>
      <trkpt lat="51.756322" lon="8.445751">
        <ele>81.558395</ele>
        <time>2026-08-17T13:29:47.969Z</time>
      </trkpt>
      <trkpt lat="51.756476" lon="8.445759">
        <ele>81.537213</ele>
        <time>2026-08-17T13:29:51.543Z</time>
      </trkpt>
      <trkpt lat="51.757702" lon="8.445369">
        <ele>81.351739</ele>
        <time>2026-08-17T13:30:19.925Z</time>
      </trkpt>
      <trkpt lat="51.758602" lon="8.445277">
        <ele>80.915691</ele>
        <time>2026-08-17T13:30:39.552Z</time>
      </trkpt>
      <trkpt lat="51.758616" lon="8.445246">
        <ele>80.904206</ele>
        <time>2026-08-17T13:30:40.066Z</time>
      </trkpt>
      <trkpt lat="51.758873" lon="8.445358">
        <ele>80.775496</ele>
        <time>2026-08-17T13:30:45.450Z</time>
      </trkpt>
      <trkpt lat="51.758946" lon="8.445260">
        <ele>80.729603</ele>
        <time>2026-08-17T13:30:47.377Z</time>
      </trkpt>
      <trkpt lat="51.759034" lon="8.445224">
        <ele>80.685709</ele>
        <time>2026-08-17T13:30:49.198Z</time>
      </trkpt>
      <trkpt lat="51.759389" lon="8.445158">
        <ele>80.512922</ele>
        <time>2026-08-17T13:30:56.382Z</time>
      </trkpt>
      <trkpt lat="51.761472" lon="8.444772">
        <ele>79.269266</ele>
        <time>2026-08-17T13:31:38.481Z</time>
      </trkpt>
      <trkpt lat="51.763517" lon="8.444380">
        <ele>78.757653</ele>
        <time>2026-08-17T13:32:23.007Z</time>
      </trkpt>
      <trkpt lat="51.763592" lon="8.444352">
        <ele>78.740374</ele>
        <time>2026-08-17T13:32:24.681Z</time>
      </trkpt>
      <trkpt lat="51.767961" lon="8.440735">
        <ele>77.563260</ele>
        <time>2026-08-17T13:34:09.312Z</time>
      </trkpt>
      <trkpt lat="51.770200" lon="8.439476">
        <ele>76.814584</ele>
        <time>2026-08-17T13:34:58.997Z</time>
      </trkpt>
      <trkpt lat="51.770404" lon="8.439392">
        <ele>76.769623</ele>
        <time>2026-08-17T13:35:03.428Z</time>
      </trkpt>
      <trkpt lat="51.770574" lon="8.439376">
        <ele>76.733254</ele>
        <time>2026-08-17T13:35:07.003Z</time>
      </trkpt>
      <trkpt lat="51.771629" lon="8.439541">
        <ele>76.688669</ele>
        <time>2026-08-17T13:35:30.457Z</time>
      </trkpt>
      <trkpt lat="51.771798" lon="8.436006">
        <ele>77.219728</ele>
        <time>2026-08-17T13:36:22.956Z</time>
      </trkpt>
      <trkpt lat="51.772349" lon="8.433514">
        <ele>77.268290</ele>
        <time>2026-08-17T13:36:58.248Z</time>
      </trkpt>
      <trkpt lat="51.772924" lon="8.433822">
        <ele>77.228957</ele>
        <time>2026-08-17T13:37:11.562Z</time>
      </trkpt>
      <trkpt lat="51.776444" lon="8.436003">
        <ele>77.660185</ele>
        <time>2026-08-17T13:38:37.234Z</time>
      </trkpt>
      <trkpt lat="51.776553" lon="8.435987">
        <ele>77.679576</ele>
        <time>2026-08-17T13:38:39.848Z</time>
      </trkpt>
      <trkpt lat="51.777204" lon="8.439580">
        <ele>78.174716</ele>
        <time>2026-08-17T13:39:34.328Z</time>
      </trkpt>
      <trkpt lat="51.777285" lon="8.440026">
        <ele>78.095745</ele>
        <time>2026-08-17T13:39:40.345Z</time>
      </trkpt>
      <trkpt lat="51.777375" lon="8.440520">
        <ele>78.008254</ele>
        <time>2026-08-17T13:39:46.938Z</time>
      </trkpt>
      <trkpt lat="51.777492" lon="8.441127">
        <ele>77.900239</ele>
        <time>2026-08-17T13:39:54.969Z</time>
      </trkpt>
      <trkpt lat="51.777559" lon="8.441333">
        <ele>77.860700</ele>
        <time>2026-08-17T13:39:58.012Z</time>
      </trkpt>
      <trkpt lat="51.777713" lon="8.441636">
        <ele>77.794080</ele>
        <time>2026-08-17T13:40:02.967Z</time>
      </trkpt>
      <trkpt lat="51.777948" lon="8.441881">
        <ele>77.732293</ele>
        <time>2026-08-17T13:40:08.814Z</time>
      </trkpt>
      <trkpt lat="51.781211" lon="8.442827">
        <ele>78.062110</ele>
        <time>2026-08-17T13:41:24.199Z</time>
      </trkpt>
      <trkpt lat="51.781439" lon="8.442884">
        <ele>78.099113</ele>
        <time>2026-08-17T13:41:29.683Z</time>
      </trkpt>
      <trkpt lat="51.783366" lon="8.443455">
        <ele>78.557084</ele>
        <time>2026-08-17T13:42:15.391Z</time>
      </trkpt>
      <trkpt lat="51.785866" lon="8.441075">
        <ele>78.795695</ele>
        <time>2026-08-17T13:43:21.154Z</time>
      </trkpt>
      <trkpt lat="51.786185" lon="8.440768">
        <ele>78.803315</ele>
        <time>2026-08-17T13:43:29.395Z</time>
      </trkpt>
      <trkpt lat="51.787106" lon="8.439910">
        <ele>78.415429</ele>
        <time>2026-08-17T13:43:51.758Z</time>
      </trkpt>
      <trkpt lat="51.786522" lon="8.437926">
        <ele>77.855808</ele>
        <time>2026-08-17T13:44:19.166Z</time>
      </trkpt>
      <trkpt lat="51.786126" lon="8.436582">
        <ele>77.524135</ele>
        <time>2026-08-17T13:44:38.443Z</time>
      </trkpt>
      <trkpt lat="51.785270" lon="8.433673">
        <ele>77.258463</ele>
        <time>2026-08-17T13:45:22.129Z</time>
      </trkpt>
      <trkpt lat="51.786346" lon="8.432800">
        <ele>77.291544</ele>
        <time>2026-08-17T13:45:49.195Z</time>
      </trkpt>
      <trkpt lat="51.788533" lon="8.430989">
        <ele>77.451053</ele>
        <time>2026-08-17T13:46:44.454Z</time>
      </trkpt>
      <trkpt lat="51.788708" lon="8.430843">
        <ele>77.465052</ele>
        <time>2026-08-17T13:46:48.969Z</time>
      </trkpt>
      <trkpt lat="51.789057" lon="8.430589">
        <ele>77.490455</ele>
        <time>2026-08-17T13:46:57.667Z</time>
      </trkpt>
      <trkpt lat="51.789457" lon="8.430392">
        <ele>77.518209</ele>
        <time>2026-08-17T13:47:07.358Z</time>
      </trkpt>
      <trkpt lat="51.789451" lon="8.430271">
        <ele>77.523192</ele>
        <time>2026-08-17T13:47:09.100Z</time>
      </trkpt>
      <trkpt lat="51.789809" lon="8.430231">
        <ele>77.547010</ele>
        <time>2026-08-17T13:47:17.295Z</time>
      </trkpt>
      <trkpt lat="51.789899" lon="8.430157">
        <ele>77.553712</ele>
        <time>2026-08-17T13:47:19.529Z</time>
      </trkpt>
      <trkpt lat="51.789978" lon="8.430221">
        <ele>77.559577</ele>
        <time>2026-08-17T13:47:21.500Z</time>
      </trkpt>
      <trkpt lat="51.790273" lon="8.430430">
        <ele>77.580955</ele>
        <time>2026-08-17T13:47:28.503Z</time>
      </trkpt>
      <trkpt lat="51.790369" lon="8.430439">
        <ele>77.570722</ele>
        <time>2026-08-17T13:47:30.563Z</time>
      </trkpt>
      <trkpt lat="51.790508" lon="8.430376">
        <ele>77.548552</ele>
        <time>2026-08-17T13:47:33.640Z</time>
      </trkpt>
      <trkpt lat="51.790780" lon="8.430170">
        <ele>77.502425</ele>
        <time>2026-08-17T13:47:40.034Z</time>
      </trkpt>
      <trkpt lat="51.790963" lon="8.430026">
        <ele>77.471170</ele>
        <time>2026-08-17T13:47:44.331Z</time>
      </trkpt>
      <trkpt lat="51.791273" lon="8.429690">
        <ele>77.413855</ele>
        <time>2026-08-17T13:47:52.261Z</time>
      </trkpt>
      <trkpt lat="51.791336" lon="8.429622">
        <ele>77.402222</ele>
        <time>2026-08-17T13:47:53.829Z</time>
      </trkpt>
      <trkpt lat="51.791818" lon="8.429180">
        <ele>77.317123</ele>
        <time>2026-08-17T13:48:05.841Z</time>
      </trkpt>
      <trkpt lat="51.792035" lon="8.429072">
        <ele>77.374117</ele>
        <time>2026-08-17T13:48:10.945Z</time>
      </trkpt>
      <trkpt lat="51.792361" lon="8.428970">
        <ele>77.519533</ele>
        <time>2026-08-17T13:48:18.681Z</time>
      </trkpt>
      <trkpt lat="51.792425" lon="8.428950">
        <ele>77.548080</ele>
        <time>2026-08-17T13:48:20.283Z</time>
      </trkpt>
      <trkpt lat="51.793960" lon="8.428554">
        <ele>78.207303</ele>
        <time>2026-08-17T13:48:58.706Z</time>
      </trkpt>
      <trkpt lat="51.795982" lon="8.428086">
        <ele>79.088617</ele>
        <time>2026-08-17T13:49:46.448Z</time>
      </trkpt>
      <trkpt lat="51.796092" lon="8.428097">
        <ele>79.154995</ele>
        <time>2026-08-17T13:49:49.136Z</time>
      </trkpt>
      <trkpt lat="51.797789" lon="8.427687">
        <ele>79.792276</ele>
        <time>2026-08-17T13:50:32.509Z</time>
      </trkpt>
      <trkpt lat="51.797880" lon="8.427663">
        <ele>79.784798</ele>
        <time>2026-08-17T13:50:34.673Z</time>
      </trkpt>
      <trkpt lat="51.798296" lon="8.427554">
        <ele>79.750620</ele>
        <time>2026-08-17T13:50:44.014Z</time>
      </trkpt>
      <trkpt lat="51.799693" lon="8.427188">
        <ele>79.228444</ele>
        <time>2026-08-17T13:51:11.980Z</time>
      </trkpt>
      <trkpt lat="51.800301" lon="8.427035">
        <ele>78.825414</ele>
        <time>2026-08-17T13:51:24.112Z</time>
      </trkpt>
      <trkpt lat="51.801947" lon="8.426603">
        <ele>78.423993</ele>
        <time>2026-08-17T13:51:59.525Z</time>
      </trkpt>
      <trkpt lat="51.803045" lon="8.426341">
        <ele>78.494726</ele>
        <time>2026-08-17T13:52:25.518Z</time>
      </trkpt>
      <trkpt lat="51.803329" lon="8.426209">
        <ele>78.563122</ele>
        <time>2026-08-17T13:52:32.411Z</time>
      </trkpt>
      <trkpt lat="51.803377" lon="8.426164">
        <ele>78.575964</ele>
        <time>2026-08-17T13:52:33.719Z</time>
      </trkpt>
      <trkpt lat="51.803420" lon="8.426041">
        <ele>78.596187</ele>
        <time>2026-08-17T13:52:35.766Z</time>
      </trkpt>
      <trkpt lat="51.803427" lon="8.425938">
        <ele>78.611018</ele>
        <time>2026-08-17T13:52:37.251Z</time>
      </trkpt>
      <trkpt lat="51.803491" lon="8.425925">
        <ele>78.625947</ele>
        <time>2026-08-17T13:52:38.711Z</time>
      </trkpt>
      <trkpt lat="51.803553" lon="8.425906">
        <ele>78.640553</ele>
        <time>2026-08-17T13:52:40.152Z</time>
      </trkpt>
      <trkpt lat="51.803589" lon="8.426010">
        <ele>78.657612</ele>
        <time>2026-08-17T13:52:41.811Z</time>
      </trkpt>
      <trkpt lat="51.803651" lon="8.426086">
        <ele>78.675619</ele>
        <time>2026-08-17T13:52:43.520Z</time>
      </trkpt>
      <trkpt lat="51.803713" lon="8.426113">
        <ele>78.690481</ele>
        <time>2026-08-17T13:52:44.936Z</time>
      </trkpt>
      <trkpt lat="51.803714" lon="8.426214">
        <ele>78.704938</ele>
        <time>2026-08-17T13:52:46.303Z</time>
      </trkpt>
      <trkpt lat="51.803820" lon="8.426210">
        <ele>78.729479</ele>
        <time>2026-08-17T13:52:48.730Z</time>
      </trkpt>
      <trkpt lat="51.804027" lon="8.426174">
        <ele>78.777668</ele>
        <time>2026-08-17T13:52:53.627Z</time>
      </trkpt>
      <trkpt lat="51.804068" lon="8.426164">
        <ele>78.787265</ele>
        <time>2026-08-17T13:52:54.619Z</time>
      </trkpt>
      <trkpt lat="51.804318" lon="8.426103">
        <ele>78.913949</ele>
        <time>2026-08-17T13:53:00.811Z</time>
      </trkpt>
      <trkpt lat="51.804738" lon="8.426000">
        <ele>79.141881</ele>
        <time>2026-08-17T13:53:11.660Z</time>
      </trkpt>
      <trkpt lat="51.804902" lon="8.425959">
        <ele>79.230922</ele>
        <time>2026-08-17T13:53:16.068Z</time>
      </trkpt>
      <trkpt lat="51.805669" lon="8.425771">
        <ele>79.647163</ele>
        <time>2026-08-17T13:53:36.190Z</time>
      </trkpt>
      <trkpt lat="51.805865" lon="8.425690">
        <ele>79.755708</ele>
        <time>2026-08-17T13:53:41.413Z</time>
      </trkpt>
      <trkpt lat="51.805886" lon="8.425730">
        <ele>79.749132</ele>
        <time>2026-08-17T13:53:42.255Z</time>
      </trkpt>
      <trkpt lat="51.805948" lon="8.425741">
        <ele>79.725122</ele>
        <time>2026-08-17T13:53:43.812Z</time>
      </trkpt>
      <trkpt lat="51.805988" lon="8.425665">
        <ele>79.701366</ele>
        <time>2026-08-17T13:53:45.373Z</time>
      </trkpt>
      <trkpt lat="51.806384" lon="8.425831">
        <ele>79.543887</ele>
        <time>2026-08-17T13:53:57.713Z</time>
      </trkpt>
      <trkpt lat="51.806575" lon="8.425018">
        <ele>79.336876</ele>
        <time>2026-08-17T13:54:12.305Z</time>
      </trkpt>
      <trkpt lat="51.806706" lon="8.424832">
        <ele>79.269770</ele>
        <time>2026-08-17T13:54:16.838Z</time>
      </trkpt>
      <trkpt lat="51.806833" lon="8.424715">
        <ele>79.213506</ele>
        <time>2026-08-17T13:54:20.626Z</time>
      </trkpt>
      <trkpt lat="51.807104" lon="8.424561">
        <ele>79.102931</ele>
        <time>2026-08-17T13:54:28.133Z</time>
      </trkpt>
      <trkpt lat="51.807304" lon="8.424505">
        <ele>79.033964</ele>
        <time>2026-08-17T13:54:33.497Z</time>
      </trkpt>
      <trkpt lat="51.807444" lon="8.424486">
        <ele>78.991698</ele>
        <time>2026-08-17T13:54:37.197Z</time>
      </trkpt>
      <trkpt lat="51.807693" lon="8.424519">
        <ele>78.916538</ele>
        <time>2026-08-17T13:54:43.792Z</time>
      </trkpt>
      <trkpt lat="51.808142" lon="8.424660">
        <ele>78.778938</ele>
        <time>2026-08-17T13:54:56.448Z</time>
      </trkpt>
      <trkpt lat="51.808882" lon="8.424962">
        <ele>78.549338</ele>
        <time>2026-08-17T13:55:18.892Z</time>
      </trkpt>
      <trkpt lat="51.809290" lon="8.425352">
        <ele>78.733952</ele>
        <time>2026-08-17T13:55:33.581Z</time>
      </trkpt>
      <trkpt lat="51.809700" lon="8.425800">
        <ele>78.994747</ele>
        <time>2026-08-17T13:55:49.320Z</time>
      </trkpt>
      <trkpt lat="51.809912" lon="8.426146">
        <ele>79.153490</ele>
        <time>2026-08-17T13:55:59.020Z</time>
      </trkpt>
      <trkpt lat="51.810135" lon="8.426518">
        <ele>79.322341</ele>
        <time>2026-08-17T13:56:09.187Z</time>
      </trkpt>
      <trkpt lat="51.810212" lon="8.426635">
        <ele>79.378026</ele>
        <time>2026-08-17T13:56:13.372Z</time>
      </trkpt>
      <trkpt lat="51.810247" lon="8.426727">
        <ele>79.413228</ele>
        <time>2026-08-17T13:56:15.463Z</time>
      </trkpt>
      <trkpt lat="51.810265" lon="8.427098">
        <ele>79.475388</ele>
        <time>2026-08-17T13:56:22.611Z</time>
      </trkpt>
      <trkpt lat="51.810446" lon="8.427247">
        <ele>79.478403</ele>
        <time>2026-08-17T13:56:28.860Z</time>
      </trkpt>
      <trkpt lat="51.810589" lon="8.427392">
        <ele>79.480909</ele>
        <time>2026-08-17T13:56:35.338Z</time>
      </trkpt>
      <trkpt lat="51.810654" lon="8.427463">
        <ele>79.482074</ele>
        <time>2026-08-17T13:56:37.691Z</time>
      </trkpt>
      <trkpt lat="51.810623" lon="8.427582">
        <ele>79.483259</ele>
        <time>2026-08-17T13:56:40.106Z</time>
      </trkpt>
      <trkpt lat="51.810609" lon="8.427720">
        <ele>79.484543</ele>
        <time>2026-08-17T13:56:43.401Z</time>
      </trkpt>
      <trkpt lat="51.810531" lon="8.428025">
        <ele>79.487573</ele>
        <time>2026-08-17T13:56:49.584Z</time>
      </trkpt>
      <trkpt lat="51.810654" lon="8.428124">
        <ele>79.489613</ele>
        <time>2026-08-17T13:56:52.673Z</time>
      </trkpt>
      <trkpt lat="51.810748" lon="8.428177">
        <ele>79.491091</ele>
        <time>2026-08-17T13:56:54.851Z</time>
      </trkpt>
      <trkpt lat="51.810739" lon="8.428302">
        <ele>79.492246</ele>
        <time>2026-08-17T13:56:57.079Z</time>
      </trkpt>
      <trkpt lat="51.811150" lon="8.428684">
        <ele>79.499284</ele>
        <time>2026-08-17T13:57:10.132Z</time>
      </trkpt>
      <trkpt lat="51.811243" lon="8.428631">
        <ele>79.495490</ele>
        <time>2026-08-17T13:57:12.828Z</time>
      </trkpt>
      <trkpt lat="51.811371" lon="8.428802">
        <ele>79.462752</ele>
        <time>2026-08-17T13:57:16.349Z</time>
      </trkpt>
      <trkpt lat="51.811683" lon="8.429042">
        <ele>79.394622</ele>
        <time>2026-08-17T13:57:23.791Z</time>
      </trkpt>
      <trkpt lat="51.812045" lon="8.429054">
        <ele>79.323221</ele>
        <time>2026-08-17T13:57:31.795Z</time>
      </trkpt>
      <trkpt lat="51.812301" lon="8.429010">
        <ele>79.272453</ele>
        <time>2026-08-17T13:57:37.590Z</time>
      </trkpt>
      <trkpt lat="51.812376" lon="8.428996">
        <ele>79.257565</ele>
        <time>2026-08-17T13:57:39.213Z</time>
      </trkpt>
      <trkpt lat="51.812384" lon="8.429096">
        <ele>79.245272</ele>
        <time>2026-08-17T13:57:41.028Z</time>
      </trkpt>
      <trkpt lat="51.812959" lon="8.428989">
        <ele>79.148220</ele>
        <time>2026-08-17T13:57:58.031Z</time>
      </trkpt>
      <trkpt lat="51.813027" lon="8.428979">
        <ele>79.150562</ele>
        <time>2026-08-17T13:58:00.092Z</time>
      </trkpt>
      <trkpt lat="51.813079" lon="8.428981">
        <ele>79.152347</ele>
        <time>2026-08-17T13:58:01.673Z</time>
      </trkpt>
      <trkpt lat="51.813311" lon="8.429018">
        <ele>79.160346</ele>
        <time>2026-08-17T13:58:08.795Z</time>
      </trkpt>
      <trkpt lat="51.813779" lon="8.429177">
        <ele>79.176754</ele>
        <time>2026-08-17T13:58:23.413Z</time>
      </trkpt>
      <trkpt lat="51.814743" lon="8.429472">
        <ele>79.189297</ele>
        <time>2026-08-17T13:58:51.621Z</time>
      </trkpt>
      <trkpt lat="51.815640" lon="8.429673">
        <ele>79.002758</ele>
        <time>2026-08-17T13:59:17.652Z</time>
      </trkpt>
      <trkpt lat="51.816499" lon="8.429788">
        <ele>78.836895</ele>
        <time>2026-08-17T13:59:41.679Z</time>
      </trkpt>
      <trkpt lat="51.817276" lon="8.429890">
        <ele>78.836895</ele>
        <time>2026-08-17T14:00:03.717Z</time>
      </trkpt>
      <trkpt lat="51.817634" lon="8.429941">
        <ele>78.836895</ele>
        <time>2026-08-17T14:00:13.735Z</time>
      </trkpt>
      <trkpt lat="51.818329" lon="8.430039">
        <ele>78.836895</ele>
        <time>2026-08-17T14:00:33.722Z</time>
      </trkpt>
      <trkpt lat="51.818384" lon="8.430046">
        <ele>78.836895</ele>
        <time>2026-08-17T14:00:35.366Z</time>
      </trkpt>
      <trkpt lat="51.818379" lon="8.430305">
        <ele>78.836895</ele>
        <time>2026-08-17T14:00:39.055Z</time>
      </trkpt>
    </trkseg>
  </trk>
</gpx>